[[{"header":{"parameterUnit":"m.s-1","parameterCategory":1,"la1":30.6,"la2":29.2853,"lo1":-89.7004,"lo2":-87.6739,"dy":0.0162,"dx":0.0183,"nx":112,"ny":82,"refTime":"2023-07-26T06:00:00:Z","depth":0,"parameterNumber":2,"parameterNumberName":"U-component_of_WINDS"},"data":[0.0,0.0,0.0,0.0,0.0,0.0,0.0,0.0,0.0,0.0,0.0,0.0,0.0,0.0,0.0,0.0,0.0,0.0,0.0,0.0,0.0,0.0,0.0,0.0,0.0,0.0,0.0,0.0,0.0,0.0,0.0,0.0,0.0,0.0,0.0,0.0,0.0,0.0,0.0,0.0,0.0,0.0,0.0,0.0,0.0,0.0,0.0,0.0,0.0,0.0,0.0,0.0,0.0,0.0,0.0,0.0,0.0,0.0,0.0,0.0,0.0,0.0,0.0,0.0,0.0,0.0,0.0,0.0,0.0,0.0,0.0,0.0,0.0,0.0,0.0,0.0,0.0,0.0,0.0,0.0,0.0,0.0,0.0,0.0,0.0,0.0,0.0,0.0,0.0,0.0,-2.2574,-2.2665,-2.2287,-2.2405,-2.332,-2.1507,-2.0288,-2.0249,0.0,0.0,0.0,0.0,0.0,0.0,0.0,0.0,0.0,0.0,0.0,0.0,0.0,0.0,0.0,0.0,0.0,0.0,0.0,0.0,0.0,0.0,0.0,0.0,0.0,0.0,0.0,0.0,0.0,0.0,0.0,0.0,0.0,0.0,0.0,0.0,0.0,0.0,0.0,0.0,0.0,0.0,0.0,0.0,0.0,0.0,0.0,0.0,0.0,0.0,0.0,0.0,0.0,0.0,0.0,0.0,0.0,0.0,0.0,0.0,0.0,0.0,0.0,0.0,0.0,0.0,0.0,0.0,0.0,0.0,0.0,0.0,0.0,0.0,0.0,0.0,0.0,0.0,0.0,0.0,0.0,0.0,0.0,0.0,0.0,0.0,0.0,0.0,0.0,0.0,0.0,0.0,0.0,0.0,0.0,0.0,0.0,0.0,0.0,0.0,0.0,0.0,0.0,0.0,-2.1316,-2.2498,-2.206,-2.1757,-2.1982,-2.077,-1.9716,-1.9089,0.0,0.0,0.0,0.0,0.0,0.0,0.0,0.0,0.0,0.0,0.0,0.0,0.0,0.0,0.0,0.0,0.0,0.0,0.0,0.0,0.0,0.0,0.0,0.0,0.0,0.0,0.0,0.0,0.0,0.0,0.0,0.0,0.0,0.0,0.0,0.0,0.0,0.0,0.0,0.0,0.0,0.0,0.0,0.0,0.0,0.0,0.0,0.0,0.0,0.0,0.0,0.0,0.0,0.0,0.0,0.0,0.0,0.0,0.0,0.0,0.0,0.0,0.0,0.0,0.0,0.0,0.0,0.0,0.0,0.0,0.0,0.0,0.0,0.0,0.0,0.0,0.0,0.0,0.0,0.0,0.0,0.0,0.0,0.0,0.0,0.0,0.0,0.0,0.0,0.0,0.0,0.0,0.0,0.0,0.0,0.0,0.0,0.0,0.0,0.0,0.0,0.0,0.0,-2.072,-2.1207,-2.1836,-2.0932,-2.0336,-2.0433,-1.9487,-1.8566,-1.7814,-1.7397,0.0,0.0,0.0,0.0,0.0,0.0,0.0,0.0,0.0,0.0,0.0,0.0,0.0,0.0,0.0,0.0,0.0,0.0,0.0,0.0,0.0,0.0,0.0,0.0,0.0,0.0,0.0,0.0,0.0,0.0,0.0,0.0,0.0,0.0,0.0,0.0,0.0,0.0,0.0,0.0,0.0,0.0,0.0,0.0,0.0,0.0,0.0,0.0,0.0,0.0,0.0,0.0,0.0,0.0,0.0,0.0,0.0,0.0,0.0,0.0,0.0,0.0,0.0,0.0,0.0,0.0,0.0,0.0,0.0,0.0,0.0,0.0,0.0,0.0,0.0,0.0,0.0,0.0,0.0,0.0,0.0,0.0,0.0,0.0,0.0,0.0,0.0,0.0,0.0,0.0,0.0,0.0,0.0,0.0,0.0,0.0,0.0,0.0,0.0,0.0,0.0,0.0,-2.0807,-2.1282,-2.0974,-1.9904,-1.9198,-1.9187,-1.8459,-1.7644,-1.6783,-1.654,0.0,0.0,0.0,0.0,0.0,0.0,0.0,0.0,0.0,0.0,0.0,0.0,0.0,0.0,0.0,0.0,0.0,0.0,0.0,0.0,0.0,0.0,0.0,0.0,0.0,0.0,0.0,0.0,0.0,0.0,0.0,0.0,0.0,0.0,0.0,0.0,0.0,0.0,0.0,0.0,0.0,0.0,0.0,0.0,0.0,0.0,0.0,0.0,0.0,0.0,0.0,0.0,0.0,0.0,0.0,0.0,0.0,0.0,0.0,0.0,0.0,0.0,0.0,0.0,0.0,0.0,0.0,0.0,0.0,0.0,0.0,0.0,0.0,0.0,0.0,0.0,0.0,0.0,0.0,0.0,0.0,0.0,0.0,0.0,0.0,0.0,0.0,0.0,0.0,0.0,0.0,0.0,0.0,0.0,0.0,0.0,0.0,0.0,0.0,0.0,0.0,0.0,-2.0227,-2.1024,-2.0012,-1.9476,-1.9029,-1.8614,-1.8219,-1.7512,-1.6334,-1.6332,0.0,0.0,0.0,0.0,0.0,0.0,0.0,0.0,0.0,0.0,0.0,0.0,0.0,0.0,0.0,0.0,0.0,0.0,0.0,0.0,0.0,0.0,0.0,0.0,0.0,0.0,0.0,0.0,0.0,0.0,0.0,0.0,0.0,0.0,0.0,0.0,0.0,0.0,0.0,0.0,0.0,0.0,0.0,0.0,0.0,0.0,0.0,0.0,0.0,0.0,0.0,0.0,0.0,0.0,0.0,0.0,0.0,0.0,0.0,0.0,0.0,0.0,0.0,0.0,0.0,0.0,0.0,0.0,0.0,0.0,0.0,0.0,0.0,0.0,0.0,0.0,0.0,0.0,0.0,0.0,0.0,0.0,0.0,0.0,0.0,0.0,0.0,0.0,0.0,0.0,0.0,0.0,0.0,0.0,0.0,0.0,0.0,0.0,0.0,0.0,0.0,0.0,-1.9273,-1.9886,0.0,-1.8953,-1.8272,-1.7973,-1.7663,-1.6954,-1.5642,0.0,0.0,0.0,0.0,0.0,0.0,0.0,0.0,0.0,0.0,0.0,0.0,0.0,0.0,0.0,0.0,0.0,0.0,0.0,0.0,0.0,0.0,0.0,0.0,0.0,0.0,0.0,0.0,0.0,0.0,0.0,0.0,0.0,0.0,0.0,0.0,0.0,0.0,0.0,0.0,0.0,0.0,0.0,0.0,0.0,0.0,0.0,0.0,0.0,0.0,0.0,0.0,0.0,0.0,0.0,0.0,0.0,0.0,0.0,0.0,0.0,0.0,0.0,0.0,0.0,0.0,0.0,0.0,0.0,0.0,0.0,0.0,0.0,0.0,0.0,0.0,0.0,0.0,0.0,0.0,0.0,0.0,0.0,0.0,0.0,0.0,0.0,0.0,0.0,0.0,0.0,0.0,0.0,0.0,0.0,0.0,0.0,0.0,0.0,0.0,0.0,0.0,-1.8268,-1.8753,-1.9205,0.0,-1.8559,-1.7676,-1.7569,-1.7189,-1.6551,-1.5512,0.0,0.0,0.0,0.0,0.0,0.0,0.0,0.0,0.0,0.0,0.0,0.0,0.0,0.0,0.0,0.0,0.0,0.0,0.0,0.0,0.0,0.0,0.0,0.0,0.0,0.0,0.0,0.0,0.0,0.0,0.0,0.0,0.0,0.0,0.0,0.0,0.0,0.0,0.0,0.0,0.0,0.0,0.0,0.0,0.0,0.0,0.0,0.0,0.0,0.0,0.0,0.0,0.0,0.0,0.0,0.0,0.0,0.0,0.0,0.0,0.0,0.0,0.0,0.0,0.0,0.0,0.0,0.0,0.0,0.0,0.0,0.0,0.0,0.0,0.0,0.0,0.0,0.0,0.0,0.0,0.0,0.0,0.0,0.0,0.0,0.0,0.0,0.0,0.0,0.0,0.0,0.0,0.0,0.0,0.0,0.0,0.0,0.0,0.0,0.0,0.0,0.0,-1.831,-1.8735,-1.9186,-1.9731,-1.8355,-1.7421,-1.7497,-1.6882,-1.6358,0.0,0.0,0.0,0.0,0.0,0.0,0.0,0.0,0.0,0.0,0.0,0.0,0.0,0.0,0.0,0.0,0.0,0.0,0.0,0.0,0.0,0.0,0.0,0.0,0.0,0.0,0.0,0.0,0.0,0.0,0.0,0.0,0.0,0.0,0.0,0.0,0.0,0.0,0.0,0.0,0.0,0.0,0.0,0.0,0.0,0.0,0.0,0.0,0.0,0.0,0.0,0.0,0.0,0.0,0.0,0.0,0.0,0.0,0.0,0.0,0.0,0.0,0.0,0.0,0.0,0.0,0.0,0.0,0.0,0.0,0.0,0.0,0.0,0.0,0.0,0.0,0.0,0.0,0.0,0.0,0.0,0.0,0.0,0.0,0.0,0.0,0.0,0.0,0.0,0.0,0.0,0.0,0.0,0.0,0.0,0.0,0.0,0.0,0.0,0.0,0.0,0.0,0.0,-1.8785,-1.8163,-1.8159,-1.9648,-1.8026,-1.7038,-1.7535,-1.7114,-1.6923,-1.7129,0.0,0.0,0.0,0.0,0.0,0.0,0.0,0.0,0.0,0.0,0.0,0.0,0.0,0.0,0.0,0.0,0.0,0.0,0.0,0.0,0.0,0.0,0.0,0.0,0.0,0.0,0.0,0.0,0.0,0.0,0.0,0.0,0.0,0.0,0.0,0.0,0.0,0.0,0.0,0.0,0.0,0.0,0.0,0.0,0.0,0.0,0.0,0.0,0.0,0.0,0.0,0.0,0.0,0.0,0.0,0.0,0.0,0.0,0.0,0.0,0.0,0.0,0.0,0.0,0.0,0.0,0.0,0.0,0.0,0.0,0.0,0.0,0.0,0.0,0.0,0.0,0.0,0.0,0.0,0.0,0.0,0.0,0.0,0.0,0.0,0.0,0.0,0.0,0.0,0.0,0.0,0.0,0.0,0.0,0.0,0.0,0.0,0.0,0.0,0.0,0.0,0.0,-1.9031,-1.7897,-1.7593,-1.9146,-1.757,-1.6584,-1.7029,-1.6853,-1.6949,-1.7455,0.0,0.0,0.0,0.0,0.0,0.0,0.0,0.0,0.0,0.0,0.0,0.0,0.0,0.0,0.0,0.0,0.0,0.0,0.0,0.0,0.0,0.0,0.0,0.0,0.0,0.0,0.0,0.0,0.0,0.0,0.0,0.0,0.0,0.0,0.0,0.0,0.0,0.0,0.0,0.0,0.0,0.0,0.0,0.0,0.0,0.0,0.0,0.0,0.0,0.0,0.0,0.0,0.0,0.0,0.0,0.0,0.0,0.0,0.0,0.0,0.0,0.0,0.0,0.0,0.0,0.0,0.0,0.0,0.0,0.0,0.0,0.0,0.0,0.0,0.0,0.0,0.0,0.0,0.0,0.0,0.0,0.0,0.0,0.0,0.0,0.0,0.0,0.0,0.0,0.0,0.0,0.0,0.0,0.0,0.0,0.0,0.0,0.0,0.0,0.0,0.0,0.0,-1.9273,-1.806,-1.7547,-1.8508,-1.7063,-1.6112,-1.6281,-1.6288,-1.66,-1.7319,0.0,0.0,0.0,0.0,0.0,0.0,0.0,0.0,0.0,0.0,0.0,0.0,0.0,0.0,0.0,0.0,0.0,0.0,0.0,0.0,0.0,0.0,0.0,0.0,0.0,0.0,0.0,0.0,0.0,0.0,0.0,0.0,0.0,0.0,0.0,0.0,0.0,0.0,0.0,0.0,0.0,0.0,0.0,0.0,0.0,0.0,0.0,0.0,0.0,0.0,0.0,0.0,0.0,0.0,0.0,0.0,0.0,0.0,0.0,0.0,-3.4337,0.0,0.0,0.0,0.0,0.0,0.0,0.0,0.0,0.0,0.0,0.0,0.0,0.0,0.0,0.0,0.0,0.0,0.0,0.0,0.0,0.0,0.0,0.0,0.0,0.0,0.0,0.0,0.0,0.0,0.0,0.0,0.0,0.0,0.0,0.0,0.0,0.0,0.0,0.0,0.0,0.0,-2.0398,-1.9232,-1.8478,-1.8656,-1.6854,-1.5807,-1.6268,-1.6252,-1.6661,-1.7704,-1.8324,0.0,0.0,0.0,0.0,0.0,0.0,0.0,0.0,0.0,0.0,0.0,0.0,0.0,0.0,0.0,0.0,0.0,0.0,0.0,0.0,0.0,0.0,0.0,0.0,0.0,0.0,0.0,0.0,0.0,0.0,0.0,0.0,0.0,0.0,0.0,0.0,0.0,0.0,0.0,0.0,0.0,0.0,0.0,0.0,0.0,0.0,0.0,0.0,0.0,0.0,0.0,0.0,0.0,0.0,0.0,0.0,0.0,0.0,0.0,0.0,-3.5474,0.0,0.0,0.0,0.0,0.0,0.0,0.0,0.0,0.0,0.0,0.0,0.0,0.0,0.0,0.0,0.0,0.0,0.0,0.0,0.0,0.0,0.0,0.0,0.0,0.0,0.0,0.0,0.0,0.0,0.0,0.0,0.0,0.0,0.0,0.0,0.0,0.0,0.0,0.0,0.0,-2.0369,-1.9078,-1.8035,-1.7559,-1.6295,-1.5429,-1.5255,-1.5835,-1.6562,-1.7368,-1.8331,0.0,0.0,0.0,0.0,0.0,0.0,0.0,0.0,0.0,0.0,0.0,0.0,0.0,0.0,0.0,0.0,0.0,0.0,0.0,0.0,0.0,0.0,0.0,0.0,0.0,0.0,0.0,0.0,0.0,0.0,0.0,0.0,0.0,0.0,0.0,0.0,0.0,0.0,0.0,0.0,0.0,0.0,0.0,0.0,0.0,0.0,0.0,0.0,0.0,0.0,0.0,0.0,0.0,-3.9732,-4.0402,-4.0862,-4.0147,-3.9714,-3.9427,-3.8048,-3.7704,-3.7974,0.0,0.0,0.0,0.0,0.0,0.0,0.0,0.0,0.0,0.0,0.0,0.0,0.0,0.0,0.0,0.0,0.0,0.0,0.0,0.0,0.0,0.0,0.0,0.0,0.0,-2.9469,-3.0077,0.0,0.0,0.0,0.0,0.0,0.0,0.0,0.0,0.0,0.0,0.0,0.0,-2.017,-1.8758,-1.7411,-1.6316,-1.5636,-1.4936,-1.4173,-1.533,-1.6344,-1.6946,-1.8313,-1.9344,0.0,0.0,0.0,0.0,0.0,0.0,0.0,0.0,0.0,0.0,0.0,0.0,0.0,0.0,0.0,0.0,0.0,0.0,0.0,0.0,0.0,0.0,0.0,0.0,0.0,0.0,0.0,0.0,0.0,0.0,0.0,0.0,-3.2072,-3.2975,0.0,0.0,0.0,0.0,0.0,0.0,0.0,0.0,0.0,0.0,0.0,0.0,0.0,0.0,-3.9076,-4.0876,-4.1656,-4.1427,-4.2296,-4.2338,-4.1655,-4.154,-4.1062,-4.0331,-4.0115,0.0,-3.7998,-3.7772,0.0,0.0,0.0,0.0,0.0,0.0,0.0,0.0,0.0,0.0,0.0,0.0,0.0,0.0,0.0,0.0,0.0,0.0,0.0,0.0,0.0,0.0,-3.0456,-2.9626,-2.9023,-2.8747,0.0,-2.8747,-2.8283,-2.8058,0.0,0.0,0.0,0.0,0.0,0.0,0.0,0.0,-2.0891,-1.9539,-1.8086,-1.6388,-1.5053,-1.4232,-1.4122,-1.5078,-1.6164,-1.7256,-1.891,-2.001,-2.0307,-2.0178,0.0,0.0,0.0,0.0,0.0,0.0,0.0,0.0,0.0,0.0,0.0,0.0,0.0,0.0,0.0,0.0,0.0,0.0,0.0,0.0,0.0,0.0,0.0,0.0,0.0,0.0,0.0,0.0,0.0,-3.0468,-3.3073,-3.2582,-3.2164,-3.1175,0.0,0.0,0.0,0.0,0.0,0.0,0.0,0.0,0.0,-3.8565,-3.9967,-4.0586,-4.0388,-4.2066,-4.2583,-4.1957,-4.2265,-4.2448,-4.2508,-4.2027,-4.1585,-4.1181,-4.0219,-3.9411,-3.8681,-3.82,-3.8089,-3.8061,0.0,0.0,0.0,0.0,0.0,-3.5924,-3.6114,-3.6423,0.0,0.0,0.0,0.0,0.0,0.0,0.0,0.0,0.0,0.0,0.0,0.0,0.0,-2.9062,-2.8553,-2.8303,-2.8578,-2.8338,-2.8197,0.0,-2.8868,-2.8518,-2.6909,0.0,0.0,0.0,0.0,-2.2373,-2.0634,-1.9097,-1.7439,-1.5522,-1.4574,-1.3913,-1.3476,-1.4757,-1.6059,-1.7157,-1.8968,-2.0096,-2.0272,-2.0235,-1.925,0.0,0.0,0.0,0.0,0.0,0.0,0.0,0.0,0.0,0.0,0.0,0.0,0.0,0.0,0.0,0.0,0.0,0.0,0.0,0.0,0.0,0.0,0.0,0.0,0.0,0.0,0.0,0.0,-3.235,-3.4177,-3.2754,-3.338,-3.2801,0.0,0.0,0.0,0.0,0.0,0.0,-3.7171,-3.7639,-3.8651,-4.0418,-4.1717,-4.2164,-4.1679,-4.2611,-4.2811,-4.2298,-4.1523,-4.1604,-4.2393,-4.1316,-4.0835,-4.0758,-3.9508,-3.8969,-3.8892,-3.8027,-3.8046,-3.843,-3.6334,-3.5933,-3.6532,-3.6532,-3.657,-3.6731,-3.7448,-3.7576,-3.7141,-3.5544,0.0,-3.3945,-3.1702,0.0,0.0,0.0,0.0,-3.0336,-2.9681,-2.9217,-2.8749,-2.8104,-2.7721,-2.755,-2.771,-2.7725,-2.7935,0.0,-2.9324,-2.9081,-2.7102,0.0,0.0,0.0,0.0,-2.1813,-2.0063,-1.8313,-1.6561,-1.4789,-1.4268,-1.3736,-1.297,-1.4493,-1.5849,-1.6743,-1.8489,-1.956,-1.9639,-1.9491,-1.8399,-1.6194,0.0,0.0,0.0,0.0,0.0,0.0,0.0,0.0,0.0,0.0,0.0,0.0,0.0,0.0,0.0,0.0,0.0,0.0,0.0,0.0,0.0,0.0,0.0,0.0,0.0,0.0,0.0,0.0,0.0,-3.4834,-3.5747,0.0,0.0,0.0,0.0,-3.2808,-3.5276,-3.7201,-3.8182,-3.9082,-4.0394,-4.2207,-4.2344,-4.2749,-4.345,-4.2604,-4.249,-4.3111,-4.0631,-3.9854,-4.0566,-3.8931,-3.82,-3.818,-3.8104,-3.8065,-3.8007,-3.7123,-3.6796,-3.6738,-3.5853,-3.5526,-3.5578,-3.5578,-3.5578,-3.5592,-3.5779,-3.534,-3.484,-3.5657,-3.4805,-3.3261,-3.2248,-3.1939,0.0,0.0,-3.0684,-3.0515,-2.9783,-2.8316,-2.701,-2.6971,-2.6298,-2.5848,-2.6609,-2.6819,-2.7083,0.0,-2.7447,-2.6924,-2.6741,0.0,-2.5333,-2.4399,-2.2815,-2.113,-1.9375,-1.7454,-1.5838,-1.4728,-1.4192,-1.3626,-1.2969,-1.4282,-1.5354,-1.5935,-1.7381,-1.8192,-1.8197,-1.7594,-1.6718,-1.5592,-1.5028,0.0,0.0,0.0,0.0,0.0,0.0,0.0,0.0,0.0,0.0,0.0,0.0,0.0,0.0,0.0,0.0,0.0,0.0,0.0,0.0,0.0,0.0,0.0,0.0,0.0,0.0,0.0,0.0,-3.5401,-3.6022,0.0,-3.3515,-3.335,-3.3708,-3.4513,-3.6551,-3.8152,-3.9084,-4.0033,-4.0606,-4.0781,-4.1348,-4.1229,-4.0384,-4.0504,-4.0377,-4.0033,-3.8485,-3.7868,-3.8027,-3.6911,-3.6392,-3.6372,-3.5795,-3.5545,-3.5488,-3.4603,-3.5218,-3.6507,-3.4584,-3.418,-3.4661,-3.4661,-3.4661,-3.4693,-3.487,-3.4374,-3.3459,-3.2277,-3.1074,-3.0058,-2.9724,-2.9624,-2.9545,-2.9234,-2.9156,-2.896,-2.8144,-2.7008,-2.5939,-2.541,-2.4542,-2.3908,-2.4199,-2.4237,-2.4297,-2.4562,-2.5842,-2.65,-2.5342,-2.4973,-2.4511,-2.3632,-2.1988,-2.0416,-1.913,-1.7342,-1.5708,-1.4419,-1.4051,-1.3582,-1.2769,-1.3891,-1.4804,-1.5168,-1.6427,-1.6858,-1.6261,-1.5997,-1.4995,-1.3104,-1.3401,-1.3904,0.0,0.0,0.0,0.0,0.0,0.0,0.0,0.0,0.0,0.0,0.0,0.0,0.0,0.0,0.0,0.0,0.0,0.0,0.0,0.0,0.0,0.0,0.0,0.0,0.0,0.0,-3.7321,-3.5475,-3.63,-3.6099,-3.3695,-3.4182,-3.4961,-3.5699,-3.7288,-3.8346,-3.868,-3.9335,-3.9351,-3.8571,-3.9414,-3.9199,-3.7734,-3.8459,-3.838,-3.7475,-3.6502,-3.5971,-3.5862,-3.5001,-3.4468,-3.4199,-3.3603,-3.3179,-3.2852,-3.1987,-3.2602,-3.4045,-3.3218,-3.3256,-3.3757,-3.3757,-3.3583,-3.3306,-3.2881,-3.2419,-3.1668,-2.9782,-2.8769,-2.8301,-2.8301,-2.8301,-2.8242,-2.7949,-2.7851,-2.7598,-2.6425,-2.5633,-2.4868,-2.3725,-2.2926,-2.2358,-2.2088,-2.1987,-2.1955,-2.196,-2.3922,-2.521,-2.4023,-2.3893,-2.3554,-2.2374,-2.0922,-1.9502,-1.821,-1.6457,-1.4921,-1.3829,-1.3596,-1.3108,-1.2151,-1.3392,-1.4206,-1.4092,-1.5248,-1.5529,-1.4728,-1.4713,-1.3894,-1.2187,-1.3081,-1.4247,-1.5678,0.0,0.0,0.0,0.0,0.0,0.0,0.0,0.0,0.0,0.0,0.0,0.0,0.0,0.0,0.0,0.0,0.0,0.0,0.0,0.0,0.0,0.0,0.0,-3.5826,-3.7111,-3.7243,-3.5282,-3.6675,-3.6533,-3.3343,-3.4964,-3.6192,-3.619,-3.7359,-3.7693,-3.6832,-3.6988,-3.6703,-3.5835,-3.6696,-3.6777,-3.5918,-3.6623,-3.6579,-3.5752,-3.4703,-3.4177,-3.4109,-3.3164,-3.2314,-3.1583,-3.1583,-3.1102,-3.0275,-2.941,-2.9063,-2.9313,-3.1775,-3.2737,-3.2737,-3.2737,-3.2256,-3.1361,-2.9768,-2.9354,-2.9375,-2.8496,-2.8203,-2.8184,-2.8184,-2.8164,-2.7969,-2.7129,-2.6875,-2.6484,-2.4775,-2.4255,-2.3737,-2.1942,-2.1454,-2.1174,-2.0379,-2.0229,-2.0219,-2.0231,-2.1643,-2.2824,-2.2797,-2.2898,-2.2376,-2.0588,-1.955,0.0,-1.6578,-1.4716,-1.3408,-1.3041,-1.2804,-1.225,-1.1122,-1.2756,-1.3505,-1.272,-1.3869,-1.4289,-1.3679,-1.3772,-1.3584,-1.3041,-1.4227,-1.5892,-1.8007,0.0,0.0,0.0,0.0,0.0,0.0,0.0,0.0,0.0,0.0,0.0,0.0,0.0,0.0,0.0,0.0,0.0,0.0,0.0,0.0,0.0,0.0,-3.5109,-3.5457,-3.6399,-3.6844,-3.6309,-3.5967,-3.5299,-3.4008,-3.4083,-3.4036,-3.3653,-3.4658,-3.4952,-3.4197,-3.4756,-3.4749,-3.396,-3.4248,-3.4283,-3.4049,-3.4297,-3.3944,-3.2995,-3.2117,-3.1277,-3.0497,-2.9663,-2.914,-2.8929,-2.8929,-2.8813,-2.8563,-2.8332,-2.8217,-2.8294,-2.9006,-2.9275,-2.9275,-2.9275,-2.9166,-2.8857,-2.7784,-2.7508,-2.7508,-2.6628,-2.5953,-2.5469,-2.5469,-2.5039,-2.4492,-2.4297,-2.4238,-2.3984,-2.289,-2.203,-2.1196,-2.0126,-1.9295,-1.8684,-1.8454,-1.8402,-1.8414,-1.8416,-1.885,-1.942,-2.0034,-2.0177,-1.9815,-1.8682,-1.7184,0.0,-1.5381,-1.3664,-1.2583,-1.2763,-1.253,-1.2189,-1.1831,-1.2275,-1.2479,-1.2217,-1.3055,-1.3446,-1.3137,-1.3574,-1.3905,-1.4144,-1.5555,-1.6995,0.0,0.0,0.0,0.0,0.0,0.0,0.0,0.0,0.0,0.0,0.0,0.0,0.0,0.0,0.0,0.0,0.0,0.0,0.0,0.0,0.0,0.0,-3.3714,-3.4861,-3.4535,-3.5473,-3.6074,-3.5782,-3.4707,-3.3758,-3.3093,-3.2854,-3.2597,-3.2278,-3.2714,-3.2647,-3.1854,-3.2038,-3.182,-3.1054,-3.1469,-3.1538,-3.1167,-3.1599,-3.1323,-3.0388,-2.9885,-2.931,-2.8664,-2.8164,-2.773,0.0,-2.7351,-2.714,-2.6813,-2.6813,-2.6813,0.0,0.0,0.0,0.0,0.0,-2.7402,-2.7284,-2.6064,-2.5715,-2.5665,-2.4837,-2.3993,-2.3318,-2.334,-2.2734,-2.2051,-2.2109,-2.2109,-2.1894,-2.0994,-2.0348,-1.96,-1.8368,-1.7335,-1.6554,-1.6218,-1.5854,-1.5611,-1.5601,0.0,0.0,-1.6326,-1.7578,-1.814,-1.6858,-1.5773,-1.4785,-1.3912,-1.2516,-1.1644,-1.1766,-1.1525,-1.131,-1.1184,-1.1564,0.0,0.0,0.0,-1.3288,-1.3649,-1.4221,0.0,0.0,0.0,-1.793,-1.9135,0.0,0.0,0.0,-2.3539,-2.4657,0.0,0.0,0.0,0.0,0.0,0.0,0.0,0.0,0.0,0.0,0.0,0.0,0.0,0.0,0.0,0.0,-3.3964,-3.4184,-3.3288,-3.4107,-3.4577,-3.3926,-3.292,-3.192,-3.1029,-3.1214,-3.1355,-3.1262,-3.0992,-3.0498,-2.9736,0.0,0.0,0.0,0.0,-2.8954,-2.8196,-2.9019,-2.9004,-2.8144,-2.8071,-2.7975,-2.7799,-2.7632,-2.7129,-2.6314,-2.6227,-2.5736,-2.5014,-2.5014,-2.5014,-2.5187,-2.6928,-2.7601,-2.7505,-2.664,-2.6361,0.0,0.0,0.0,0.0,-2.3054,-2.2227,-2.1531,-2.1582,-2.0996,-2.0312,-2.0312,-2.0234,-1.996,-1.9129,-1.8773,-1.8212,-1.6598,-1.5545,-1.4717,-1.4003,-1.3242,-1.2699,-1.2695,-1.3272,-1.3501,-1.2653,-1.519,-1.6772,-1.505,-1.471,-1.4045,-1.2376,-1.1315,-1.0666,-1.0507,0.0,0.0,-1.0029,-1.0766,-1.1418,-1.1871,-1.2675,-1.3614,-1.4743,-1.5325,-1.6096,-1.7143,-1.7743,-1.8523,-1.9465,-2.0475,-2.0942,-2.0927,-2.2932,-2.434,0.0,0.0,0.0,0.0,0.0,0.0,0.0,0.0,0.0,0.0,0.0,0.0,0.0,0.0,0.0,-3.2577,-3.3626,-3.3812,-3.1901,-3.1057,-3.0641,-3.0534,-3.032,-2.9616,-2.8233,-2.8532,-2.8538,-2.7885,-2.7985,-2.7994,-2.7843,-2.7872,0.0,-2.768,-2.8083,-2.8236,-2.8116,-2.8346,-2.8026,-2.7173,0.0,0.0,-2.5975,-2.526,-2.4837,-2.4621,-2.3857,-2.3447,-2.3274,-2.3274,-2.3274,-2.3447,-2.5139,-2.5813,-2.5697,-2.487,-2.4581,-2.4358,-2.2615,-2.2094,-2.206,-2.12,-2.0406,-1.9784,-1.9805,-1.9199,0.0,-1.8496,-1.8008,-1.7402,-1.7226,-1.6144,-1.4989,-1.4576,-1.3826,-1.315,-1.2997,-1.2825,-1.2704,-1.2699,-1.2825,-1.2834,-1.2557,-1.3652,-1.4188,-1.3086,-1.2329,-1.1737,-1.1386,-1.0318,-0.9804,-1.0359,-0.9899,-0.989,-1.0721,-1.0424,-1.0504,-1.1308,-1.2506,-1.3825,-1.5286,-1.5466,-1.5968,-1.6951,-1.7447,-1.7811,-1.8104,-1.9824,-2.0505,-2.0236,-2.2088,-2.3059,0.0,0.0,0.0,0.0,0.0,0.0,0.0,0.0,0.0,0.0,0.0,-3.0109,0.0,0.0,-3.1951,-3.1951,-3.1979,-3.1351,-2.9534,-2.8189,-2.7671,-2.8347,-2.794,-2.7305,-2.6516,-2.6854,-2.6866,-2.6297,-2.6395,-2.6441,-2.6263,-2.622,-2.623,-2.6289,-2.6458,-2.661,-2.6754,-2.6841,-2.6454,-2.5605,-2.5622,-2.5178,-2.428,-2.3844,-2.3373,-2.2908,-2.2859,-2.2362,-2.1543,-2.1543,-2.1543,-2.1677,-2.2908,-2.3658,-2.4005,-2.3601,-2.3167,-2.262,-2.135,-2.0688,-2.0264,-1.9426,-1.8598,-1.7867,-1.7461,-1.7031,-1.6523,-1.5644,-1.5409,-1.5291,-1.4857,-1.4079,-1.3386,-1.3353,-1.2687,-1.2053,-1.205,-1.1718,-1.1406,-1.1406,-1.1757,-1.1863,-1.1298,-1.192,-1.2326,-1.1829,-1.1377,-1.0919,-1.0379,-0.9717,-0.9415,-0.9711,-0.9398,-0.9572,-1.0624,-1.0757,-1.1033,-1.1556,-1.2812,-1.3874,-1.4572,-1.5343,-1.5958,-1.6432,-1.6922,-1.7324,-1.7697,-1.8918,-1.9482,-1.9482,-2.0706,-2.1713,0.0,0.0,0.0,0.0,0.0,0.0,0.0,0.0,-2.9765,-3.0163,-3.0029,-2.9831,-2.964,-3.0092,-3.0667,-3.1101,-3.0028,-2.859,-2.7038,-2.5664,-2.5061,-2.5896,-2.549,-2.5077,-2.4944,-2.529,-2.5428,-2.5148,-2.5175,-2.5093,-2.4837,-2.4721,-2.4685,-2.4801,-2.479,-2.4899,-2.5112,-2.5056,-2.47,-2.4052,-2.3937,-2.3516,-2.2841,-2.2502,-2.19,-2.1163,-2.1675,-2.1099,-1.9792,-1.9792,-1.9792,-1.9869,-2.0504,-2.1196,-2.185,-2.2197,-2.1754,-2.085,-1.9715,-1.8898,-1.8197,-1.7237,-1.6422,-1.5747,-1.5116,-1.4902,-1.4629,-1.3201,-1.3199,-1.3491,-1.2952,-1.2515,-1.2267,-1.2436,-1.1798,-1.1149,-1.116,-1.0598,-1.009,-1.0082,-1.0639,-1.0857,-1.0018,-1.0439,-1.0877,-1.0833,-1.0811,-1.0476,-0.9606,-0.9358,-0.9208,-0.9109,-0.8918,-0.9186,-1.0124,-1.098,-1.1598,-1.193,-1.2887,-1.3502,-1.3589,-1.4816,-1.5523,-1.5663,-1.6025,-1.6518,-1.7106,-1.771,-1.8105,-1.8398,-1.9344,-2.0543,-2.6961,-2.7153,-2.8193,-3.0838,-3.0862,-3.1091,0.0,0.0,-3.205,-3.2144,-3.2199,-3.1855,-3.0619,-3.0505,-3.0406,-2.9846,-2.864,-2.7111,-2.5114,-2.365,-2.2437,-2.1372,-2.2571,-2.3215,-2.2569,-2.3125,-2.3502,-2.3478,-2.3483,-2.3453,-2.343,-2.3846,-2.41,-2.41,-2.3825,-2.3793,-2.4061,-2.3361,-2.3063,-2.3139,-2.2371,-2.1982,-2.1884,-2.0332,-1.9573,-1.943,-1.8633,-1.8171,-1.7984,-1.7984,-1.7984,-1.8003,-1.808,-1.8177,-1.8465,-2.0004,-2.0035,-1.8939,-1.6593,-1.5741,-1.5461,-1.3878,-1.3294,-1.3216,-1.3183,-1.3184,-1.3145,-1.2949,-1.2402,-1.2031,-1.2715,-1.1695,-1.0666,-1.1449,-1.0972,-1.0328,-1.026,-1.0171,-1.0082,-1.0015,-1.0082,-1.0076,-0.9856,-0.9798,-0.9802,-0.9857,-0.9761,-0.9633,-0.9508,-0.9284,-0.9109,-0.9099,-0.8715,-0.8749,-0.9461,-1.016,-1.0897,-1.1692,-1.1871,-1.2347,-1.3218,-1.3413,-1.3791,-1.4383,-1.4433,-1.4627,-1.4939,-1.5951,-1.6488,-1.6551,-1.8467,-1.9815,-2.6839,-2.7924,-2.9267,0.0,-3.0908,-3.1624,-3.2871,-3.1835,-3.0551,-3.0258,-2.9606,-2.8704,-2.727,-2.6788,-2.6494,0.0,-2.5065,-2.3834,-2.2556,-2.1307,-2.0263,-1.9638,-2.0116,-2.0577,-2.0958,-2.144,-2.1804,-2.1922,-2.2505,-2.2753,-2.2565,-2.278,-2.294,-2.3063,-2.2518,-2.2398,-2.2791,-2.2005,-2.1498,-2.1301,-2.0512,-1.9919,-1.9519,-1.878,-1.8436,-1.8356,-1.6934,-1.6585,-1.7026,-1.6508,-1.6299,-1.6353,-1.6852,-1.6445,-1.5752,-1.7459,-1.7542,-1.6554,-1.4997,-1.4183,-1.3733,-1.3034,-1.2834,-1.2773,-1.2285,-1.246,-1.2636,-1.1601,-1.1425,-1.1504,-1.1379,-1.0764,-1.0284,-1.0649,-1.0476,-1.018,-1.0106,-1.0094,-1.009,-1.0065,-1.0039,-0.9962,-0.9869,-0.9713,-0.9594,-0.9583,-0.9474,-0.9358,-0.9266,-0.9159,-0.9057,-0.9001,-0.9044,-0.9173,-0.9385,-0.9721,-1.0005,-1.017,-1.0849,-1.1277,-1.132,-1.2209,-1.2897,-1.3388,-1.3388,-1.3633,-1.4142,-1.4751,-1.5204,-1.5523,-1.6666,-1.779,-2.59,-2.7216,-2.8397,-2.8816,-2.9914,-3.0833,-3.0669,-2.9756,-2.8654,-2.7614,-2.6623,-2.5466,-2.3943,-2.3336,-2.3049,-2.3118,-2.1942,-2.0941,-2.0493,-1.9377,-1.8665,-1.8698,-1.8332,-1.8503,-1.9662,-2.0066,-2.0405,-2.0749,-2.1507,-2.1911,-2.1795,-2.1876,-2.1972,-2.2007,-2.1151,-2.0844,-2.1139,-2.0201,-1.9579,-1.9254,-1.8545,-1.7931,-1.7419,-1.7226,-1.7146,-1.7096,-1.558,-1.5424,-1.6162,-1.5043,-1.4715,-1.4982,-1.5362,-1.4759,-1.376,-1.4758,-1.4852,-1.4387,-1.3513,-1.2862,-1.2384,-1.2167,-1.2118,-1.2031,-1.1406,-1.1617,-1.1827,-1.0566,-1.0644,-1.0996,-1.0362,-1.0194,-1.0203,-1.0205,-1.0193,-1.0194,-1.015,-1.0136,-1.011,-1.0082,-1.0024,-0.9962,-0.9832,-0.9666,-0.9512,-0.9412,-0.9284,-0.9159,-0.9099,-0.9043,-0.8936,-0.8778,-0.8961,-0.9143,-0.9248,-0.9229,-0.9208,-0.9211,-0.9967,-1.0223,-0.9807,-1.0913,-1.1724,-1.2127,-1.2276,-1.2712,-1.345,-1.3728,-1.4138,-1.4638,-1.526,-1.6076,-2.3383,-2.3534,-2.3996,-2.6792,-2.7517,-2.7763,-2.8616,-2.8245,-2.7175,-2.5148,-2.449,-2.3715,-2.1931,-2.1399,-2.1329,-2.1625,-2.0139,-1.9022,-1.9133,-1.819,-1.7622,-1.815,-1.746,-1.7398,0.0,-1.8981,-1.9455,-2.0169,-2.0258,-2.0505,-2.1023,-2.1332,-2.1383,-2.1061,-1.982,-1.9125,-1.8993,-1.7674,-1.7089,-1.7168,-1.6517,-1.62,-1.6235,-1.5504,-1.5252,-1.5332,-1.4354,-1.4478,-1.5218,-1.3496,-1.3277,-1.3962,-1.314,-1.2784,-1.2648,-1.1912,-1.2122,-1.2651,-1.1783,-1.1469,-1.1312,-1.0526,-1.0271,-1.0273,-1.0249,-1.0254,-1.0275,-1.0217,-1.0215,-1.0227,-1.0209,-1.0195,-1.0206,-1.0206,-1.0193,-1.0207,-1.0197,-1.0208,-1.0164,-1.0024,-0.9997,-0.9911,-0.9658,-0.9494,-0.935,-0.9139,-0.9001,-0.8957,-0.9078,-0.8869,-0.8628,-0.8441,-0.808,-0.8139,-0.8861,-0.8508,-0.8588,-0.9422,-0.9341,-0.9239,-0.9211,-0.9447,-0.987,-1.0462,-1.0982,-1.1665,-1.2543,-1.2867,-1.3259,-1.3655,-1.4652,-1.5249,-2.1885,-2.262,-2.351,-2.4981,-2.5171,-2.4945,-2.4834,-2.3856,-2.2688,-2.1601,-2.0594,-1.9734,-1.9136,-1.8924,-1.8922,-1.9216,-1.8949,-1.8655,-1.8528,-1.8168,-1.8129,-1.8681,-1.837,0.0,0.0,0.0,0.0,-1.863,-1.9339,-1.9738,-1.954,-1.9111,-1.892,-1.9087,-1.742,-1.669,-1.7096,-1.5693,-1.5199,-1.5633,-1.5139,-1.4567,-1.3969,-1.4376,-1.4418,-1.4152,-1.3791,-1.3885,-1.4201,-1.3,-1.2666,-1.2907,-1.252,-1.2103,-1.1679,-1.1405,-1.1113,-1.0826,-1.0658,-1.0598,-1.056,-1.0289,-1.0195,-1.0209,-1.0194,-1.0191,-1.0193,-1.0209,-1.0191,-1.0193,-1.0202,-1.0192,-1.0195,-1.0191,-1.0203,-1.0162,-1.0033,-0.9997,-0.993,-0.9713,-0.9638,-0.9566,-0.9476,-0.9095,-0.8672,-0.83,-0.8622,-0.888,-0.8852,-0.8603,-0.8377,-0.8211,-0.7965,-0.7856,-0.7958,-0.7832,-0.7755,-0.7776,-0.8086,-0.8285,-0.8341,-0.8742,-0.9169,-0.9603,-1.0138,-1.0762,-1.1447,-1.2093,-1.2793,-1.3563,-1.4071,-1.4824,-2.067,-2.1418,-2.2201,-2.2907,-2.2632,-2.1932,-2.1027,-1.9703,-1.8442,-1.7591,-1.6667,-1.5917,-1.5763,-1.629,-1.6701,-1.6737,-1.7198,-1.7624,-1.7873,-1.7894,-1.8301,-1.9446,-1.9417,-1.9665,0.0,0.0,0.0,-1.8142,-1.8635,-1.8768,-1.846,-1.7791,-1.7408,-1.7347,-1.57,-1.4856,-1.4982,-1.382,-1.3534,-1.4099,-1.3614,-1.3112,-1.2633,-1.3035,-1.3102,-1.2853,-1.2316,-1.244,-1.2944,-1.1547,-1.1156,-1.1352,-1.0657,-1.0013,-0.9444,-0.9124,-0.8665,-0.8371,-0.9645,-1.0058,-0.9985,-0.9985,-0.9977,-0.9986,-1.0048,-0.9971,-0.9891,-0.9998,-0.9944,-0.9889,-0.9974,-0.9981,-1.0006,-1.0071,-1.0096,-1.0078,-1.0014,-0.9831,-0.963,-0.9472,-0.9211,-0.9018,-0.8947,-0.848,-0.8004,-0.7693,-0.8051,-0.837,-0.838,-0.8164,-0.7974,-0.7894,-0.7577,-0.7352,-0.7289,-0.7069,-0.6842,-0.6664,-0.7012,-0.7253,-0.7294,-0.7782,-0.8205,-0.8555,-0.9095,-0.9693,-1.0379,-1.1339,-1.2279,-1.3191,-1.3666,-1.4441,-1.9577,-1.9789,-1.9973,-2.0563,-1.9806,-1.8584,-1.7143,-1.5733,-1.4389,-1.3065,-1.2607,-1.2321,0.0,0.0,-1.4745,-1.4297,-1.5077,-1.6138,-1.7173,-1.7373,-1.8198,0.0,0.0,0.0,0.0,0.0,0.0,-1.8522,0.0,-1.765,-1.7674,-1.7289,-1.6695,-1.5913,-1.4596,-1.3547,-1.2696,-1.2073,-1.1984,-1.2456,-1.1835,-1.1697,-1.1935,-1.1371,-1.1185,-1.1235,-0.9886,-1.0108,-1.1251,-0.9046,-0.8608,-0.9171,-0.7467,-0.6524,-0.6061,-0.5235,-0.4932,-0.5379,-0.8437,-0.9481,-0.9453,-0.9516,-0.952,-0.9524,-0.9657,-0.9466,-0.9255,-0.9526,-0.9401,-0.9264,-0.9472,-0.9538,-0.9568,-0.9724,-0.9684,-0.9688,-0.9883,-0.9345,-0.8881,-0.909,-0.8576,-0.8033,-0.7837,-0.7368,-0.701,-0.6995,-0.6995,-0.717,-0.7693,-0.7577,-0.7442,-0.7427,-0.6921,-0.6651,-0.6838,-0.6254,-0.5973,-0.6153,-0.6153,-0.6153,-0.6153,-0.6596,-0.6996,-0.7342,-0.7877,-0.8556,-0.9383,-1.0645,-1.1728,-1.2612,-1.35,-1.4118,-1.7896,-1.826,-1.8488,-1.8235,-1.6824,-1.4777,-1.1901,-1.0027,-0.8572,-0.73,-0.7351,-0.7993,0.0,0.0,0.0,-1.3905,-1.5549,0.0,-1.7801,-1.8227,0.0,-1.8895,0.0,-1.9365,-1.9275,-1.8669,0.0,0.0,-1.635,-1.6374,-1.5963,-1.4482,-1.3875,-1.4412,-1.2525,-1.1429,-1.1314,-1.0225,-0.9476,-0.912,-0.9347,-0.8794,-0.7554,-0.8134,-0.802,-0.7327,-0.6926,-0.7016,-0.7308,-0.5431,-0.4601,-0.4373,-0.3169,-0.2751,-0.28,-0.2576,-0.268,-0.3066,-0.3876,-0.551,-0.738,-0.8382,-0.847,-0.8187,-0.8163,-0.8105,-0.8048,-0.8111,-0.8084,-0.8146,-0.8594,-0.8708,-0.8547,-0.7966,-0.6827,-0.5937,-0.6138,-0.4058,-0.3058,-0.6166,-0.5262,-0.3988,-0.3934,-0.2758,-0.1731,-0.1483,-0.1445,-0.2806,-0.6571,-0.7014,-0.6865,-0.6562,-0.6349,-0.6204,-0.6171,-0.5856,-0.5681,-0.5664,-0.5683,-0.5683,-0.5683,-0.5793,-0.6121,-0.6721,-0.7161,-0.7914,-0.9024,-1.0301,-1.1441,-1.2402,-1.3529,-1.4235,-1.6494,-1.6735,-1.6725,-1.577,-1.4094,-1.1827,-0.867,-0.654,-0.5035,-0.4365,-0.4242,0.0,-0.6354,-0.9114,0.0,0.0,0.0,0.0,-1.7839,-1.8154,-1.8342,0.0,-1.88,0.0,-1.8589,-1.7712,-1.6618,0.0,-1.5392,-1.5028,-1.3893,-1.2628,-1.1954,-1.1876,-1.0576,-0.9615,-0.9085,-0.7986,-0.734,-0.7119,-0.6895,-0.6331,-0.5455,-0.5307,-0.4959,-0.4426,0.0,-0.3632,-0.3713,-0.2661,-0.1942,-0.1421,-0.0416,0.0084,0.0308,0.0863,0.0933,0.0618,-0.0273,-0.148,-0.2963,-0.5048,-0.572,-0.5754,-0.5888,-0.6023,-0.613,-0.6242,-0.6201,-0.62,-0.6575,-0.669,-0.6599,-0.619,-0.4959,-0.3945,-0.4179,-0.1917,-0.0416,-0.2395,-0.1678,-0.0702,-0.0556,0.0169,0.0882,0.1405,0.1196,0.0062,-0.252,-0.3256,-0.3459,-0.3242,-0.368,-0.3952,-0.3876,-0.48,-0.5373,-0.5323,-0.5098,-0.502,-0.5097,-0.5385,-0.5797,-0.6359,-0.6582,-0.7388,-0.8774,-0.9901,-1.1137,-1.2459,-1.3516,-1.4204,-1.5126,-1.5126,-1.48,-1.3386,-1.154,-0.9283,-0.6417,-0.4058,-0.2497,-0.2447,0.0,-0.2069,-0.3537,-0.68,-0.9441,-1.0103,0.0,-1.5393,-1.7017,-1.7032,-1.7233,-1.8315,-1.8097,-1.7876,-1.7878,-1.6458,-1.529,-1.4607,-1.4308,-1.3453,-1.1832,-1.1241,-1.0339,-0.8906,-0.8513,-0.7765,-0.6622,-0.5635,-0.5236,-0.5436,-0.4345,-0.3909,-0.4031,-0.2517,-0.183,-0.1775,0.0,0.0,-0.0325,-0.0063,0.0339,0.0862,0.1854,0.2647,0.3363,0.4514,0.4873,0.4577,0.2819,0.2456,0.2232,-0.1025,-0.2426,-0.2902,-0.3239,-0.3505,-0.3753,-0.3969,-0.3853,-0.3684,-0.3887,-0.3946,-0.3932,-0.3911,-0.3019,-0.2216,-0.2373,-0.0651,0.1215,0.2218,0.2496,0.2656,0.2945,0.282,0.2863,0.3356,0.2989,0.281,0.3217,0.1778,0.0736,0.08,-0.0017,-0.0639,-0.0819,-0.2685,-0.3918,-0.4091,-0.3719,-0.3646,-0.4004,-0.4715,-0.5459,-0.6255,-0.6295,-0.7086,-0.8637,-0.963,-1.0913,-1.2498,-1.3451,-1.4139,-1.3179,-1.3179,-1.2875,-1.1487,-0.9112,-0.6314,-0.3498,-0.0702,0.0,0.0,0.1771,0.0963,-0.066,-0.2812,-0.51,-0.7541,-0.9243,-1.1224,-1.3964,-1.4126,-1.418,0.0,-1.4471,-1.4073,0.0,0.0,0.0,0.0,0.0,-1.1006,-1.0551,-0.9366,-0.8044,-0.6697,-0.5806,-0.5276,-0.5157,-0.3482,-0.246,-0.2106,-0.1194,-0.0419,0.0259,0.1247,0.1881,0.2215,0.0,0.0,0.3086,0.3677,0.426,0.4885,0.5782,0.6308,0.6614,0.6999,0.6904,0.65,0.6047,0.5838,0.5012,0.0492,-0.0941,-0.0906,-0.0961,-0.1028,-0.1073,-0.1121,-0.0942,-0.0776,-0.0984,-0.1023,-0.0727,0.0454,0.1736,0.2808,0.3266,0.4591,0.6295,0.8329,0.8387,0.8122,0.8192,0.8552,0.862,0.7906,0.8314,0.8726,0.8805,0.4444,0.1496,0.1875,0.2776,0.2856,0.1686,0.2259,0.2219,0.1157,0.0868,0.0202,-0.0993,-0.1958,-0.3779,-0.656,-0.6835,-0.7563,-0.8851,-1.0071,-1.1035,-1.1812,-1.3173,-1.4171,-0.9542,-1.0011,-1.0198,-0.8384,-0.6608,-0.429,-0.07,0.0,0.0,0.0,0.3317,0.2315,0.0791,-0.1277,0.0,-0.5832,-0.7516,-0.9572,-1.2727,-1.2628,0.0,-1.333,-1.317,-1.2652,0.0,0.0,0.0,0.0,0.0,-0.9666,-0.8665,-0.6766,-0.5505,-0.5019,-0.3416,-0.2692,-0.2968,-0.1315,-0.0305,0.0066,0.0722,0.1474,0.2323,0.3215,0.3972,0.4549,0.521,0.0,0.599,0.6017,0.6392,0.6968,0.7292,0.7633,0.8005,0.831,0.8325,0.8128,0.7685,0.7388,0.676,0.3963,0.2568,0.1909,0.1493,0.1275,0.1129,0.0992,0.1224,0.1495,0.1393,0.1707,0.2331,0.3494,0.5315,0.7075,0.8236,0.8957,0.9781,1.1086,1.1134,1.0894,1.0679,1.0648,1.0461,0.9917,1.025,1.061,1.0703,0.858,0.7081,0.7137,0.6911,0.6546,0.6043,0.7703,0.8349,0.7305,0.7049,0.59,0.355,0.3547,0.2031,-0.132,-0.1067,-0.1558,-0.2876,-0.6181,-0.8273,-0.9284,-1.2687,-1.452,-0.5905,-0.6828,-0.7425,-0.4881,-0.3579,-0.1949,0.1797,0.2754,0.0,0.3984,0.3629,0.2698,0.1344,-0.0385,-0.2221,0.0,-0.5643,-0.7706,-1.0852,-1.0645,-1.0723,0.0,-1.1911,0.0,0.0,0.0,0.0,0.0,0.0,0.0,-0.6761,-0.4447,-0.3226,-0.3381,-0.1398,-0.0536,-0.0943,0.0562,0.1434,0.1621,0.2435,0.3171,0.3811,0.501,0.5824,0.6303,0.7175,0.0,0.0,0.7736,0.7805,0.8132,0.8124,0.829,0.861,0.9002,0.9189,0.9171,0.8553,0.8179,0.7849,0.6992,0.5738,0.4436,0.3817,0.3454,0.3189,0.3054,0.332,0.3688,0.3719,0.4471,0.5479,0.6456,0.8414,1.0402,1.1623,1.1929,1.2058,1.237,1.2428,1.2276,1.1772,1.1633,1.1417,1.0917,1.1258,1.1626,1.1776,1.2255,1.2549,1.249,1.0841,0.9852,1.0125,1.1746,1.2484,1.1872,1.1575,1.0447,0.8277,0.8191,0.6939,0.4297,0.4436,0.3945,0.2719,-0.1484,-0.4098,-0.531,-0.942,-1.1503,-0.3698,-0.4692,-0.4962,-0.1443,0.048,0.1976,0.3711,0.0,0.4776,0.3643,0.2839,0.2058,0.1278,0.0907,0.0185,0.0,0.0,-0.3259,-0.6368,-0.6516,-0.7388,-1.0254,0.0,0.0,0.0,0.0,0.0,0.0,0.0,0.0,-0.5455,-0.3223,-0.1756,-0.1364,0.0,0.058,0.025,0.1897,0.2663,0.2593,0.4582,0.5584,0.5726,0.7778,0.8464,0.8108,0.8967,0.0,0.0,0.9066,0.8925,0.8602,0.9187,0.916,0.8807,0.9152,0.9208,0.9088,0.8835,0.8533,0.8169,0.7592,0.6619,0.5672,0.5709,0.5501,0.5295,0.5573,0.5902,0.6213,0.6394,0.7491,0.8896,1.0186,1.1374,1.2161,1.1959,1.2381,1.2791,1.2845,1.2839,1.2578,1.1755,1.2829,1.324,1.1577,1.2689,1.372,1.3735,1.38,1.4142,1.4962,1.3325,1.2181,1.2214,1.2256,1.2262,1.2255,1.1148,1.107,1.23,0.8831,0.6807,0.6675,0.4723,0.3407,0.2788,0.1765,0.1045,0.0608,-0.0107,-0.0777,-0.0688,-0.1644,-0.2027,0.142,0.2487,0.3559,0.6663,0.0,0.4705,0.4638,0.3322,0.1971,0.1251,0.1125,0.0725,0.0,0.0,0.0,-0.3996,-0.476,-0.578,-0.7526,-0.8023,0.0,0.0,0.0,0.0,0.0,0.0,0.0,-0.2918,-0.1577,-0.0758,-0.0577,0.1016,0.1918,0.2014,0.3455,0.4411,0.487,0.6062,0.6908,0.7415,0.8234,0.8763,0.9042,0.9346,0.0,0.0,0.9809,0.9863,0.9749,0.9731,0.9739,0.9717,0.9414,0.9367,0.9439,0.9277,0.9049,0.8778,0.8355,0.7861,0.7272,0.648,0.6307,0.6411,0.6471,0.6809,0.7325,0.8047,0.9875,1.1761,1.2643,1.3578,1.421,1.4028,1.4112,1.4258,1.4383,1.434,1.4036,1.3237,1.3262,1.3125,1.2402,1.2891,1.3512,1.4003,1.4511,1.4989,1.5369,1.4241,1.3456,1.3453,1.3358,1.3299,1.3318,1.334,1.3435,1.3612,1.2548,1.1621,1.0994,1.0603,1.0017,0.9239,0.5878,0.4009,0.3498,0.0603,-0.0782,0.2755,0.1953,0.1857,0.5777,0.6199,0.6587,0.0,0.0,0.5175,0.5179,0.3215,0.1392,0.0879,0.0764,0.054,0.0,0.0,-0.104,-0.28,-0.3941,-0.493,0.0,0.0,0.0,0.0,0.0,0.0,0.0,0.0,0.0,0.0,0.0396,0.0849,0.083,0.2259,0.3291,0.3845,0.4906,0.5796,0.6535,0.7312,0.8068,0.8812,0.8994,0.9361,0.9898,0.0,0.0,0.0,1.0649,1.0767,1.0509,1.0616,1.0559,1.0376,0.9969,0.9749,0.9646,0.9557,0.9394,0.9176,0.8902,0.8797,0.8572,0.7562,0.7286,0.7329,0.7379,0.7887,0.8728,1.0164,1.194,1.3532,1.4294,1.4937,1.5375,1.5377,1.5254,1.5191,1.5349,1.5319,1.5006,1.4232,1.3848,1.3555,1.3281,1.3477,1.3848,1.4414,1.5028,1.5403,1.54,1.4826,1.4453,1.448,1.4419,1.4372,1.4372,1.4725,1.4762,1.4403,1.4758,1.4654,1.4029,1.4557,1.4527,1.3856,1.0144,0.8155,0.7701,0.4445,0.3164,0.6692,0.6298,0.6929,1.226,1.2497,1.2007,1.4339,1.0937,0.6742,0.48,0.2049,0.0,0.0,0.0,-0.0301,-0.1149,0.0,0.0,-0.273,-0.3844,0.0,0.0,0.0,0.0,0.0,0.0,0.0,0.0,0.0,0.0,0.0,0.2811,0.3273,0.3269,0.3865,0.466,0.5658,0.6201,0.6691,0.7095,0.8366,0.9271,0.9806,1.054,1.0832,0.0,0.0,0.0,0.0,1.1758,1.1711,1.0642,1.2105,1.1766,1.0537,1.085,1.0402,0.9599,0.9599,0.9463,0.9285,0.9133,0.9233,0.9375,0.9293,0.8713,0.8185,0.865,0.9498,1.0797,1.3067,1.367,1.3971,1.5115,1.5341,1.529,1.5306,1.5306,1.5299,1.5299,1.5341,1.5117,1.4258,1.4805,1.5078,1.4219,1.4824,1.5371,1.5391,1.5391,1.5395,1.5408,1.5338,1.5319,1.5386,1.533,1.5291,1.5291,1.4499,1.4341,1.5062,1.4322,1.4255,1.4964,1.4795,1.4692,1.4692,1.442,1.4299,1.4299,1.425,1.4623,0.6549,0.6839,0.7871,1.2205,1.2748,1.2359,1.2857,0.9653,0.5712,0.2649,0.0,-0.1558,-0.0969,-0.0911,-0.08,-0.0449,-0.04,0.0,0.0,0.0,0.0,0.0,0.0,0.0,0.0,0.0,0.0,0.0,0.0,0.0,0.0,0.4147,0.426,0.3339,0.4284,0.5329,0.6445,0.7086,0.7833,0.8729,0.9534,1.0134,1.0619,1.0437,0.0,0.0,0.0,0.0,0.0,1.1755,1.1982,1.1675,1.2314,1.2328,1.1914,1.1083,1.069,1.0472,0.9916,0.9695,0.9632,0.9636,0.9654,0.9677,0.9694,0.9411,0.9117,0.9393,1.1078,1.2801,1.2967,1.3937,1.4946,1.5306,1.535,1.5289,1.5303,1.5292,1.5304,1.5304,1.5356,1.5303,1.5038,1.4727,1.4629,1.4941,1.4727,1.4727,1.5312,1.5391,1.5394,1.5403,1.5336,1.5303,1.5336,1.5272,1.5234,1.5234,1.4972,1.4948,1.5235,1.4997,1.487,1.4871,1.4802,1.4404,1.3671,1.3615,1.3494,1.3334,1.4235,1.5276,0.0,0.83,0.9647,1.2974,1.3007,0.0,1.2005,0.8366,0.4056,0.0621,-0.1967,-0.3546,-0.3322,-0.2859,-0.2412,-0.2133,-0.1493,0.0,0.0,0.0,0.0,0.0,0.0,0.0,0.0,0.0,0.0,0.0,0.0,0.0,0.0,0.5175,0.5381,0.4872,0.546,0.635,0.7527,0.7916,0.8683,0.9795,0.9906,1.0375,1.1129,1.0516,0.0,0.0,0.0,0.0,0.0,1.2211,1.2555,1.2434,1.2938,1.3024,1.2723,1.1667,1.1147,1.0889,1.0111,0.9818,0.9818,0.991,0.9952,0.9952,1.0006,0.9886,0.9882,1.0643,1.2131,1.3528,1.3648,1.4529,1.5349,1.5349,1.5311,1.5253,1.5253,1.5253,1.5253,1.5253,1.5311,1.5367,1.5353,1.492,1.4766,1.5312,1.4941,1.4785,1.5332,1.5391,1.538,1.5356,1.5313,1.5294,1.5259,1.5214,1.5189,1.5189,1.5189,1.5184,1.5157,1.5167,1.5047,1.4775,1.4747,1.432,1.3542,1.3357,1.3407,1.3683,1.4485,1.5488,0.0,0.9736,1.1326,1.3744,1.2686,1.105,1.0957,0.6619,0.0,-0.1448,-0.3996,-0.5881,-0.6492,-0.5624,-0.4904,-0.5356,-0.3917,0.0,0.0,0.0,0.0,0.0,0.0,0.0,0.0,0.0,0.0,0.0,0.0,0.0,0.0,0.5989,0.6668,0.7432,0.7256,0.7702,0.8756,0.8756,0.9262,1.0302,0.9748,1.0172,1.1357,1.0819,0.0,0.0,0.0,0.0,0.0,1.2972,1.3293,1.294,1.3842,1.3781,1.3103,1.2447,1.1721,1.0979,1.0182,0.9869,0.9844,0.9971,1.0091,1.0194,1.019,1.021,1.0518,1.2072,1.27,1.3257,1.4803,1.5265,1.5291,1.5291,1.5253,1.5189,1.5189,1.5189,1.5189,1.5189,1.5253,1.5298,1.5294,1.5358,1.5391,1.5409,1.539,1.5391,1.5391,1.5391,1.5386,1.5315,1.5307,1.5272,1.5207,1.5189,1.5189,1.5189,1.5189,1.5101,1.4921,1.4989,1.4912,1.4718,1.4661,1.4452,1.4143,1.3678,1.4047,1.5139,1.507,1.5587,0.2669,0.0,0.6972,0.8336,0.7422,0.571,0.0,0.0645,-0.2775,-0.5754,-0.7305,-0.8116,-0.7925,-0.7111,-0.6152,-0.4987,-0.3825,-0.3054,-0.3037,0.0,0.0,0.0,0.0,0.0,0.0,0.0,0.0,0.0,0.0,0.0,0.0,0.7102,0.7566,0.7765,0.8496,0.9022,0.9319,0.9319,0.9627,1.0205,1.0337,1.071,1.132,1.118,0.0,0.0,0.0,0.0,1.2571,1.3143,1.3359,1.3401,1.3975,1.4087,1.3799,1.257,1.2065,1.1794,1.0389,0.9927,0.9965,1.0057,1.0135,1.0198,1.0201,1.0641,1.1257,1.1654,1.2691,1.3823,1.4272,1.4849,1.5291,1.5291,1.5253,1.5189,1.5189,1.5189,1.5189,1.5189,1.5253,1.5303,1.5298,1.5355,1.5403,1.5396,1.5405,1.5391,1.5391,1.5391,1.5398,1.5371,1.5327,1.5292,1.5272,1.5234,1.5189,1.5189,1.5189,1.5127,1.4977,1.5082,1.5082,1.4927,1.4856,1.4729,1.4558,1.4196,1.4558,1.5581,1.6164,1.6591,-0.1268,0.0778,0.3044,0.3249,0.2118,0.0434,-0.1557,-0.4039,-0.6501,-0.8592,0.0,-1.0451,-1.0166,-0.9449,-0.8626,-0.7586,-0.5907,0.0,0.0,0.0,0.0,0.0,0.0,0.0,0.0,0.0,0.0,0.0,0.0,0.0,0.0,0.7799,0.8312,0.8461,0.935,0.9697,0.9518,0.9697,1.0079,1.0568,1.0584,1.0923,1.1526,1.1513,1.1815,0.0,0.0,0.0,1.3108,1.3442,1.3674,1.3856,1.4265,1.4433,1.4242,1.2771,1.2269,1.2116,1.05,1.002,1.0108,1.0132,1.018,1.0201,1.0203,1.0801,1.1581,1.1987,1.2736,1.3606,1.4428,1.4953,1.5253,1.5253,1.5234,1.5189,1.5189,1.5189,1.5189,1.5189,1.5234,1.5253,1.5291,1.5333,1.5352,1.5346,1.5387,1.5401,1.539,1.5367,1.534,1.5345,1.5317,1.5291,1.5253,1.5214,1.5189,1.5189,1.5189,1.514,1.5014,1.5133,1.514,1.4995,1.4837,1.4709,1.4558,1.4234,1.4637,1.5717,1.6437,1.6662,-0.4193,-0.2729,-0.1136,-0.1824,-0.3205,-0.4822,-0.6363,0.0,0.0,0.0,0.0,0.0,-1.2607,-1.1952,0.0,0.0,0.0,0.0,0.0,0.0,0.0,0.0,0.0,0.0,0.0,0.0,0.0,0.0,0.0,0.0,0.0,0.8268,0.8857,0.9164,0.9864,0.9973,0.9506,1.0118,1.0654,1.1116,1.0818,1.1094,1.1788,1.1779,1.1936,0.0,0.0,0.0,1.3361,1.3736,1.4051,1.4302,1.4595,1.4717,1.4541,1.2986,1.2409,1.2184,1.0592,1.01,1.0221,1.0353,1.0409,1.0394,1.0418,1.1019,1.1836,1.2584,1.2848,1.3265,1.4882,1.5253,1.5189,1.5189,1.5189,1.5189,1.5189,1.5189,1.5189,1.5189,1.5189,1.5214,1.5291,1.5293,1.5307,1.5299,1.5366,1.54,1.5398,1.5342,1.5293,1.5297,1.5309,1.5272,1.5209,1.5189,1.5189,1.5189,1.5189,1.5146,1.5035,1.5127,1.5121,1.4992,1.4764,1.4584,1.4419,1.4234,1.4756,1.5937,1.6411,1.645,-0.5986,-0.6662,-0.7073,-0.7283,-0.8722,-1.0528,-1.1859,0.0,0.0,0.0,0.0,0.0,0.0,-1.3265,-1.1981,0.0,0.0,0.0,0.0,0.0,0.0,0.0,0.0,0.0,0.0,0.0,0.0,0.0,0.0,0.0,0.0,0.0,0.8943,0.9408,0.999,1.0059,0.9589,1.0893,1.155,1.1594,1.1591,1.164,1.1708,1.1993,1.2149,0.0,0.0,1.3176,1.3498,1.3777,1.4178,1.4627,1.4668,1.4776,1.467,1.3017,1.2437,1.2269,1.0713,1.0186,1.0318,1.106,1.1308,1.1312,1.1371,1.1902,1.2547,1.2672,1.325,1.4027,1.5036,1.5253,1.5189,1.5189,1.5189,1.5189,1.5189,1.5189,1.5189,1.5189,1.5189,1.5214,1.5291,1.5289,1.5306,1.5305,1.5366,1.5386,1.5313,1.5315,1.5306,1.5303,1.5303,1.5272,1.5209,1.5189,1.5189,1.5189,1.5189,1.5189,1.5177,1.5082,1.4985,1.4911,1.4938,1.4793,1.4499,1.5056,1.5895,1.6969,1.6897,1.6929,-0.6297,-0.7358,-0.8433,-0.9633,-1.1185,-1.3083,-1.5359,-1.6366,0.0,0.0,0.0,0.0,0.0,0.0,0.0,0.0,0.0,0.0,0.0,0.0,0.0,0.0,0.0,0.0,0.0,0.0,0.0,0.0,0.0,0.0,0.0,0.0,0.9239,0.9478,1.0077,1.023,1.0026,1.0725,1.1035,1.096,1.1324,1.1466,1.1441,1.1784,1.1936,1.1978,0.0,1.3193,1.3526,1.3792,1.4216,1.4717,1.4776,1.4876,1.4813,1.3646,1.2946,1.2516,1.1847,1.1599,1.1675,1.2066,1.2202,1.2194,1.2196,1.2757,1.3388,1.3363,1.3643,1.4153,1.5016,1.5214,1.5189,1.5189,1.5189,1.5189,1.5189,1.5189,1.5189,1.5189,1.5189,1.5368,1.5868,1.5985,1.6133,1.654,1.6685,1.6554,1.6021,1.5956,1.5773,1.5355,1.5272,1.5234,1.5189,1.5189,1.5189,1.5189,1.5189,1.5189,1.5189,1.514,1.5033,1.4904,1.4936,1.5047,1.5273,1.5097,1.5792,1.7305,1.7034,1.7034,-0.6186,-0.7255,-0.8592,-1.0594,0.0,-1.4087,-1.7151,-1.8027,0.0,0.0,0.0,0.0,0.0,0.0,0.0,0.0,0.0,0.0,0.0,0.0,0.0,0.0,0.0,0.0,0.0,0.0,0.0,0.0,0.0,0.0,0.0,0.0,0.9354,0.9499,0.9969,1.0172,1.0056,1.0189,1.031,1.0487,1.089,1.1122,1.1216,1.1479,1.1607,1.1657,1.2537,1.3125,1.3449,1.3777,1.4241,1.4756,1.4868,1.4836,1.4667,1.4109,1.3392,1.2732,1.2778,1.2803,1.2851,1.3043,1.308,1.3064,1.3034,1.3605,1.4224,1.3986,1.4069,1.4363,1.5036,1.5189,1.5189,1.5189,1.5189,1.5266,1.5465,1.5349,1.5324,1.5715,1.5638,1.5792,1.6676,1.6866,1.7096,1.7655,1.7835,1.7638,1.6913,1.6804,1.6567,1.5951,1.5663,1.5432,1.5214,1.5189,1.5189,1.5189,1.5189,1.5189,1.5189,1.5189,1.5216,1.523,1.5066,1.5393,1.6247,1.5543,1.5953,1.7387,1.7323,1.725,-0.6341,-0.7358,-0.8797,-1.064,-1.2022,0.0,-1.6593,-1.7677,0.0,-1.9484,0.0,0.0,0.0,0.0,0.0,0.0,0.0,0.0,0.0,0.0,0.0,0.0,0.0,0.0,0.0,0.0,0.0,0.0,0.0,0.0,0.0,0.0,0.0,0.9577,0.9648,0.9457,0.9005,0.9393,1.003,1.0958,1.0804,1.0904,1.1189,1.1286,1.1318,1.1386,1.2245,1.2844,1.3259,1.3701,1.4302,1.4895,1.4895,1.4525,1.3967,1.3915,1.3426,1.2781,1.2795,1.2839,1.3027,1.3769,1.395,1.3917,1.397,1.4518,1.4953,1.4199,1.4538,1.5112,1.517,1.5189,1.5189,1.5189,1.5189,1.5426,1.6234,1.5772,1.5657,1.7215,1.6926,1.6695,1.7644,1.7799,1.782,1.7888,1.7892,1.7876,1.7818,1.7735,1.7677,1.7619,1.6894,1.6085,1.5272,1.5189,1.5189,1.5189,1.5189,1.5189,1.5189,1.5189,1.5517,1.6181,1.5535,1.5883,1.7293,1.7292,1.7293,1.7329,1.8111,1.7986,-0.6913,-0.8037,-0.9336,-0.9823,-1.0857,0.0,0.0,-1.7471,-1.851,-1.9458,-1.8903,0.0,0.0,0.0,0.0,0.0,0.0,0.0,0.0,0.0,0.0,0.0,0.0,0.0,0.0,0.0,0.0,0.0,0.0,0.0,0.0,0.0,0.0,0.9566,0.9317,0.9094,0.8901,0.9021,0.9397,1.002,1.0133,1.0379,1.0727,1.0955,1.1227,1.1585,1.2285,1.2898,1.3403,1.3763,1.4253,1.4794,1.4898,1.4856,1.4709,1.4709,1.4561,1.4351,1.4353,1.4391,1.4492,1.4805,1.4881,1.4882,1.4908,1.5074,1.5189,1.4895,1.5401,1.5888,1.5349,1.5189,1.5189,1.5189,1.5618,1.5945,1.5734,1.5868,1.6195,1.683,1.6708,1.6952,1.8403,1.8673,1.8885,1.937,1.9487,1.9327,1.877,1.8685,1.845,1.7863,1.7464,1.692,1.608,1.6003,1.6003,1.6003,1.6003,1.6003,1.6003,1.6484,1.6867,1.7102,1.6304,1.6422,1.7508,1.6913,1.7214,1.8357,1.8506,1.8709,-0.749,-0.854,-0.9681,-0.9503,0.0,0.0,-1.4065,-1.5989,-1.7484,-1.8385,-1.7541,0.0,0.0,0.0,0.0,0.0,0.0,0.0,0.0,0.0,0.0,0.0,0.0,0.0,0.0,0.0,0.0,0.0,0.0,0.0,0.0,0.0,0.0,0.0,0.8993,0.8766,0.8861,0.8816,0.9062,0.9555,0.9802,1.0097,1.0396,1.0821,1.1259,1.1728,1.2345,1.2935,1.3526,1.3792,1.4216,1.4727,1.489,1.504,1.514,1.514,1.521,1.5303,1.5309,1.5333,1.5391,1.5409,1.5391,1.5408,1.5397,1.5342,1.5292,1.5303,1.5676,1.5945,1.5343,1.5599,1.5868,1.533,1.5868,1.6407,1.6061,1.6253,1.6734,1.7542,1.7478,1.7748,1.922,1.9521,1.9765,2.0347,2.0469,2.0282,1.9708,1.9613,1.9264,1.8335,1.8166,1.7664,1.658,1.6503,1.6503,1.6503,1.6766,1.6901,1.6869,1.7407,1.7809,1.8037,1.7187,1.7321,1.845,1.7494,1.7699,1.9011,1.9095,1.9307,-0.7865,-0.8726,-0.9722,0.0,0.0,0.0,-1.0887,-1.2941,-1.5223,-1.6187,0.0,0.0,0.0,0.0,0.0,0.0,0.0,0.0,0.0,0.0,0.0,0.0,0.0,0.0,0.0,0.0,0.0,0.0,0.0,0.0,0.0,0.0,0.0,0.0,0.8626,0.8541,0.8789,0.8816,0.9197,0.9905,0.9905,1.0097,1.0434,1.1043,1.1446,1.1728,1.2345,1.2953,1.3526,1.3789,1.4216,1.4717,1.4859,1.4933,1.4995,1.4995,1.5127,1.5291,1.5291,1.533,1.5399,1.5398,1.5391,1.5391,1.5391,1.5348,1.5291,1.5301,1.5253,1.5209,1.5189,1.6445,1.7292,1.5618,1.5888,1.6734,1.7523,1.708,1.7273,1.9812,1.9581,1.9284,2.0156,2.0361,2.0422,2.0487,2.0508,2.0529,2.0583,2.0531,2.0169,1.9292,1.9092,1.8337,1.6676,1.6516,1.651,1.6522,1.7336,1.7771,1.7715,1.7722,1.8126,1.8992,1.8164,1.8561,2.0292,1.9415,1.8992,1.9011,1.9888,1.9775,-0.9518,-0.9958,0.0,-1.0593,0.0,0.0,0.0,-1.2214,0.0,0.0,0.0,0.0,0.0,0.0,0.0,0.0,0.0,0.0,0.0,0.0,0.0,0.0,0.0,0.0,0.0,0.0,0.0,0.0,0.0,0.0,0.0,0.0,0.0,0.0,0.8797,0.872,0.8789,0.9304,0.9803,1.026,1.0496,1.0667,1.0763,1.1121,1.1672,1.2364,1.2724,1.3227,1.3821,1.4157,1.4474,1.4688,1.4747,1.4856,1.4995,1.4995,1.5107,1.5234,1.5234,1.5272,1.5339,1.5329,1.5355,1.5391,1.5391,1.5389,1.5368,1.5318,1.5688,1.5963,1.5349,1.6907,1.8184,1.6503,1.7221,1.8164,1.7779,1.7984,1.8477,1.9246,1.9215,1.9333,2.0171,2.0366,2.0429,2.0486,2.0508,2.0526,2.0582,2.0508,2.0332,2.0069,1.9958,1.9485,1.8414,1.7767,1.769,1.8285,1.796,1.8003,1.8588,1.9196,1.9658,1.9908,1.9069,1.8876,1.9377,1.9126,1.8992,1.9011,1.9888,2.0142,-0.9452,-0.9934,0.0,-1.0043,-0.969,-0.9436,-0.9416,0.0,0.0,0.0,0.0,0.0,0.0,0.0,0.0,0.0,0.0,0.0,0.0,0.0,0.0,0.0,0.0,0.0,0.0,0.0,0.0,0.0,0.0,0.0,0.0,0.0,0.0,0.0,0.8992,0.8905,0.9046,0.9475,0.9932,1.0396,1.0605,1.0893,1.1213,1.1513,1.1984,1.263,1.3053,1.3491,1.391,1.4257,1.4481,1.4614,1.4614,1.4738,1.4898,1.4938,1.5033,1.5133,1.5183,1.5234,1.5303,1.5299,1.5338,1.5362,1.5389,1.5371,1.5369,1.5335,1.5676,1.5906,1.5368,1.6644,1.7697,1.6311,1.7523,1.8754,1.7888,1.8388,1.91,1.9458,1.9542,1.9735,2.0215,2.0331,2.0372,2.0402,2.0479,2.0527,2.0586,2.0518,2.0434,2.0438,2.0369,1.9995,1.9219,1.8631,1.8545,1.9095,1.8577,1.865,1.953,2.0042,2.0312,2.0312,1.9773,1.953,1.953,1.953,1.953,1.9523,2.0062,2.0312,-0.8173,0.0,0.0,-0.8622,-0.8437,0.0,-0.8122,-0.8142,-0.828,0.0,0.0,0.0,0.0,0.0,0.0,0.0,0.0,0.0,0.0,0.0,0.0,0.0,0.0,0.0,0.0,0.0,0.0,0.0,0.0,0.0,0.0,0.0,0.0,0.0,0.9193,0.9138,0.9479,0.9473,0.9803,0.0,1.047,1.0908,1.1721,1.2035,1.2356,1.2706,1.3328,1.3706,1.3927,1.4123,1.4307,1.4488,1.4488,1.4571,1.4698,1.4765,1.4858,1.5009,1.5069,1.5176,1.5291,1.5291,1.5291,1.5303,1.5373,1.5351,1.5312,1.5371,1.5346,1.5312,1.5295,1.5956,1.6366,1.543,1.7087,1.8689,1.7984,1.8453,1.9261,2.0139,2.0312,2.0312,2.0312,2.0312,2.0312,2.0312,2.0409,2.0527,2.0586,2.0547,2.049,2.0502,2.0392,2.0043,1.9385,1.9196,1.9165,1.9303,1.9188,1.9489,2.0369,2.035,2.0312,2.0312,2.0312,2.0312,2.0312,2.0312,2.0312,2.0312,2.0312,2.0312,-0.7056,-0.7674,0.0,0.0,-0.7423,-0.6207,-0.529,-0.4532,0.0,0.0,0.0,0.0,0.0,0.0,0.0,0.0,0.0,0.0,0.0,0.0,0.0,0.0,0.0,0.0,0.0,0.0,0.0,0.0,0.0,0.0,0.0,0.0,0.0,1.02,0.968,0.957,1.0016,1.0146,1.0385,0.0,1.101,1.1341,1.1796,1.2025,1.2524,1.3243,1.3475,1.3706,1.3927,1.4123,1.4307,1.4488,1.4488,1.4571,1.4624,1.4081,1.4357,1.4926,1.4372,1.4632,1.5214,1.5214,1.5253,1.5303,1.5328,1.5348,1.5371,1.5332,1.5349,1.5373,1.5307,1.5951,1.637,1.5486,1.6711,1.8184,1.8693,1.89,1.9261,2.0139,2.0312,2.0312,2.0312,2.0312,2.0331,2.0369,2.0448,2.0527,2.0586,2.0547,2.0507,2.0495,2.0477,2.0385,2.0229,1.9575,1.9488,2.0187,1.9511,1.9509,2.0435,2.0369,2.0331,2.0389,2.0331,2.0312,2.0312,2.0312,2.0312,2.0312,2.0312,2.0312,-0.5023,0.0,0.0,-0.5747,0.0,-0.4157,-0.3623,-0.3044,0.0,0.0,0.0,0.0,0.0,0.0,0.0,0.0,0.0,0.0,0.0,0.0,0.0,0.0,0.0,0.0,0.0,0.0,0.0,0.0,0.0,0.0,0.0,0.961,0.9952,1.1,1.0423,1.0291,1.0681,1.0483,1.064,1.1094,1.1371,1.1794,1.2376,1.2345,1.2746,1.3396,1.3478,1.365,1.3878,1.3605,1.3654,1.3893,1.3508,1.3635,1.3939,1.3241,1.3532,1.4171,1.3469,1.3536,1.3983,1.4434,1.4593,1.4709,1.5157,1.5313,1.5351,1.535,1.5371,1.539,1.536,1.5672,1.5904,1.5463,1.6595,1.7918,1.8376,1.8777,1.9296,2.0131,2.0312,2.0312,2.035,2.0331,2.0331,2.0389,2.0424,2.0497,2.0586,2.0566,2.0547,2.0547,2.0887,2.1146,2.1165,2.1115,2.1096,2.1172,2.0681,2.0446,2.0531,2.0427,2.0379,2.0461,2.0347,2.0331,2.035,2.0331,2.0312,2.0312,2.0312,2.0504,-0.2331,0.0,-0.3347,-0.2611,-0.2477,0.0,-0.2274,-0.214,0.0,0.0,0.0,0.0,0.0,0.0,0.0,0.0,0.0,0.0,0.0,0.0,0.0,0.0,0.0,0.0,0.0,0.0,0.0,0.0,0.0,0.0,1.0263,1.0261,1.0657,1.1668,1.101,1.0826,1.1189,1.0726,1.076,1.1296,1.1629,1.2209,1.2995,1.2778,1.2944,1.3396,1.3396,1.3489,1.3609,1.2934,1.2818,1.302,1.2479,1.269,1.3227,1.2537,1.2804,1.3382,1.2559,1.2362,1.2647,1.358,1.389,1.4074,1.5003,1.5289,1.5318,1.5377,1.539,1.5391,1.5391,1.5409,1.5395,1.5405,1.6411,1.747,1.7747,1.8381,1.9181,2.0137,2.0315,2.0339,2.0381,2.0346,2.0331,2.0389,2.0404,2.0464,2.0566,2.0586,2.0664,2.0801,2.1426,2.1894,2.2109,2.2738,2.2829,2.2148,2.1906,2.1517,2.0855,2.0542,2.0438,2.0516,2.0383,2.035,2.0408,2.0335,2.0385,2.0515,2.0361,2.0812,0.0,0.0,-0.1511,0.0,-0.1474,-0.1272,0.0,0.0,0.0,0.0,0.0,0.0,0.0,0.0,0.0,0.0,0.0,0.0,0.0,0.0,0.0,0.0,0.0,0.0,0.0,0.0,0.0,0.0,0.0,0.0,1.0819,1.0448,1.0661,1.1657,1.0668,1.0448,1.1189,1.0965,1.1001,1.1296,1.1882,1.2451,1.2995,1.2961,1.3121,1.3396,1.3396,1.3135,1.2672,1.2571,1.2343,1.2147,1.2739,1.3096,1.3198,1.2484,1.2769,1.3299,1.1867,1.1863,1.2641,1.3538,1.3842,1.4055,1.4939,1.5241,1.5303,1.5304,1.536,1.5391,1.5391,1.5409,1.5392,1.539,1.5559,1.6114,1.7572,1.7972,1.8519,2.0075,2.0386,2.0369,2.0313,2.0346,2.0369,2.0331,2.0412,2.0485,2.0506,2.0566,2.0898,2.1641,2.1816,2.2207,2.2969,2.3123,2.3122,2.2949,2.2226,2.1779,2.1733,2.0873,2.0468,2.0585,2.0458,2.0389,2.0408,2.0321,2.0682,2.1411,2.065,2.1139,0.2179,0.175,0.1017,0.0,0.0936,0.107,0.1403,0.0,0.0,0.0,0.0,0.0,0.0,0.0,0.0,0.0,0.0,0.0,0.0,0.0,0.0,0.0,0.0,0.0,0.0,0.0,0.0,0.0,0.0,1.035,1.1394,1.1478,1.1792,1.2518,1.1467,1.1231,1.1911,1.1253,1.1196,1.1818,1.2066,1.2471,1.3013,1.3013,1.3138,1.3396,1.3396,1.329,1.308,1.2621,1.2473,1.2509,1.2408,1.276,1.3162,1.1921,1.2004,1.2502,1.0952,1.0697,1.1186,1.2101,1.2769,1.3382,1.4255,1.4882,1.5302,1.5303,1.5356,1.5391,1.5391,1.5391,1.5409,1.5397,1.577,1.6463,1.7696,1.7959,1.8448,2.0124,2.0492,2.0476,2.037,2.0811,2.1001,2.0446,2.0828,2.119,2.1228,2.125,2.1621,2.2539,2.3027,2.3457,2.3848,2.4316,2.4199,2.3223,2.2793,2.2163,2.1214,2.071,2.0463,2.0485,2.0429,2.0437,2.0506,2.0861,2.1236,2.1652,2.1688,2.235,0.0,0.0,0.34,0.3084,0.3006,0.3008,0.0,0.0,0.0,0.0,0.0,0.0,0.0,0.0,0.0,0.0,0.0,0.0,0.0,0.0,0.0,0.0,0.0,0.0,0.0,0.0,0.0,0.0,0.0,1.0799,1.1737,1.1966,1.2275,1.2785,1.1738,1.141,1.1953,1.1325,1.14,1.2205,1.2271,1.2549,1.3013,1.3067,1.3208,1.3396,1.3396,1.3376,1.3273,1.2675,1.2411,1.2379,1.1989,1.2175,1.2545,1.1333,1.1278,1.1608,1.0235,0.9818,1.0032,1.097,1.1888,1.2783,1.3677,1.4526,1.5209,1.5233,1.5288,1.5332,1.5391,1.5391,1.5391,1.5391,1.5898,1.6738,1.8047,1.8501,1.9037,2.027,2.0566,2.0565,2.0453,2.1031,2.132,2.0804,2.1309,2.183,2.2099,2.2125,2.248,2.3418,2.4043,2.4492,2.4707,2.5332,2.5078,2.3594,2.3301,2.2519,2.0996,2.0653,2.0483,2.0425,2.0385,2.052,2.0855,2.1359,2.1844,2.2315,2.2649,2.337,0.0,0.5678,0.0,0.4247,0.3924,0.0,0.0,0.0,0.0,0.0,0.0,0.0,0.0,0.0,0.0,0.0,0.0,0.0,0.0,0.0,0.0,0.0,0.0,0.0,0.0,0.0,0.0,0.0,0.0,1.1207,1.1774,1.1214,1.1135,1.1676,1.0571,1.0161,1.0513,1.1024,1.1586,1.219,1.2455,1.2741,1.3013,1.326,1.3379,1.3396,1.3396,1.3085,1.2543,1.2508,1.1822,1.0891,1.1616,1.1541,1.1003,1.093,1.093,1.0838,0.9992,0.9747,0.9949,1.0904,1.1743,1.2582,1.3531,1.4325,1.4942,1.5075,1.5115,1.5156,1.5352,1.5391,1.5391,1.5391,1.543,1.6152,1.8691,1.9883,2.0488,2.0586,2.0605,2.0586,2.0508,2.0585,2.087,2.1531,2.1785,2.2177,2.2929,2.3023,2.3379,2.4238,2.4375,2.4727,2.5566,2.5664,2.5312,2.4394,2.3613,2.2793,2.1875,2.0973,2.05,2.0481,2.0377,2.0716,2.154,2.1573,2.242,2.3967,2.3169,2.3678,0.0,0.0,0.0,0.6743,0.6559,0.6165,0.0,0.0,0.0,0.0,0.0,0.0,0.0,0.0,0.0,0.0,0.0,0.0,0.0,0.0,0.0,0.0,0.0,0.0,0.0,0.0,0.0,0.0,0.0,0.0,1.221,1.2323,1.2432,1.2609,1.1563,1.0786,1.0409,1.0996,1.1408,1.163,1.2113,1.2475,1.2759,1.3015,1.3243,1.3396,1.3396,1.3277,1.3051,1.2614,1.2554,1.2745,1.2633,1.255,1.237,1.1856,1.1333,1.0792,1.0035,0.9805,0.9925,1.0315,1.1357,1.2496,1.2707,1.3766,1.4909,1.4917,1.493,1.5039,1.5273,1.5268,1.5374,1.6074,1.623,1.6791,1.8803,1.95,1.9922,2.0488,2.1055,2.1426,2.1406,2.2305,2.2949,2.2648,2.3122,2.3618,2.3898,2.3934,2.4039,2.4374,2.4902,2.5137,2.4883,2.5371,2.5098,2.3652,2.3301,2.2519,2.1113,2.0746,2.0526,2.0435,2.0389,2.0523,2.0823,2.187,2.2698,2.3352,2.4072,2.4736,0.6288,0.0,0.0,0.0,0.0,0.7127,0.0,0.0,0.0,0.0,0.0,0.0,0.0,0.0,0.0,0.0,0.0,0.0,0.0,0.0,0.0,0.0,0.0,0.0,0.0,0.0,0.0,0.0,0.0,0.0,1.277,1.2869,1.2747,1.2371,1.15,1.0839,1.0409,1.0808,1.1113,1.1296,1.1803,1.2179,1.2475,1.285,1.3103,1.3277,1.3363,1.343,1.3428,1.2992,1.3069,1.3439,1.2837,1.2513,1.23,1.1562,1.0957,1.0433,0.9932,0.9805,0.9925,1.0283,1.1314,1.2414,1.2536,1.3597,1.4756,1.4728,1.4808,1.4959,1.5163,1.5393,1.576,1.6485,1.6889,1.7462,1.8806,1.9197,1.9526,2.0409,2.1035,2.1523,2.1855,2.2812,2.3555,2.3535,2.4023,2.4505,2.4808,2.4846,2.4838,2.4843,2.5352,2.5469,2.4883,2.5371,2.5078,2.3633,2.3262,2.248,2.1094,2.0723,2.0516,2.0435,2.0389,2.0504,2.0804,2.2158,2.3111,2.3736,2.4803,2.5303,0.0,0.0,0.0,0.0,0.0,0.0,0.0,0.0,0.0,0.0,0.0,0.0,0.0,0.0,0.0,0.0,0.0,0.0,0.0,0.0,0.0,0.0,0.0,0.0,0.0,0.0,0.0,0.0,0.0,1.3305,1.3319,1.2734,1.1914,1.0756,1.0232,1.0097,1.0371,1.0396,1.0688,1.1273,1.1542,1.1858,1.219,1.2722,1.2995,1.3013,1.3277,1.3462,1.3584,1.3567,1.3223,1.264,1.2031,1.1305,1.0534,0.9946,0.9717,0.9698,0.9706,0.9747,0.9949,1.0904,1.167,1.2344,1.3067,1.3866,1.4522,1.4619,1.4769,1.4965,1.5128,1.5848,1.6543,1.6622,1.7285,1.8083,1.8785,1.9073,1.9458,2.0324,2.0527,2.0859,2.1738,2.1934,2.2539,2.416,2.4414,2.4746,2.5586,2.5703,2.5684,2.5664,2.5684,2.5684,2.5664,2.5684,2.5332,2.4453,2.3613,2.2773,2.1973,2.1035,2.0536,2.0535,2.0396,2.0746,2.1641,2.2427,2.3658,2.5264,2.5284,2.5303,0.2028,0.0,0.0,0.0,0.0,0.0,0.0,0.0,0.0,0.0,0.0,0.0,0.0,0.0,0.0,0.0,0.0,0.0,0.0,0.0,0.0,0.0,0.0,0.0,0.0,0.0,0.0,0.0,1.2922,1.2941,1.384,1.3313,1.2472,1.1387,1.1199,1.0777,1.0059,1.0285,1.047,1.0664,1.0973,1.1371,1.1843,1.1989,1.2408,1.2979,1.2871,1.307,1.3428,1.2925,1.2653,1.2505,1.1883,1.119,1.0527,1.0457,1.0059,0.9575,0.9714,0.9818,1.0032,1.0964,1.1724,1.2365,1.2924,1.3754,1.4621,1.5169,1.5506,1.588,1.6708,1.7106,1.7327,1.7447,1.7683,1.8234,1.9438,1.9597,1.9651,2.0186,2.1262,2.2047,2.1855,2.2871,2.3867,2.4336,2.4941,2.543,2.5664,2.5703,2.5469,2.4824,2.5312,2.5449,2.4805,2.5332,2.5332,2.4453,2.418,2.3652,2.2793,2.1953,2.1482,2.1442,2.0784,2.1155,2.2612,2.278,2.3426,2.4514,2.5101,2.537,0.0,0.0,0.0,0.0,0.0,0.0,0.6759,0.7691,0.0,0.0,0.0,0.0,0.0,0.0,0.0,0.0,0.0,0.0,0.0,0.0,0.0,0.0,0.0,0.0,0.0,0.0,0.0,1.3824,1.3553,1.3477,1.3741,1.3428,1.273,1.1658,1.1385,1.091,1.0244,1.0212,1.026,1.0396,1.0605,1.0926,1.1379,1.1592,1.1974,1.2463,1.2556,1.2781,1.3035,1.264,1.2451,1.2321,1.1376,1.0761,1.0397,1.0524,1.013,0.9553,0.9981,1.0224,1.0514,1.1421,1.2232,1.2922,1.3337,1.415,1.5001,1.5373,1.599,1.6717,1.7511,1.793,1.8261,1.8776,1.9163,1.9721,2.0769,2.1006,2.103,2.1081,2.1749,2.2411,2.268,2.3561,2.4268,2.4355,2.5098,2.5547,2.5195,2.5488,2.5508,2.5,2.5391,2.5488,2.498,2.541,2.5488,2.4961,2.4609,2.418,2.3652,2.2871,2.2402,2.2344,2.1842,2.2246,2.3578,2.3144,2.3557,2.4706,2.5181,2.5397,0.0,0.0,0.0,0.0,0.0,0.0,0.4914,0.6842,0.8507,0.0,0.0,0.0,0.0,0.0,0.0,0.0,0.0,0.0,0.0,0.0,0.0,0.0,0.0,0.0,0.0,1.3372,1.3732,1.3768,1.4383,1.4246,1.3259,1.3131,1.2643,1.1635,1.1022,1.073,1.0697,1.0251,1.0148,1.0427,1.0427,1.0574,1.0873,1.1343,1.1599,1.1743,1.2229,1.2498,1.2591,1.2438,1.2279,1.1981,1.0808,1.0245,1.0144,1.0383,1.0062,0.9663,1.0452,1.0867,1.1173,1.2127,1.2973,1.3671,1.4015,1.4761,1.5504,1.5592,1.6574,1.7672,1.8056,1.8583,1.9237,2.0177,2.0921,2.1584,2.2124,2.2571,2.2771,2.2455,2.2089,2.2254,2.3534,2.3751,2.3859,2.4092,2.4784,2.5039,2.4336,2.4941,2.543,2.543,2.543,2.5449,2.5547,2.5566,2.5605,2.5684,2.4961,2.4531,2.4531,2.3769,2.3301,2.3242,2.3246,2.3635,2.4405,2.3645,2.4025,2.5427,2.5408,2.5387,0.0,0.0,0.0,0.0,0.0,0.0,0.3768,0.6657,0.9172,0.0,0.0,0.0,0.0,0.0,0.0,0.0,0.0,0.0,0.0,0.0,0.0,0.0,0.0,0.0,0.0,1.3017,1.3286,1.3779,1.3971,1.3626,1.2529,1.2535,1.209,1.108,1.0923,1.0835,1.076,1.0695,1.0639,1.064,1.064,1.0586,1.0508,1.0602,1.1047,1.1685,1.16,1.1957,1.2524,1.1442,1.094,1.0865,1.114,1.0558,0.966,1.0483,1.0412,1.0065,1.1187,1.1397,1.1407,1.2874,1.3454,1.3688,1.414,1.4774,1.5674,1.7281,1.849,1.9392,1.9744,1.9765,1.9802,2.0213,2.0369,2.054,2.1147,2.1626,2.2134,2.2755,2.2447,2.2136,2.2223,2.2277,2.2489,2.3006,2.3247,2.3359,2.3359,2.3555,2.3691,2.3691,2.3633,2.3887,2.459,2.4648,2.4941,2.5664,2.5547,2.5449,2.5449,2.4629,2.416,2.4141,2.4155,2.4222,2.4405,2.4869,2.5255,2.5552,2.5514,2.5438,0.0,0.0,0.0,-0.7135,0.0,0.0,0.0,0.4429,0.7205,0.9307,0.0,0.0,0.0,0.0,0.0,0.0,0.0,0.0,0.0,0.0,0.0,0.0,0.0,0.0,0.0,1.2881,1.3152,1.3732,1.3836,1.3493,1.275,1.2977,1.2571,1.1341,1.1264,1.1112,1.0841,1.0568,1.0392,1.0359,1.0336,1.0248,1.016,1.0335,1.0637,1.1056,1.1089,1.1431,1.1885,1.1082,1.0635,1.0461,1.0449,1.0125,0.9765,1.0784,1.0922,1.0761,1.1871,1.2292,1.2485,1.3282,1.3863,1.425,1.4205,1.4941,1.6133,1.7753,1.8917,1.9773,2.0075,2.0001,2.0029,2.0729,2.0809,2.0894,2.1643,2.209,2.2449,2.2795,2.245,2.2273,2.2812,2.2917,2.2835,2.2511,2.2817,2.2947,2.2519,2.2852,2.3164,2.3203,2.3144,2.3281,2.3711,2.4141,2.459,2.5019,2.5469,2.5694,2.5707,2.525,2.499,2.4957,2.4957,2.4943,2.4949,2.5343,2.5541,2.5541,2.5484,2.5409,0.0,0.0,0.0,0.0,0.0,-0.4471,0.0,0.0,0.0,0.7503,0.0,0.0,0.0,0.0,0.0,0.0,0.0,0.0,0.0,0.0,0.0,0.0,0.0,0.0,0.0,1.2959,1.3203,1.36,1.372,1.3476,1.2983,1.3354,1.3012,1.1716,1.1542,1.1339,1.1056,1.0472,1.0175,1.0156,1.0092,1.0015,0.9905,1.0185,1.0322,1.0434,1.0691,1.0963,1.1196,1.093,1.0653,1.0349,0.9885,0.9815,1.0116,1.1142,1.1466,1.1514,1.256,1.3188,1.3541,1.3728,1.4242,1.4738,1.4429,1.526,1.6561,1.775,1.8791,1.9574,1.9816,1.9779,1.9936,2.0926,2.1087,2.1225,2.1943,2.2401,2.2619,2.2421,2.2186,2.2386,2.3524,2.3454,2.2956,2.2041,2.2393,2.2505,2.1852,2.2363,2.2812,2.2906,2.2985,2.3043,2.3082,2.3749,2.4295,2.4616,2.5121,2.5511,2.5659,2.562,2.5558,2.5504,2.551,2.551,2.551,2.549,2.549,2.5485,2.5423,2.537,0.0,0.0,0.0,0.0,-1.0038,0.0,0.0,0.0,0.2332,0.5323,0.0,0.0,0.0,0.0,0.0,0.0,0.0,0.0,0.0,0.0,0.0,0.0,0.0,0.0,0.0,0.0,1.3331,1.2998,1.3322,1.3175,1.2358,1.2355,1.2128,1.1624,1.118,1.1166,1.1594,1.1115,1.0815,1.0696,1.0699,1.0435,0.9905,0.9944,1.011,1.0396,1.0434,1.0629,1.092,1.0581,1.0443,1.0412,1.0643,1.0581,1.0485,1.1602,1.1974,1.2079,1.3316,1.3698,1.3731,1.4499,1.4578,1.4474,1.5004,1.5729,1.6608,1.7723,1.8621,1.9276,1.9428,1.9374,1.9383,1.98,1.9973,2.0094,2.0268,2.0925,2.1426,2.123,2.1718,2.2272,2.2603,2.1473,2.0698,2.1151,2.0746,2.0717,2.1606,2.17,2.1722,2.1857,2.2407,2.2827,2.3002,2.3152,2.3879,2.5374,2.4838,2.4811,2.5582,2.5543,2.5515,2.5505,2.5505,2.5505,2.5505,2.5428,2.5408,2.5408,2.5399,2.537,0.0,0.0,0.0,0.0,0.0,0.0,-0.7608,0.0,-0.1622,0.0,0.0,0.0,0.0,0.0,0.0,0.0,0.0,0.0,0.0,0.0,0.0,0.0,0.0,0.0,0.0,0.0,0.0,0.0,0.0,1.219,1.1412,1.1734,1.1789,1.1379,1.1535,1.1512,1.1236,1.1007,1.0619,1.0123,1.0271,1.0083,0.9619,0.9816,0.997,1.011,1.011,1.0285,1.0581,1.0235,1.021,1.0396,1.0556,1.0727,1.1009,1.1805,1.2375,1.2871,1.3628,1.3974,1.4138,1.4635,1.4582,1.4414,1.4739,1.5293,1.6045,1.7073,1.7826,1.8461,1.9029,1.9012,1.8977,1.941,1.9604,1.9761,2.0098,2.0768,2.1293,2.1197,2.1367,2.1587,2.162,2.1297,2.1163,2.1569,2.1386,2.1387,2.1858,2.1705,2.1545,2.1522,2.1732,2.2058,2.2504,2.2779,2.3283,2.4101,2.4239,2.4668,2.5505,2.5486,2.5428,2.539,2.539,2.539,2.539,2.537,2.5341,2.5341,2.5341,2.5322,-1.5407,0.0,0.0,0.0,0.0,0.0,0.0,0.0,0.0,0.0,0.0,0.0,0.0,0.0,0.0,0.0,0.0,0.0,0.0,0.0,0.0,0.0,0.0,0.0,0.0,0.0,0.0,1.2054,1.1835,1.1429,1.0821,1.1466,1.159,1.1112,1.179,1.1766,1.0832,1.0835,1.0426,0.9588,0.9801,0.9713,0.9396,0.9633,0.9828,0.9905,0.9905,1.0046,1.0235,0.9995,1.0046,1.0285,1.0483,1.0841,1.135,1.1896,1.2568,1.3244,1.3676,1.4082,1.4423,1.4629,1.4537,1.4331,1.4392,1.495,1.5723,1.6512,1.7273,1.7968,1.861,1.8697,1.8717,1.9121,1.9432,1.9724,2.0161,2.0672,2.1043,2.1043,2.0948,2.0871,2.0817,2.0977,2.123,2.1545,2.1713,2.1913,2.2172,2.1983,2.1739,2.1555,2.1716,2.1975,2.2315,2.2821,2.3216,2.3417,2.4175,2.4887,2.5447,2.5409,2.5341,2.5303,2.5303,2.5303,2.5303,2.5303,2.5303,2.5303,2.5303,2.5303,0.0,0.0,0.0,-1.6065,0.0,0.0,0.0,0.0,-0.8324,0.0,0.0,0.0,0.0,0.0,0.0,0.0,0.0,0.0,0.0,0.0,0.0,0.0,0.0,0.0,0.0,0.0,0.0,1.2516,1.1886,1.1289,1.0838,1.1466,1.1507,1.0847,1.1702,1.1683,1.0642,1.0799,1.0475,0.9588,0.9611,0.9524,0.9408,0.9396,0.9593,0.9905,0.9905,0.9893,0.9919,0.9905,0.9893,0.9982,1.0619,1.1043,1.135,1.1896,1.2438,1.2987,1.3441,1.3957,1.4423,1.4629,1.4423,1.4118,1.4183,1.5041,1.6046,1.6252,1.722,1.8194,1.8229,1.841,1.8643,1.8786,1.9364,1.9926,2.0067,2.0287,2.0433,2.0424,2.0366,2.0321,2.0311,1.9963,1.9867,2.046,2.0884,2.1464,2.236,2.2413,2.2255,2.1916,2.2697,2.3084,2.2715,2.3479,2.4043,2.4257,2.5018,2.5434,2.5399,2.5341,2.5303,2.5303,2.5303,2.5303,2.5303,2.5303,2.5303,2.5303,2.5303,2.5303,0.0,0.0,-1.7462,-1.7288,0.0,0.0,0.0,0.0,0.0,0.0,0.0,0.0,0.0,0.0,0.0,0.0,0.0,0.0,0.0,0.0,0.0,0.0,0.0,0.0,0.0,0.0,0.0,1.1124,1.0627,1.0135,0.0,1.0115,1.0364,1.0167,1.1303,1.1508,1.0615,1.1103,1.0636,0.9197,0.9455,0.938,0.9008,0.9289,0.9581,0.9905,0.9905,0.9905,0.9905,0.9905,0.9905,0.9957,1.0385,1.0774,1.1136,1.2087,1.2671,1.3035,1.3442,1.381,1.4069,1.4152,1.4414,1.4695,1.473,1.5404,1.6273,1.6853,1.7199,1.7527,1.8049,1.8142,1.8194,1.8681,1.9091,1.9513,1.9988,2.0223,2.0325,2.033,2.0328,2.0254,2.0117,1.9927,2.0007,2.0663,2.1552,2.2231,2.2419,2.2756,2.2754,2.2104,2.2323,2.2579,2.2815,2.3548,2.4088,2.4297,2.4013,2.4321,2.5418,2.4851,2.4755,2.5284,2.5303,2.5303,2.5303,2.5303,2.5303,2.5303,2.5303,2.5303,-1.8765,-1.865,0.0,-1.7963,-1.7216,0.0,-1.5649,0.0,0.0,0.0,0.0,0.0,0.0,0.0,0.0,0.0,0.0,0.0,0.0,0.9475,0.0,0.0,0.0,0.0,0.0,0.0,1.1174,1.0423,0.9617,0.9044,0.0,0.0,0.971,0.9458,1.0965,1.1363,1.0455,1.1224,1.0891,0.9453,0.9416,0.9256,0.9046,0.9154,0.9449,0.9905,0.9905,0.9905,0.9905,0.9905,0.9905,0.9931,1.0285,1.0605,1.1024,1.2046,1.2743,1.3191,1.3508,1.3693,1.3848,1.417,1.4388,1.4607,1.5152,1.5627,1.6166,1.6915,1.7216,1.7401,1.792,1.8014,1.8065,1.8591,1.8939,1.93,1.9907,2.0134,2.0249,2.0327,2.0324,2.0239,2.0062,1.9943,2.0157,2.0994,2.1684,2.2292,2.2733,2.2796,2.2648,2.2254,2.2129,2.2479,2.3346,2.3921,2.4258,2.4297,2.3749,2.3791,2.458,2.4292,2.4206,2.4409,2.4995,2.511,2.4781,2.5129,2.5264,2.5184,2.5184,2.503]},{"header":{"parameterUnit":"m.s-1","parameterCategory":1,"la1":30.6,"la2":29.2853,"lo1":-89.7004,"lo2":-87.6739,"dy":0.0162,"dx":0.0183,"nx":112,"ny":82,"refTime":"2023-07-26T06:00:00:Z","depth":0,"parameterNumber":3,"parameterNumberName":"V-component_of_WINDS"},"data":[0.0,0.0,0.0,0.0,0.0,0.0,0.0,0.0,0.0,0.0,0.0,0.0,0.0,0.0,0.0,0.0,0.0,0.0,0.0,0.0,0.0,0.0,0.0,0.0,0.0,0.0,0.0,0.0,0.0,0.0,0.0,0.0,0.0,0.0,0.0,0.0,0.0,0.0,0.0,0.0,0.0,0.0,0.0,0.0,0.0,0.0,0.0,0.0,0.0,0.0,0.0,0.0,0.0,0.0,0.0,0.0,0.0,0.0,0.0,0.0,0.0,0.0,0.0,0.0,0.0,0.0,0.0,0.0,0.0,0.0,0.0,0.0,0.0,0.0,0.0,0.0,0.0,0.0,0.0,0.0,0.0,0.0,0.0,0.0,0.0,0.0,0.0,0.0,0.0,0.0,0.935,0.5651,-0.0876,-0.6108,-0.901,-1.1677,-1.4272,-1.6766,0.0,0.0,0.0,0.0,0.0,0.0,0.0,0.0,0.0,0.0,0.0,0.0,0.0,0.0,0.0,0.0,0.0,0.0,0.0,0.0,0.0,0.0,0.0,0.0,0.0,0.0,0.0,0.0,0.0,0.0,0.0,0.0,0.0,0.0,0.0,0.0,0.0,0.0,0.0,0.0,0.0,0.0,0.0,0.0,0.0,0.0,0.0,0.0,0.0,0.0,0.0,0.0,0.0,0.0,0.0,0.0,0.0,0.0,0.0,0.0,0.0,0.0,0.0,0.0,0.0,0.0,0.0,0.0,0.0,0.0,0.0,0.0,0.0,0.0,0.0,0.0,0.0,0.0,0.0,0.0,0.0,0.0,0.0,0.0,0.0,0.0,0.0,0.0,0.0,0.0,0.0,0.0,0.0,0.0,0.0,0.0,0.0,0.0,0.0,0.0,0.0,0.0,0.0,0.0,0.8236,0.0982,-0.3297,-0.686,-0.9787,-1.2418,-1.4857,-1.7037,0.0,0.0,0.0,0.0,0.0,0.0,0.0,0.0,0.0,0.0,0.0,0.0,0.0,0.0,0.0,0.0,0.0,0.0,0.0,0.0,0.0,0.0,0.0,0.0,0.0,0.0,0.0,0.0,0.0,0.0,0.0,0.0,0.0,0.0,0.0,0.0,0.0,0.0,0.0,0.0,0.0,0.0,0.0,0.0,0.0,0.0,0.0,0.0,0.0,0.0,0.0,0.0,0.0,0.0,0.0,0.0,0.0,0.0,0.0,0.0,0.0,0.0,0.0,0.0,0.0,0.0,0.0,0.0,0.0,0.0,0.0,0.0,0.0,0.0,0.0,0.0,0.0,0.0,0.0,0.0,0.0,0.0,0.0,0.0,0.0,0.0,0.0,0.0,0.0,0.0,0.0,0.0,0.0,0.0,0.0,0.0,0.0,0.0,0.0,0.0,0.0,0.0,0.0,1.0444,0.6181,-0.0095,-0.355,-0.6558,-0.942,-1.2415,-1.4967,-1.6979,-1.8252,0.0,0.0,0.0,0.0,0.0,0.0,0.0,0.0,0.0,0.0,0.0,0.0,0.0,0.0,0.0,0.0,0.0,0.0,0.0,0.0,0.0,0.0,0.0,0.0,0.0,0.0,0.0,0.0,0.0,0.0,0.0,0.0,0.0,0.0,0.0,0.0,0.0,0.0,0.0,0.0,0.0,0.0,0.0,0.0,0.0,0.0,0.0,0.0,0.0,0.0,0.0,0.0,0.0,0.0,0.0,0.0,0.0,0.0,0.0,0.0,0.0,0.0,0.0,0.0,0.0,0.0,0.0,0.0,0.0,0.0,0.0,0.0,0.0,0.0,0.0,0.0,0.0,0.0,0.0,0.0,0.0,0.0,0.0,0.0,0.0,0.0,0.0,0.0,0.0,0.0,0.0,0.0,0.0,0.0,0.0,0.0,0.0,0.0,0.0,0.0,0.0,0.0,0.8407,0.4524,-0.032,-0.342,-0.6331,-0.9358,-1.2451,-1.5069,-1.7079,-1.8695,0.0,0.0,0.0,0.0,0.0,0.0,0.0,0.0,0.0,0.0,0.0,0.0,0.0,0.0,0.0,0.0,0.0,0.0,0.0,0.0,0.0,0.0,0.0,0.0,0.0,0.0,0.0,0.0,0.0,0.0,0.0,0.0,0.0,0.0,0.0,0.0,0.0,0.0,0.0,0.0,0.0,0.0,0.0,0.0,0.0,0.0,0.0,0.0,0.0,0.0,0.0,0.0,0.0,0.0,0.0,0.0,0.0,0.0,0.0,0.0,0.0,0.0,0.0,0.0,0.0,0.0,0.0,0.0,0.0,0.0,0.0,0.0,0.0,0.0,0.0,0.0,0.0,0.0,0.0,0.0,0.0,0.0,0.0,0.0,0.0,0.0,0.0,0.0,0.0,0.0,0.0,0.0,0.0,0.0,0.0,0.0,0.0,0.0,0.0,0.0,0.0,0.0,0.8534,0.4325,-0.1049,-0.3698,-0.6645,-1.0531,-1.2935,-1.5223,-1.767,-1.8954,0.0,0.0,0.0,0.0,0.0,0.0,0.0,0.0,0.0,0.0,0.0,0.0,0.0,0.0,0.0,0.0,0.0,0.0,0.0,0.0,0.0,0.0,0.0,0.0,0.0,0.0,0.0,0.0,0.0,0.0,0.0,0.0,0.0,0.0,0.0,0.0,0.0,0.0,0.0,0.0,0.0,0.0,0.0,0.0,0.0,0.0,0.0,0.0,0.0,0.0,0.0,0.0,0.0,0.0,0.0,0.0,0.0,0.0,0.0,0.0,0.0,0.0,0.0,0.0,0.0,0.0,0.0,0.0,0.0,0.0,0.0,0.0,0.0,0.0,0.0,0.0,0.0,0.0,0.0,0.0,0.0,0.0,0.0,0.0,0.0,0.0,0.0,0.0,0.0,0.0,0.0,0.0,0.0,0.0,0.0,0.0,0.0,0.0,0.0,0.0,0.0,0.0,0.833,0.4046,0.0,-0.3727,-0.656,-1.0117,-1.307,-1.5467,-1.7296,0.0,0.0,0.0,0.0,0.0,0.0,0.0,0.0,0.0,0.0,0.0,0.0,0.0,0.0,0.0,0.0,0.0,0.0,0.0,0.0,0.0,0.0,0.0,0.0,0.0,0.0,0.0,0.0,0.0,0.0,0.0,0.0,0.0,0.0,0.0,0.0,0.0,0.0,0.0,0.0,0.0,0.0,0.0,0.0,0.0,0.0,0.0,0.0,0.0,0.0,0.0,0.0,0.0,0.0,0.0,0.0,0.0,0.0,0.0,0.0,0.0,0.0,0.0,0.0,0.0,0.0,0.0,0.0,0.0,0.0,0.0,0.0,0.0,0.0,0.0,0.0,0.0,0.0,0.0,0.0,0.0,0.0,0.0,0.0,0.0,0.0,0.0,0.0,0.0,0.0,0.0,0.0,0.0,0.0,0.0,0.0,0.0,0.0,0.0,0.0,0.0,0.0,1.2034,0.8203,0.3864,0.0,-0.3903,-0.6653,-0.9839,-1.2953,-1.5299,-1.678,0.0,0.0,0.0,0.0,0.0,0.0,0.0,0.0,0.0,0.0,0.0,0.0,0.0,0.0,0.0,0.0,0.0,0.0,0.0,0.0,0.0,0.0,0.0,0.0,0.0,0.0,0.0,0.0,0.0,0.0,0.0,0.0,0.0,0.0,0.0,0.0,0.0,0.0,0.0,0.0,0.0,0.0,0.0,0.0,0.0,0.0,0.0,0.0,0.0,0.0,0.0,0.0,0.0,0.0,0.0,0.0,0.0,0.0,0.0,0.0,0.0,0.0,0.0,0.0,0.0,0.0,0.0,0.0,0.0,0.0,0.0,0.0,0.0,0.0,0.0,0.0,0.0,0.0,0.0,0.0,0.0,0.0,0.0,0.0,0.0,0.0,0.0,0.0,0.0,0.0,0.0,0.0,0.0,0.0,0.0,0.0,0.0,0.0,0.0,0.0,0.0,0.0,1.2005,0.8195,0.386,-0.1164,-0.4195,-0.7038,-0.9849,-1.2549,-1.4729,0.0,0.0,0.0,0.0,0.0,0.0,0.0,0.0,0.0,0.0,0.0,0.0,0.0,0.0,0.0,0.0,0.0,0.0,0.0,0.0,0.0,0.0,0.0,0.0,0.0,0.0,0.0,0.0,0.0,0.0,0.0,0.0,0.0,0.0,0.0,0.0,0.0,0.0,0.0,0.0,0.0,0.0,0.0,0.0,0.0,0.0,0.0,0.0,0.0,0.0,0.0,0.0,0.0,0.0,0.0,0.0,0.0,0.0,0.0,0.0,0.0,0.0,0.0,0.0,0.0,0.0,0.0,0.0,0.0,0.0,0.0,0.0,0.0,0.0,0.0,0.0,0.0,0.0,0.0,0.0,0.0,0.0,0.0,0.0,0.0,0.0,0.0,0.0,0.0,0.0,0.0,0.0,0.0,0.0,0.0,0.0,0.0,0.0,0.0,0.0,0.0,0.0,0.0,1.1399,0.7338,0.3079,-0.1245,-0.3873,-0.6626,-0.982,-1.2264,-1.4075,-1.5155,0.0,0.0,0.0,0.0,0.0,0.0,0.0,0.0,0.0,0.0,0.0,0.0,0.0,0.0,0.0,0.0,0.0,0.0,0.0,0.0,0.0,0.0,0.0,0.0,0.0,0.0,0.0,0.0,0.0,0.0,0.0,0.0,0.0,0.0,0.0,0.0,0.0,0.0,0.0,0.0,0.0,0.0,0.0,0.0,0.0,0.0,0.0,0.0,0.0,0.0,0.0,0.0,0.0,0.0,0.0,0.0,0.0,0.0,0.0,0.0,0.0,0.0,0.0,0.0,0.0,0.0,0.0,0.0,0.0,0.0,0.0,0.0,0.0,0.0,0.0,0.0,0.0,0.0,0.0,0.0,0.0,0.0,0.0,0.0,0.0,0.0,0.0,0.0,0.0,0.0,0.0,0.0,0.0,0.0,0.0,0.0,0.0,0.0,0.0,0.0,0.0,0.0,1.1099,0.7005,0.2786,-0.1129,-0.3855,-0.6658,-0.9684,-1.1856,-1.3361,-1.4135,0.0,0.0,0.0,0.0,0.0,0.0,0.0,0.0,0.0,0.0,0.0,0.0,0.0,0.0,0.0,0.0,0.0,0.0,0.0,0.0,0.0,0.0,0.0,0.0,0.0,0.0,0.0,0.0,0.0,0.0,0.0,0.0,0.0,0.0,0.0,0.0,0.0,0.0,0.0,0.0,0.0,0.0,0.0,0.0,0.0,0.0,0.0,0.0,0.0,0.0,0.0,0.0,0.0,0.0,0.0,0.0,0.0,0.0,0.0,0.0,0.0,0.0,0.0,0.0,0.0,0.0,0.0,0.0,0.0,0.0,0.0,0.0,0.0,0.0,0.0,0.0,0.0,0.0,0.0,0.0,0.0,0.0,0.0,0.0,0.0,0.0,0.0,0.0,0.0,0.0,0.0,0.0,0.0,0.0,0.0,0.0,0.0,0.0,0.0,0.0,0.0,0.0,1.0794,0.6797,0.2701,-0.101,-0.4057,-0.6881,-0.9495,-1.13,-1.2566,-1.317,0.0,0.0,0.0,0.0,0.0,0.0,0.0,0.0,0.0,0.0,0.0,0.0,0.0,0.0,0.0,0.0,0.0,0.0,0.0,0.0,0.0,0.0,0.0,0.0,0.0,0.0,0.0,0.0,0.0,0.0,0.0,0.0,0.0,0.0,0.0,0.0,0.0,0.0,0.0,0.0,0.0,0.0,0.0,0.0,0.0,0.0,0.0,0.0,0.0,0.0,0.0,0.0,0.0,0.0,0.0,0.0,0.0,0.0,0.0,0.0,-0.3836,0.0,0.0,0.0,0.0,0.0,0.0,0.0,0.0,0.0,0.0,0.0,0.0,0.0,0.0,0.0,0.0,0.0,0.0,0.0,0.0,0.0,0.0,0.0,0.0,0.0,0.0,0.0,0.0,0.0,0.0,0.0,0.0,0.0,0.0,0.0,0.0,0.0,0.0,0.0,0.0,0.0,0.8975,0.5198,0.1454,-0.1673,-0.4007,-0.6547,-0.944,-1.0404,-1.1344,-1.2512,-1.3191,0.0,0.0,0.0,0.0,0.0,0.0,0.0,0.0,0.0,0.0,0.0,0.0,0.0,0.0,0.0,0.0,0.0,0.0,0.0,0.0,0.0,0.0,0.0,0.0,0.0,0.0,0.0,0.0,0.0,0.0,0.0,0.0,0.0,0.0,0.0,0.0,0.0,0.0,0.0,0.0,0.0,0.0,0.0,0.0,0.0,0.0,0.0,0.0,0.0,0.0,0.0,0.0,0.0,0.0,0.0,0.0,0.0,0.0,0.0,0.0,-0.4828,0.0,0.0,0.0,0.0,0.0,0.0,0.0,0.0,0.0,0.0,0.0,0.0,0.0,0.0,0.0,0.0,0.0,0.0,0.0,0.0,0.0,0.0,0.0,0.0,0.0,0.0,0.0,0.0,0.0,0.0,0.0,0.0,0.0,0.0,0.0,0.0,0.0,0.0,0.0,0.0,0.7921,0.4448,0.1064,-0.1652,-0.3912,-0.6234,-0.8852,-0.9895,-1.0859,-1.1937,-1.2776,0.0,0.0,0.0,0.0,0.0,0.0,0.0,0.0,0.0,0.0,0.0,0.0,0.0,0.0,0.0,0.0,0.0,0.0,0.0,0.0,0.0,0.0,0.0,0.0,0.0,0.0,0.0,0.0,0.0,0.0,0.0,0.0,0.0,0.0,0.0,0.0,0.0,0.0,0.0,0.0,0.0,0.0,0.0,0.0,0.0,0.0,0.0,0.0,0.0,0.0,0.0,0.0,0.0,-0.4088,-0.4782,-0.5925,-0.5821,-0.6201,-0.6863,-0.5856,-0.5383,-0.5421,0.0,0.0,0.0,0.0,0.0,0.0,0.0,0.0,0.0,0.0,0.0,0.0,0.0,0.0,0.0,0.0,0.0,0.0,0.0,0.0,0.0,0.0,0.0,0.0,0.0,0.045,-0.0262,0.0,0.0,0.0,0.0,0.0,0.0,0.0,0.0,0.0,0.0,0.0,0.0,0.6749,0.3604,0.0608,-0.1715,-0.3971,-0.6149,-0.8224,-0.9486,-1.0513,-1.1376,-1.2352,-1.3233,0.0,0.0,0.0,0.0,0.0,0.0,0.0,0.0,0.0,0.0,0.0,0.0,0.0,0.0,0.0,0.0,0.0,0.0,0.0,0.0,0.0,0.0,0.0,0.0,0.0,0.0,0.0,0.0,0.0,0.0,0.0,0.0,1.4112,1.2247,0.0,0.0,0.0,0.0,0.0,0.0,0.0,0.0,0.0,0.0,0.0,0.0,0.0,0.0,-0.0682,-0.1338,-0.2913,-0.5546,-0.5381,-0.595,-0.7158,-0.7138,-0.7148,-0.7021,-0.6893,0.0,-0.6529,-0.6575,0.0,0.0,0.0,0.0,0.0,0.0,0.0,0.0,0.0,0.0,0.0,0.0,0.0,0.0,0.0,0.0,0.0,0.0,0.0,0.0,0.0,0.0,0.1396,0.0388,0.0063,-0.0439,0.0,-0.1884,-0.1792,-0.3383,0.0,0.0,0.0,0.0,0.0,0.0,0.0,0.0,0.4298,0.1409,-0.1185,-0.289,-0.4674,-0.6449,-0.8236,-0.8882,-0.9617,-1.0678,-1.1418,-1.2202,-1.3125,-1.4593,0.0,0.0,0.0,0.0,0.0,0.0,0.0,0.0,0.0,0.0,0.0,0.0,0.0,0.0,0.0,0.0,0.0,0.0,0.0,0.0,0.0,0.0,0.0,0.0,0.0,0.0,0.0,0.0,0.0,1.5274,1.4209,1.1378,1.0606,0.9457,0.0,0.0,0.0,0.0,0.0,0.0,0.0,0.0,0.0,0.1937,0.1047,0.0,-0.1322,-0.2297,-0.3819,-0.571,-0.6317,-0.6913,-0.7495,-0.7411,-0.7333,-0.7261,-0.7092,-0.6949,-0.682,-0.6736,-0.6459,-0.6028,0.0,0.0,0.0,0.0,0.0,-0.3064,-0.2051,-0.175,0.0,0.0,0.0,0.0,0.0,0.0,0.0,0.0,0.0,0.0,0.0,0.0,0.0,0.0127,-0.0311,-0.0988,-0.2312,-0.2604,-0.2839,0.0,-0.2589,-0.0996,0.0528,0.0,0.0,0.0,0.0,0.3694,0.2625,0.0417,-0.1679,-0.3441,-0.4947,-0.6488,-0.8137,-0.8736,-0.9602,-1.0983,-1.1397,-1.2436,-1.4327,-1.511,-1.6587,0.0,0.0,0.0,0.0,0.0,0.0,0.0,0.0,0.0,0.0,0.0,0.0,0.0,0.0,0.0,0.0,0.0,0.0,0.0,0.0,0.0,0.0,0.0,0.0,0.0,0.0,0.0,0.0,1.5517,1.4507,1.1119,1.0846,0.995,0.0,0.0,0.0,0.0,0.0,0.0,0.4153,0.2385,0.1265,0.097,0.0364,-0.0552,-0.182,-0.298,-0.4311,-0.5663,-0.6762,-0.7336,-0.7475,-0.7285,-0.72,-0.7187,-0.6966,-0.6871,-0.6858,-0.6705,-0.6709,-0.6776,-0.6407,-0.5852,-0.5297,-0.5297,-0.4733,-0.3861,-0.2619,-0.2134,-0.1865,-0.0465,0.0,0.0148,0.1038,0.0,0.0,0.0,0.0,0.2121,0.1231,0.0319,-0.0251,-0.0307,-0.0847,-0.1625,-0.2607,-0.3036,-0.343,0.0,-0.2953,-0.1524,-0.0651,0.0,0.0,0.0,0.0,0.21,0.1183,-0.052,-0.2291,-0.3894,-0.5228,-0.6589,-0.8065,-0.8795,-0.976,-1.1082,-1.1836,-1.3193,-1.5343,-1.5996,-1.7384,-1.9733,0.0,0.0,0.0,0.0,0.0,0.0,0.0,0.0,0.0,0.0,0.0,0.0,0.0,0.0,0.0,0.0,0.0,0.0,0.0,0.0,0.0,0.0,0.0,0.0,0.0,0.0,0.0,0.0,0.0,1.2851,1.1961,0.0,0.0,0.0,0.0,0.5933,0.5115,0.4238,0.3257,0.2134,0.1146,0.0092,0.0,-0.0653,-0.1992,-0.3073,-0.4372,-0.5771,-0.6526,-0.7027,-0.7153,-0.6865,-0.6736,-0.6732,-0.6719,-0.6712,-0.6702,-0.6546,-0.6488,-0.6478,-0.6322,-0.6264,-0.6193,-0.6193,-0.6193,-0.5876,-0.3761,-0.3014,-0.2665,-0.07,0.0,0.0145,0.1056,0.1464,0.0,0.0,0.1541,0.1399,0.0325,-0.0494,-0.1061,-0.106,-0.1608,-0.2375,-0.3326,-0.2878,-0.2787,0.0,-0.3553,-0.2178,-0.1401,0.0,0.1383,0.2135,0.1296,0.0369,-0.0042,-0.1912,-0.3547,-0.4468,-0.5698,-0.6943,-0.8104,-0.9098,-0.9923,-1.0497,-1.2628,-1.4277,-1.5201,-1.729,-1.898,-2.0138,-2.0684,0.0,0.0,0.0,0.0,0.0,0.0,0.0,0.0,0.0,0.0,0.0,0.0,0.0,0.0,0.0,0.0,0.0,0.0,0.0,0.0,0.0,0.0,0.0,0.0,0.0,0.0,0.0,0.0,1.219,1.1878,0.0,0.7815,0.7394,0.6935,0.6163,0.53,0.4347,0.3248,0.2273,0.1241,0.0,0.0,-0.027,-0.0705,-0.1857,-0.3001,-0.4208,-0.5152,-0.5998,-0.6705,-0.6508,-0.6417,-0.6413,-0.6312,-0.6268,-0.6257,-0.6101,-0.621,-0.6437,-0.6098,-0.6027,-0.6112,-0.6112,-0.6112,-0.5806,-0.3819,-0.3083,-0.278,-0.0704,0.0,0.0066,0.0389,0.0517,0.058,0.051,0.0509,0.0506,0.0123,-0.0471,-0.0962,-0.0998,-0.1824,-0.2724,-0.3079,-0.3245,-0.3523,-0.422,-0.283,-0.1505,-0.1217,-0.0599,-0.0107,0.0155,-0.0432,-0.1159,-0.1842,-0.2747,-0.3844,-0.5212,-0.6037,-0.7071,-0.8452,-0.9547,-1.0559,-1.1482,-1.295,-1.4784,-1.6987,-1.7844,-1.9366,-2.1702,-2.1035,-2.0517,0.0,0.0,0.0,0.0,0.0,0.0,0.0,0.0,0.0,0.0,0.0,0.0,0.0,0.0,0.0,0.0,0.0,0.0,0.0,0.0,0.0,0.0,0.0,0.0,0.0,0.0,1.4607,1.2215,1.197,1.1123,0.8871,0.8049,0.7431,0.6939,0.5656,0.4538,0.381,0.2492,0.1374,0.0505,0.0172,0.0,0.0,-0.1175,-0.2095,-0.2785,-0.4159,-0.5216,-0.5921,-0.6093,-0.6078,-0.603,-0.5925,-0.585,-0.5793,-0.564,-0.5749,-0.6003,-0.5857,-0.5864,-0.5952,-0.5952,-0.5922,-0.5574,-0.3674,-0.2551,-0.1798,-0.0455,0.0,0.0,0.0,0.0,0.0,0.0,0.0,-0.006,-0.0231,-0.0783,-0.1303,-0.1451,-0.2359,-0.3142,-0.2957,-0.3384,-0.3822,-0.3675,-0.2409,-0.1487,-0.168,-0.1252,-0.0977,-0.1124,-0.1509,-0.205,-0.2762,-0.3162,-0.3928,-0.5447,-0.6053,-0.7006,-0.8627,-0.991,-1.1099,-1.225,-1.4033,-1.6011,-1.8106,-1.8917,-2.0122,-2.1873,-2.0336,-1.9609,-1.9798,0.0,0.0,0.0,0.0,0.0,0.0,0.0,0.0,0.0,0.0,0.0,0.0,0.0,0.0,0.0,0.0,0.0,0.0,0.0,0.0,0.0,0.0,0.0,1.6801,1.604,1.4858,1.3104,1.2449,1.1694,1.0513,0.8961,0.8023,0.794,0.6084,0.4879,0.4686,0.2749,0.1602,0.133,0.048,0.008,0.0078,-0.1119,-0.1757,-0.1874,-0.3724,-0.4651,-0.4718,-0.5475,-0.5698,-0.5569,-0.5569,-0.5484,-0.5338,-0.5186,-0.5125,-0.5169,-0.5603,-0.5772,-0.5772,-0.5772,-0.5688,-0.5248,-0.3392,-0.1538,-0.0064,-0.0062,0.0,0.0,0.0,0.0,0.0,0.0,0.0,-0.0116,-0.0703,-0.143,-0.2077,-0.2549,-0.3254,-0.3638,-0.3046,-0.3249,-0.3429,-0.2978,-0.2418,-0.2198,-0.2799,-0.1802,-0.1075,-0.153,-0.1969,0.0,-0.27,-0.3195,-0.3972,-0.5104,-0.5768,-0.6825,-0.8573,-1.0192,-1.1585,-1.2664,-1.5815,-1.7883,-1.8402,-2.0418,-2.122,-2.057,-1.8625,-1.7728,-1.7928,0.0,0.0,0.0,0.0,0.0,0.0,0.0,0.0,0.0,0.0,0.0,0.0,0.0,0.0,0.0,0.0,0.0,0.0,0.0,0.0,0.0,0.0,1.8082,1.7872,1.6397,1.5167,1.467,1.3447,1.2068,1.0804,0.9532,0.8407,0.7384,0.6345,0.5302,0.435,0.396,0.3269,0.2375,0.142,0.0973,0.0966,0.0,-0.1185,-0.2452,-0.2881,-0.3771,-0.4967,-0.5097,-0.5138,-0.5101,-0.5101,-0.5081,-0.5036,-0.4996,-0.4975,-0.4989,-0.5114,-0.5162,-0.5162,-0.5162,-0.475,-0.4056,-0.3535,-0.2225,-0.078,-0.0814,-0.0453,0.0,0.0,0.0,0.0,0.0,0.0,-0.0052,-0.02,-0.0962,-0.1761,-0.1894,-0.2626,-0.3252,-0.3088,-0.3162,-0.3206,-0.3082,-0.2565,-0.2256,-0.2549,-0.2165,-0.1864,-0.2005,-0.2491,0.0,-0.3445,-0.3789,-0.4487,-0.5716,-0.6384,-0.7397,-0.8997,-1.0438,-1.179,-1.3043,-1.5151,-1.7056,-1.8674,-1.975,-2.0044,-1.9467,-1.8538,-1.7446,0.0,0.0,0.0,0.0,0.0,0.0,0.0,0.0,0.0,0.0,0.0,0.0,0.0,0.0,0.0,0.0,0.0,0.0,0.0,0.0,0.0,0.0,1.8784,1.8928,1.8751,1.6635,1.5035,1.4821,1.341,1.2037,1.1153,1.0045,0.9117,0.8348,0.7103,0.6051,0.5259,0.4574,0.3837,0.3127,0.1856,0.1239,0.1225,0.0414,-0.0547,-0.1593,-0.1828,-0.2693,-0.4028,-0.4335,-0.4578,0.0,-0.4823,-0.4785,-0.4728,-0.4728,-0.4728,0.0,0.0,0.0,0.0,0.0,-0.4279,-0.3592,-0.3431,-0.2533,-0.1401,-0.1139,-0.0733,-0.0305,-0.0102,0.0,0.0,0.0,0.0,-0.0048,-0.0321,-0.0977,-0.1629,-0.1809,-0.2398,-0.2845,-0.2605,-0.2653,-0.2682,-0.2506,0.0,0.0,-0.2549,-0.2353,-0.2267,-0.2557,-0.2888,-0.3244,-0.3695,-0.3886,-0.4382,-0.5455,-0.6031,-0.6999,-0.8621,-1.0008,0.0,0.0,0.0,-1.7475,-1.9675,-1.9483,0.0,0.0,0.0,-1.6941,-1.5844,0.0,0.0,0.0,-1.2516,-1.1172,0.0,0.0,0.0,0.0,0.0,0.0,0.0,0.0,0.0,0.0,0.0,0.0,0.0,0.0,0.0,0.0,1.9609,1.9736,1.9219,1.6727,1.4766,1.4401,1.2885,1.1776,1.137,1.0368,0.9736,0.9707,0.8015,0.6901,0.6729,0.0,0.0,0.0,0.0,0.1327,0.1231,0.0507,0.0063,-0.0123,-0.0919,-0.1711,-0.2493,-0.3332,-0.3994,-0.4521,-0.4565,-0.4538,-0.4467,-0.4467,-0.4467,-0.4498,-0.4748,-0.4867,-0.485,-0.4697,-0.4234,0.0,0.0,0.0,0.0,-0.1208,-0.0922,-0.0705,-0.0141,0.0,0.0,0.0,0.0,-0.0131,-0.0668,-0.1148,-0.1593,-0.2001,-0.2358,-0.2463,-0.1968,-0.2038,-0.2097,-0.1728,-0.2102,-0.2502,-0.2661,-0.2474,-0.2469,-0.3028,-0.3127,-0.3242,-0.3607,-0.3731,-0.4041,-0.4733,0.0,0.0,-0.7942,-0.9318,-1.0978,-1.3069,-1.5722,-1.8232,-2.048,-1.918,-1.8435,-1.8464,-1.6911,-1.6173,-1.6333,-1.5081,-1.4528,-1.4585,-1.2974,-1.2069,0.0,0.0,0.0,0.0,0.0,0.0,0.0,0.0,0.0,0.0,0.0,0.0,0.0,0.0,0.0,1.8809,1.9414,1.9521,1.8418,1.66,1.5277,1.5141,1.3341,1.1891,1.1193,0.9824,0.893,0.8725,0.7695,0.7045,0.7007,0.6115,0.0,0.5506,0.3947,0.2843,0.2213,0.1362,0.0306,-0.089,0.0,0.0,-0.2273,-0.2934,-0.3325,-0.346,-0.3939,-0.4134,-0.4104,-0.4104,-0.4104,-0.4134,-0.4433,-0.4551,-0.4531,-0.4385,-0.4224,-0.4021,-0.3784,-0.2909,-0.1978,-0.1715,-0.098,-0.0173,-0.0043,0.0,0.0,0.0,0.0,-0.0038,-0.015,-0.0528,-0.095,-0.1243,-0.1667,-0.1995,-0.2088,-0.2175,-0.2183,-0.2097,-0.2175,-0.235,-0.2641,-0.2747,-0.2854,-0.3051,-0.3188,-0.3283,-0.3373,-0.3858,-0.4391,-0.4913,-0.586,-0.7022,-0.8452,-0.9468,-1.0736,-1.2394,-1.4773,-1.6623,-1.7818,-1.7558,-1.7049,-1.6298,-1.5504,-1.5145,-1.5191,-1.3946,-1.3572,-1.4038,-1.2561,-1.1876,0.0,0.0,0.0,0.0,0.0,0.0,0.0,0.0,0.0,0.0,0.0,1.8451,0.0,0.0,2.0257,2.0257,2.0177,1.9781,1.8635,1.7359,1.6056,1.4914,1.3103,1.1802,1.1461,1.0376,0.9845,1.0029,0.8576,0.7769,0.8155,0.6964,0.6116,0.5768,0.4606,0.3621,0.293,0.17,0.075,0.0,-0.0391,-0.0934,-0.1645,-0.1981,-0.2405,-0.3016,-0.3365,-0.3642,-0.3799,-0.3799,-0.3799,-0.3822,-0.4039,-0.4172,-0.4233,-0.4161,-0.4033,-0.3988,-0.3765,-0.3092,-0.2264,-0.1828,-0.1138,-0.039,-0.0076,0.0,-0.0036,-0.0171,-0.0202,-0.0234,-0.0421,-0.0799,-0.1171,-0.1315,-0.1642,-0.1936,-0.2071,-0.204,-0.2011,-0.2011,-0.2047,-0.2226,-0.2634,-0.2807,-0.2959,-0.317,-0.3262,-0.3364,-0.3574,-0.4,-0.4441,-0.4816,-0.548,-0.6487,-0.797,-0.9857,-1.1474,-1.2722,-1.4482,-1.5681,-1.6184,-1.6027,-1.5751,-1.5256,-1.471,-1.4601,-1.4916,-1.3935,-1.3515,-1.3515,-1.2258,-1.1912,0.0,0.0,0.0,0.0,0.0,0.0,0.0,0.0,1.7621,1.7945,1.8764,1.9652,2.0562,2.0973,2.1275,2.1575,2.0928,2.0019,1.8932,1.8137,1.6983,1.4951,1.3128,1.2028,1.1898,1.1194,1.0925,1.1461,0.979,0.8948,0.9472,0.7913,0.673,0.6126,0.5213,0.4334,0.3473,0.2247,0.1511,0.1208,0.0627,-0.0051,-0.0698,-0.0884,-0.1531,-0.2645,-0.295,-0.3247,-0.349,-0.349,-0.349,-0.3503,-0.3615,-0.3737,-0.3853,-0.3914,-0.3836,-0.3676,-0.3476,-0.3035,-0.2436,-0.1736,-0.1184,-0.0688,-0.0165,0.0,-0.0032,-0.0259,-0.0317,-0.0383,-0.065,-0.104,-0.1371,-0.1444,-0.1658,-0.1891,-0.1943,-0.1869,-0.1825,-0.1869,-0.1972,-0.2184,-0.2684,-0.292,-0.3093,-0.3312,-0.3383,-0.3531,-0.3857,-0.4191,-0.4466,-0.4666,-0.502,-0.5937,-0.7595,-1.0018,-1.1906,-1.2963,-1.3941,-1.4542,-1.4701,-1.4433,-1.4224,-1.4041,-1.3687,-1.3677,-1.4038,-1.3528,-1.3094,-1.2645,-1.1681,-1.1682,0.1944,0.7979,1.375,1.5882,1.6756,1.7591,0.0,0.0,2.032,2.0281,2.1312,2.1996,2.1241,2.1063,2.0897,2.0608,2.0523,1.997,1.8499,1.8394,1.8007,1.6773,1.4588,1.3068,1.2704,1.153,1.0834,1.0886,1.064,1.0565,1.0616,0.9273,0.8416,0.8357,0.6832,0.5384,0.4134,0.37,0.2883,0.172,0.1515,0.1152,0.0669,0.0,-0.0812,-0.1785,-0.2702,-0.3122,-0.3171,-0.3171,-0.3171,-0.3174,-0.3188,-0.3205,-0.3256,-0.3527,-0.3578,-0.3382,-0.2963,-0.2493,-0.1967,-0.1367,-0.0842,-0.0404,-0.0086,0.0,0.0,-0.0028,-0.0054,-0.0052,-0.0083,-0.0306,-0.0606,-0.0901,-0.1177,-0.1452,-0.1763,-0.1816,-0.1869,-0.2106,-0.2166,-0.2373,-0.2966,-0.3278,-0.3447,-0.3467,-0.3674,-0.3843,-0.389,-0.4354,-0.4666,-0.4686,-0.5366,-0.6563,-0.8407,-0.9351,-1.0478,-1.195,-1.2185,-1.2347,-1.2544,-1.2508,-1.2148,-1.1441,-1.1378,-1.1224,-1.1004,-1.086,-1.0759,-1.0697,-1.0395,-1.0536,0.6754,1.0859,1.4354,0.0,1.6957,1.835,1.9848,2.0477,2.0997,2.2085,2.2309,2.2426,2.2984,2.2677,2.2329,0.0,2.1597,2.081,1.9868,1.9185,1.8649,1.8233,1.7257,1.6077,1.4539,1.3528,1.2972,1.3042,1.1966,1.1531,1.1935,1.0441,0.9385,0.8969,0.8029,0.6901,0.563,0.4878,0.3936,0.2804,0.2156,0.1568,0.1108,0.0574,-0.0241,-0.1243,-0.1817,-0.211,-0.2204,-0.21,-0.2037,-0.208,-0.2181,-0.2275,-0.2424,-0.3,-0.3093,-0.2956,-0.2678,-0.2088,-0.1443,-0.1169,-0.0673,-0.0139,-0.0027,0.0109,0.0165,-0.0152,-0.0125,-0.0075,-0.0422,-0.0611,-0.0764,-0.1072,-0.1217,-0.1385,-0.1736,-0.1803,-0.1825,-0.1957,-0.2088,-0.2346,-0.2783,-0.3226,-0.3563,-0.3703,-0.3973,-0.4191,-0.4345,-0.4567,-0.4765,-0.4912,-0.5651,-0.6513,-0.7465,-0.8376,-0.9289,-1.0214,-1.0944,-1.1179,-1.0884,-1.1336,-1.1361,-1.0841,-1.0841,-1.0941,-1.1149,-1.0865,-1.0498,-0.9985,-0.9333,-0.8967,1.1262,1.3348,1.4861,1.6138,1.7445,1.8802,2.0012,2.0738,2.1592,2.3273,2.3347,2.3437,2.4365,2.4165,2.3764,2.3423,2.2524,2.1591,2.0854,1.9978,1.9498,1.979,1.9918,1.9329,1.7626,1.6249,1.5306,1.4937,1.357,1.2907,1.329,1.1939,1.0776,0.9971,0.9252,0.8263,0.6868,0.5793,0.4791,0.3917,0.302,0.2361,0.1869,0.1167,0.0299,-0.0672,-0.0885,-0.118,-0.1485,-0.1283,-0.1223,-0.1311,-0.1445,-0.1584,-0.172,-0.2206,-0.2485,-0.2537,-0.2322,-0.1808,-0.1192,-0.0984,-0.0503,0.0026,0.01,0.0304,0.0465,0.0069,0.0023,0.0,-0.043,-0.0646,-0.0803,-0.1005,-0.1116,-0.1274,-0.1585,-0.1673,-0.1714,-0.1869,-0.2062,-0.2346,-0.2842,-0.3305,-0.3723,-0.4068,-0.4354,-0.4567,-0.4686,-0.4834,-0.503,-0.53,-0.5959,-0.6522,-0.6875,-0.7779,-0.8512,-0.8934,-0.9837,-1.0134,-0.9637,-1.0177,-1.0418,-1.0311,-1.0164,-1.034,-1.0795,-1.0439,-0.9808,-0.897,-0.8242,-0.7625,1.4399,1.5577,1.6569,1.8328,1.8824,1.926,2.0791,2.187,2.2702,2.3349,2.4813,2.5767,2.5007,2.5055,2.4754,2.3497,2.2864,2.2076,2.088,2.0651,2.0908,2.1535,2.2148,2.247,0.0,1.9655,1.7213,1.5616,1.5404,1.5173,1.4652,1.3986,1.3103,1.2037,1.065,0.9173,0.7578,0.6433,0.5553,0.4963,0.4387,0.3889,0.3377,0.1938,0.0799,-0.0033,-0.0188,-0.0632,-0.1298,-0.1033,-0.1074,-0.1314,-0.1294,-0.1315,-0.1301,-0.12,-0.1596,-0.2145,-0.1761,-0.1612,-0.1464,-0.0667,-0.0224,0.0045,0.0313,0.0627,0.0876,0.0871,0.0625,0.0379,0.0356,-0.0022,-0.0423,-0.0423,-0.0668,-0.0983,-0.1252,-0.1321,-0.1496,-0.2062,-0.2193,-0.2471,-0.3326,-0.3716,-0.4065,-0.4606,-0.4912,-0.4991,-0.4726,-0.5146,-0.5576,-0.5856,-0.6313,-0.6799,-0.7337,-0.783,-0.8257,-0.8596,-0.8826,-0.8961,-0.8934,-0.8771,-0.8887,-0.9338,-0.8814,-0.8632,-0.8783,-0.8516,-0.7967,-0.7184,-0.7028,-0.671,1.5395,1.5912,1.6309,1.7169,1.8288,1.9401,2.02,2.1956,2.3597,2.4309,2.4762,2.5032,2.5051,2.5113,2.4772,2.3519,2.361,2.3244,2.1598,2.1367,2.1605,2.2263,2.3197,0.0,0.0,0.0,0.0,1.8549,1.7721,1.7007,1.6396,1.5066,1.4064,1.3365,1.1861,1.048,0.9282,0.8344,0.7331,0.6197,0.5287,0.4593,0.4072,0.3618,0.2803,0.1738,0.1785,0.149,0.1024,0.1109,0.1108,0.1044,0.1206,0.0793,0.0102,0.0149,-0.0097,-0.0544,-0.0979,-0.0997,-0.0738,-0.0269,0.0044,0.0334,0.0646,0.0936,0.1116,0.0961,0.0936,0.0914,0.0512,0.0267,0.0044,-0.0311,-0.049,-0.0822,-0.1701,-0.1898,-0.2133,-0.29,-0.3202,-0.3411,-0.3709,-0.4387,-0.5134,-0.5785,-0.544,-0.5127,-0.5214,-0.5507,-0.5811,-0.6076,-0.6364,-0.668,-0.704,-0.7208,-0.7489,-0.7913,-0.8374,-0.8616,-0.8562,-0.8935,-0.9089,-0.9033,-0.9289,-0.9232,-0.8823,-0.8908,-0.8308,-0.7023,-0.6749,-0.6216,1.6589,1.6809,1.6882,1.734,1.8573,1.9834,2.0484,2.2076,2.3711,2.4662,2.4944,2.5106,2.5226,2.5818,2.5717,2.3903,2.4222,2.4036,2.2169,2.1901,2.2299,2.3278,2.4411,2.5284,0.0,0.0,0.0,2.1055,1.9984,1.9099,1.822,1.6518,1.5133,1.4237,1.2827,1.1503,1.0201,0.9409,0.8416,0.7262,0.675,0.6219,0.5624,0.5872,0.5161,0.3716,0.4061,0.3596,0.2604,0.2852,0.2885,0.283,0.3081,0.2777,0.2245,0.2317,0.2221,0.1856,0.0253,0.0044,0.0545,0.083,0.1115,0.1359,0.1479,0.1826,0.2125,0.1785,0.1865,0.1945,0.1446,0.1248,0.103,0.0374,0.0198,-0.011,-0.1296,-0.1933,-0.2468,-0.3146,-0.3792,-0.4277,-0.451,-0.5299,-0.6059,-0.6541,-0.6094,-0.5753,-0.5841,-0.6041,-0.6258,-0.6421,-0.6763,-0.7007,-0.7101,-0.732,-0.7532,-0.7768,-0.8138,-0.8343,-0.8281,-0.8605,-0.8799,-0.8898,-0.9135,-0.9079,-0.8748,-0.8899,-0.8166,-0.6721,-0.6555,-0.6018,1.8097,1.8213,1.8302,1.8843,1.972,2.064,2.1552,2.2364,2.3252,2.4442,2.5425,2.5976,0.0,0.0,2.7442,2.4763,2.4846,2.4615,2.2789,2.2539,2.3084,0.0,0.0,0.0,0.0,0.0,0.0,2.2975,0.0,2.1317,2.0064,1.8219,1.6478,1.4839,1.373,1.2305,1.0606,0.9733,0.8989,0.8323,0.8797,0.8655,0.8012,0.8569,0.776,0.5911,0.6543,0.5574,0.3547,0.417,0.4315,0.4131,0.4333,0.461,0.493,0.5122,0.5175,0.4738,0.2006,0.1565,0.2291,0.2594,0.2865,0.3049,0.2815,0.3283,0.3786,0.335,0.3352,0.3441,0.3146,0.2871,0.2474,0.1649,0.1404,0.1061,0.0043,-0.1293,-0.24,-0.2801,-0.3976,-0.5093,-0.5694,-0.6349,-0.6799,-0.6814,-0.6814,-0.6745,-0.6571,-0.6763,-0.694,-0.6956,-0.7487,-0.7753,-0.7562,-0.8077,-0.8335,-0.8129,-0.8129,-0.8129,-0.8129,-0.7826,-0.8048,-0.8907,-0.8411,-0.8263,-0.8523,-0.8392,-0.7616,-0.622,-0.6403,-0.6029,1.8694,1.842,1.8248,1.8719,1.9612,2.0527,2.125,2.2923,2.4376,2.4645,2.522,2.5741,0.0,0.0,0.0,2.6429,2.7624,0.0,2.566,2.5791,0.0,2.5888,0.0,2.6899,2.6409,2.7292,0.0,0.0,2.3458,2.2433,2.1572,1.9752,1.8329,1.7405,1.5817,1.4368,1.3016,1.1711,1.1145,1.1313,1.0896,1.0621,1.0493,1.0696,0.9816,0.8173,0.844,0.769,0.6269,0.6303,0.6602,0.7032,0.7077,0.6809,0.6364,0.6416,0.6055,0.5446,0.4702,0.4305,0.4091,0.3931,0.4108,0.4445,0.4571,0.475,0.4884,0.4778,0.4786,0.4679,0.4122,0.3923,0.3805,0.3526,0.2706,0.2132,0.2685,0.1002,-0.1016,-0.2413,-0.4635,-0.6444,-0.6953,-0.6827,-0.6754,-0.7053,-0.7101,-0.7123,-0.7171,-0.7264,-0.7459,-0.7752,-0.82,-0.8384,-0.8189,-0.8441,-0.8583,-0.8477,-0.8465,-0.8465,-0.8465,-0.839,-0.8661,-0.9336,-0.9003,-0.8828,-0.8791,-0.872,-0.7974,-0.6629,-0.6201,-0.5536,1.9483,1.9251,1.9156,1.9649,2.0507,2.1447,2.2153,2.3583,2.4747,2.4755,2.5351,0.0,2.6214,2.8049,0.0,0.0,0.0,0.0,2.747,2.7169,2.7066,0.0,2.6725,0.0,2.6061,2.6383,2.6211,0.0,2.4513,2.3589,2.2341,2.0506,1.9038,1.8114,1.6443,1.4948,1.3661,1.2905,1.2586,1.2713,1.2569,1.2425,1.2323,1.2579,1.1899,1.0555,0.0,0.9714,0.8009,0.813,0.809,0.796,0.7938,0.7714,0.7415,0.7293,0.6969,0.6573,0.6576,0.6474,0.6247,0.5731,0.577,0.601,0.6098,0.632,0.6488,0.6242,0.6338,0.6421,0.592,0.579,0.5686,0.5263,0.4446,0.3843,0.4107,0.1977,-0.1011,-0.4434,-0.6263,-0.729,-0.7479,-0.7049,-0.6818,-0.7228,-0.7147,-0.7148,-0.7477,-0.7444,-0.746,-0.7684,-0.8217,-0.8523,-0.8407,-0.884,-0.9076,-0.9037,-0.8964,-0.8874,-0.8784,-0.8703,-0.8717,-0.8875,-0.8735,-0.8536,-0.829,-0.8345,-0.7726,-0.6521,-0.6231,-0.5667,2.0442,2.0442,2.0559,2.1114,2.1935,2.2833,2.3535,2.4253,2.4796,2.4841,0.0,2.6286,2.6424,2.8878,3.0404,2.8931,0.0,3.0539,2.9033,2.8068,2.7578,2.7671,2.683,2.6131,2.5892,2.5222,2.483,2.4922,2.5162,2.4521,2.273,2.0921,1.9344,1.806,1.6354,1.4916,1.3806,1.3775,1.3639,1.3371,1.3887,1.3975,1.3717,1.4093,1.3667,1.263,0.0,0.0,0.9311,0.9629,0.9134,0.8197,0.7951,0.797,0.812,0.7858,0.7687,0.7617,0.7641,0.7909,0.8117,0.7528,0.7467,0.761,0.7494,0.7825,0.8141,0.7666,0.7856,0.813,0.7839,0.7744,0.7553,0.674,0.6329,0.5927,0.5207,0.2736,-0.0887,-0.6176,-0.7568,-0.7823,-0.7573,-0.716,-0.6911,-0.7076,-0.6793,-0.6785,-0.7355,-0.7266,-0.715,-0.7162,-0.7871,-0.8354,-0.8319,-0.9064,-0.9518,-0.9466,-0.9262,-0.9081,-0.8993,-0.8774,-0.8611,-0.8492,-0.8316,-0.8151,-0.7949,-0.7939,-0.7361,-0.6231,-0.6416,-0.5929,2.1611,2.1611,2.1748,2.2424,2.2986,2.3563,2.4123,2.4756,0.0,0.0,2.5329,2.5959,2.7492,2.8553,2.9682,3.1111,3.1972,3.2367,3.2115,3.136,3.0583,0.0,2.8401,2.6891,0.0,0.0,0.0,0.0,0.0,2.4432,2.3287,2.1931,2.0552,1.9177,1.686,1.5885,1.6355,1.5232,1.4698,1.4753,1.4756,1.4779,1.4822,1.4615,1.4054,1.3234,0.0,0.0,1.1224,1.0384,1.0159,1.0242,0.9076,0.8525,0.839,0.8123,0.7634,0.7156,0.7368,0.7608,0.783,0.8051,0.8424,0.8801,0.8776,0.8847,0.89,0.8816,0.8778,0.8657,0.8164,0.8041,0.7916,0.7428,0.7597,0.7874,0.7885,0.5956,0.3087,-0.071,-0.519,-0.8229,-0.774,-0.7369,-0.6765,-0.5665,-0.5451,-0.5532,-0.5911,-0.6496,-0.689,-0.6939,-0.7678,-0.8064,-0.7848,-0.8655,-0.9068,-0.8791,-0.8432,-0.8435,-0.889,-0.8568,-0.9068,-1.0549,-0.9495,-0.9382,-1.0317,-0.9188,-0.7871,-0.6447,-0.6496,-0.5263,2.2896,2.2887,2.3039,2.3676,2.403,2.4332,2.4678,0.0,0.0,0.0,2.5626,2.6461,2.7899,2.9249,0.0,3.1853,3.2882,3.3381,3.2939,3.2265,0.0,3.0474,2.8898,2.7288,0.0,0.0,0.0,0.0,0.0,2.3774,2.272,2.1459,2.0019,1.841,1.778,1.6995,1.6016,1.5824,1.5524,1.5097,1.5022,1.4967,1.4878,1.4651,1.4201,1.3595,1.3398,0.0,1.1568,1.0689,0.9985,0.9374,0.8099,0.7307,0.6837,0.6463,0.602,0.5691,0.6307,0.6652,0.6939,0.7735,0.8467,0.9079,0.9295,0.9367,0.9366,0.944,0.9295,0.9057,0.8797,0.8781,0.8778,0.8594,0.8631,0.8621,0.8309,0.6998,0.4718,0.0775,-0.219,-0.4319,-0.5238,-0.5079,-0.474,-0.4519,-0.459,-0.4835,-0.5278,-0.4904,-0.5074,-0.6259,-0.6733,-0.6546,-0.5489,-0.6407,-0.7452,-0.8478,-0.8363,-0.8387,-0.8677,-0.912,-0.9452,-0.9696,-0.9746,-0.9977,-1.037,-0.8546,-0.7004,-0.5745,-0.5094,-0.3993,2.4132,2.4009,2.4097,2.4539,2.4683,2.4767,2.4916,2.5143,0.0,2.5155,2.582,2.6798,2.7975,2.9431,3.0799,0.0,3.2839,3.338,3.3152,3.2521,3.1816,0.0,2.9481,0.0,0.0,0.0,0.0,0.0,0.0,0.0,2.2114,2.048,1.9025,1.7807,1.8267,1.7531,1.542,1.6103,1.599,1.5109,1.5157,1.508,1.4871,1.4759,1.4415,1.3912,1.3638,0.0,0.0,1.0796,0.9638,0.8275,0.6938,0.5968,0.5276,0.4786,0.4507,0.4498,0.5293,0.5754,0.6133,0.7177,0.8119,0.8897,0.9158,0.9301,0.9395,0.9399,0.9184,0.8958,0.8924,0.8967,0.8897,0.8414,0.8269,0.8163,0.7951,0.6477,0.4389,0.1656,0.057,-0.0482,-0.2288,-0.2288,-0.2271,-0.2951,-0.3255,-0.3721,-0.4639,-0.3601,-0.3274,-0.4515,-0.4798,-0.4568,-0.376,-0.416,-0.5076,-0.6581,-0.7128,-0.7383,-0.7387,-0.8299,-0.8455,-0.7712,-0.8568,-0.9019,-0.9033,-0.7292,-0.6047,-0.5241,-0.395,-0.2868,2.512,2.4715,2.4662,2.4469,2.4429,2.4432,2.4466,0.0,2.4858,2.5128,2.5408,2.615,2.7881,2.7719,2.8339,0.0,0.0,3.1669,3.3541,3.3135,3.2651,3.2769,0.0,0.0,0.0,0.0,0.0,0.0,0.0,0.0,2.2291,1.9521,1.8236,1.8916,1.7519,1.6611,1.6365,1.6335,1.5912,1.5091,1.5346,1.5447,1.5416,1.5349,1.4959,1.433,1.3809,0.0,0.0,1.0852,0.9783,0.8907,0.6923,0.5724,0.5059,0.4538,0.4466,0.4706,0.5049,0.5436,0.5935,0.6658,0.7548,0.833,0.8115,0.8351,0.8598,0.8185,0.7976,0.7811,0.7688,0.759,0.6982,0.4913,0.4945,0.5898,0.7546,0.4053,0.1429,0.4267,0.2206,-0.0055,-0.0256,-0.028,-0.026,-0.0354,-0.0388,-0.117,-0.3361,-0.3505,-0.2685,-0.0751,-0.1195,-0.2534,-0.475,-0.3313,-0.186,-0.0857,-0.2676,-0.3785,-0.379,-0.3886,-0.44,-0.5381,-0.4806,-0.5076,-0.6263,-0.6057,-0.5924,-0.5788,-0.4452,-0.254,2.628,2.5944,2.576,2.4999,2.4699,2.4548,2.444,0.0,2.5388,2.5023,2.5665,2.6528,2.7276,2.7125,2.7705,0.0,0.0,0.0,3.3139,3.3866,3.4084,3.3601,3.2179,0.0,0.0,0.0,0.0,0.0,0.0,0.0,2.2546,2.0036,1.8285,1.7627,1.7901,1.7512,1.64,1.7175,1.7056,1.6055,1.6,1.5887,1.5722,1.5087,1.4513,1.3923,1.3102,0.0,0.0,1.0428,0.9524,0.8933,0.6941,0.5708,0.4978,0.449,0.4171,0.4007,0.4277,0.4611,0.4991,0.553,0.6086,0.6693,0.7488,0.7685,0.7573,0.7314,0.7082,0.6951,0.7057,0.7374,0.662,0.2515,0.0979,0.09,0.2759,0.1889,0.106,0.1926,0.269,0.2506,0.0376,0.0,0.0,0.0,0.0,-0.0324,-0.1287,-0.2624,-0.2609,-0.0235,0.0684,0.0735,-0.0323,-0.0175,0.0203,0.0756,-0.0058,-0.0763,-0.1281,-0.1319,-0.0076,0.2563,0.2915,0.2451,0.1196,0.1452,0.1848,0.2393,0.1714,0.1747,2.6773,2.6275,2.5753,2.4062,2.3755,2.3752,0.0,0.0,2.5157,2.4897,2.5718,2.6565,2.6861,2.6923,2.7514,0.0,0.0,3.176,3.283,3.3932,3.4533,0.0,0.0,0.0,0.0,0.0,0.0,0.0,0.0,0.0,0.0,2.0152,1.8516,1.7285,1.8397,1.8201,1.6491,1.7692,1.7708,1.6591,1.652,1.6361,1.6062,1.5194,1.4484,1.3812,0.0,0.0,0.0,0.9973,0.9196,0.8897,0.6927,0.5644,0.4784,0.4257,0.3816,0.3535,0.3716,0.4012,0.4352,0.4683,0.4876,0.515,0.6179,0.6532,0.6542,0.6247,0.6052,0.5887,0.5634,0.5727,0.4792,0.0281,-0.157,-0.2024,-0.1008,-0.01,0.0365,-0.0268,0.1847,0.2951,0.0435,0.0,0.0,0.0,0.0,0.0,0.0,-0.1447,-0.1619,0.0571,0.1689,0.2386,0.2684,0.2091,0.1701,0.1701,0.171,0.1552,0.1197,0.0903,0.2485,0.6136,0.7179,0.7282,0.6425,0.7136,0.7807,0.8441,0.7011,0.5593,2.6351,2.5262,2.4163,2.1022,2.111,2.166,2.0574,2.1936,2.3708,2.4694,2.5327,2.5977,2.6836,2.6992,2.7557,2.9235,0.0,0.0,3.2855,3.3098,0.0,0.0,0.0,0.0,0.0,0.0,0.0,0.0,0.0,0.0,0.0,1.9387,1.8799,1.878,1.8786,1.8182,1.691,1.7633,1.7432,1.6317,1.678,1.6812,1.6483,1.6,1.5256,0.0,0.0,0.0,0.0,0.9564,0.8865,0.889,0.6884,0.5455,0.4418,0.3763,0.3506,0.3494,0.3494,0.3847,0.4305,0.4307,0.4135,0.3907,0.3849,0.4706,0.5573,0.482,0.4762,0.4555,0.3047,0.1952,0.061,-0.2057,-0.1986,-0.1573,-0.2493,-0.1947,-0.1271,-0.1271,-0.0569,0.0033,0.0,0.0,0.0,0.0,0.0,0.0,0.0,-0.0034,0.0672,0.2475,0.1849,0.1678,0.2609,0.2703,0.2696,0.2696,0.2687,0.3081,0.393,0.3077,0.261,0.2639,0.5978,0.7689,0.7689,0.9099,0.9781,0.9781,0.9748,0.8064,2.6266,2.5303,2.4407,2.2019,2.1642,2.1844,2.1827,2.3019,2.4499,2.5743,2.6719,2.7436,2.7756,2.7817,2.8192,2.9372,3.0564,0.0,0.0,0.0,0.0,0.0,0.0,0.0,0.0,0.0,0.0,0.0,0.0,0.0,0.0,2.0383,1.9021,1.8013,1.8374,1.8282,1.7587,1.8221,1.8232,1.7603,1.7559,1.7378,1.6994,1.5694,0.0,0.0,0.0,0.0,0.0,0.969,0.9153,0.904,0.7109,0.6046,0.5461,0.4478,0.3864,0.3479,0.3294,0.3338,0.3458,0.3271,0.3277,0.3332,0.322,0.366,0.4155,0.3915,0.3761,0.361,0.3293,0.0883,-0.167,-0.2493,-0.2466,-0.2353,-0.263,-0.2456,-0.2253,-0.2253,-0.2022,-0.144,-0.0197,0.0,0.0,0.0,0.0,0.0,0.0,0.0,0.0706,0.2508,0.2429,0.239,0.267,0.2693,0.2686,0.2686,0.2707,0.2838,0.31,0.3188,0.3399,0.3811,0.4881,0.6003,0.7154,0.7586,0.8108,0.8659,0.9025,0.8294,0.0,2.5356,2.4182,2.1916,2.1647,0.0,2.1996,2.3144,2.457,2.5891,2.647,2.6935,2.7554,2.7783,2.8276,2.9572,3.1077,0.0,0.0,0.0,0.0,0.0,0.0,0.0,0.0,0.0,0.0,0.0,0.0,0.0,0.0,2.0952,1.9404,1.8672,1.8732,1.8573,1.8171,1.8537,1.8514,1.804,1.7599,1.7098,1.65,1.4811,0.0,0.0,0.0,0.0,0.0,0.9077,0.8629,0.8666,0.6952,0.6038,0.5565,0.4596,0.392,0.346,0.3067,0.3025,0.3025,0.2632,0.2551,0.2551,0.2241,0.2649,0.3211,0.333,0.2579,0.1841,0.2101,-0.0254,-0.2706,-0.2706,-0.27,-0.269,-0.269,-0.269,-0.269,-0.269,-0.27,-0.2228,-0.0737,-0.0228,0.0,0.0,0.0,0.0,0.0,0.0,0.0571,0.2022,0.2186,0.232,0.2656,0.2683,0.2712,0.2712,0.2712,0.2849,0.3187,0.3328,0.3752,0.4447,0.4473,0.5141,0.6496,0.6953,0.7317,0.7585,0.8112,0.7934,0.0,2.5531,2.3746,2.1163,2.1429,2.2164,2.162,2.2707,0.0,2.5506,2.5232,2.5222,2.6783,2.7338,2.817,2.9994,3.1338,0.0,0.0,0.0,0.0,0.0,0.0,0.0,0.0,0.0,0.0,0.0,0.0,0.0,0.0,2.1059,1.9785,2.0283,1.9536,1.8943,1.8566,1.8566,1.8275,1.7665,1.697,1.6122,1.514,1.348,0.0,0.0,0.0,0.0,0.0,0.7988,0.7482,0.7891,0.6455,0.5568,0.4997,0.4286,0.3808,0.3435,0.2896,0.2853,0.2939,0.2394,0.203,0.1683,0.1139,0.1708,0.2622,0.2926,0.1363,-0.0347,-0.0226,-0.1436,-0.2696,-0.2696,-0.269,-0.2712,-0.2712,-0.2712,-0.2712,-0.2712,-0.269,-0.2423,-0.154,-0.0637,0.0034,0.0168,0.0067,0.0,0.0,0.0,0.0369,0.1306,0.1406,0.174,0.2613,0.2712,0.2712,0.2712,0.2712,0.3072,0.3928,0.3495,0.3649,0.45,0.4552,0.4941,0.5714,0.6969,0.7235,0.6622,0.7148,0.7103,2.8371,0.0,2.4516,2.3217,2.3012,2.3335,0.0,2.464,2.5337,2.7071,2.7261,2.7621,2.9319,2.9908,3.0579,3.1937,3.3572,3.4906,3.5613,0.0,0.0,0.0,0.0,0.0,0.0,0.0,0.0,0.0,0.0,0.0,0.0,2.0338,1.9208,1.9339,1.8751,1.8395,1.829,1.829,1.7731,1.6653,1.6225,1.5366,1.4105,1.2692,0.0,0.0,0.0,0.0,0.864,0.7858,0.7443,0.7163,0.6259,0.5799,0.5575,0.4637,0.3949,0.3438,0.2881,0.2567,0.2415,0.2368,0.2108,0.1775,0.1639,0.1472,0.1432,0.195,0.1055,-0.0392,-0.1721,-0.2385,-0.2696,-0.2696,-0.269,-0.2712,-0.2712,-0.2712,-0.2712,-0.2712,-0.269,-0.263,-0.2423,-0.104,0.0471,0.1856,0.0875,0.0,0.0,0.0,0.0605,0.2195,0.2359,0.2456,0.2693,0.2686,0.2712,0.2712,0.2712,0.294,0.3458,0.3068,0.3068,0.3584,0.3946,0.4398,0.4871,0.5844,0.6142,0.5787,0.6124,0.6039,2.9035,2.7411,2.5719,2.5103,2.4832,2.4879,2.546,2.5502,2.5835,2.7252,0.0,2.7954,2.9736,3.0667,3.1638,3.3187,3.4835,0.0,0.0,0.0,0.0,0.0,0.0,0.0,0.0,0.0,0.0,0.0,0.0,0.0,0.0,2.0186,1.9004,1.9344,1.845,1.8048,1.8187,1.8048,1.7545,1.6749,1.5619,1.4561,1.3555,1.1716,1.0638,0.0,0.0,0.0,0.7915,0.7375,0.6892,0.6425,0.5619,0.5289,0.5184,0.4242,0.3693,0.3303,0.2691,0.2267,0.1942,0.1446,0.1521,0.1639,0.0803,-0.0047,-0.0683,-0.0366,-0.0667,-0.134,-0.2414,-0.2704,-0.269,-0.269,-0.2686,-0.2712,-0.2712,-0.2712,-0.2712,-0.2712,-0.2686,-0.269,-0.2696,-0.1544,0.0,0.1782,0.1583,0.0942,0.0101,0.0335,0.0972,0.1952,0.2426,0.2696,0.269,0.2683,0.2712,0.2712,0.2712,0.2874,0.3294,0.2907,0.2874,0.329,0.3941,0.4462,0.4871,0.5751,0.5951,0.5527,0.6064,0.59,2.937,2.8345,2.7398,2.693,2.6585,2.6339,2.6252,0.0,0.0,0.0,0.0,0.0,2.9701,3.0935,0.0,0.0,0.0,0.0,0.0,0.0,0.0,0.0,0.0,0.0,0.0,0.0,0.0,0.0,0.0,0.0,0.0,2.021,1.8886,1.954,1.8358,1.7808,1.7973,1.7703,1.7386,1.6954,1.5027,1.3761,1.3092,1.0794,0.9623,0.0,0.0,0.0,0.7521,0.6811,0.6183,0.5634,0.4884,0.457,0.4411,0.3601,0.3267,0.3123,0.2397,0.1986,0.1642,0.0611,0.0659,0.0864,-0.05,-0.1721,-0.2651,-0.2704,-0.2585,-0.2488,-0.2658,-0.269,-0.2712,-0.2712,-0.2712,-0.2712,-0.2712,-0.2712,-0.2712,-0.2712,-0.2712,-0.2683,-0.2696,-0.2047,-0.0869,0.1003,0.2091,0.213,0.0605,0.0938,0.1338,0.1507,0.222,0.2693,0.2716,0.2712,0.2712,0.2712,0.2712,0.2841,0.3196,0.294,0.2973,0.3392,0.406,0.4668,0.5212,0.6005,0.6074,0.5488,0.6299,0.6028,2.9755,3.0052,3.0038,2.8941,2.7661,2.69,2.7939,0.0,0.0,0.0,0.0,0.0,0.0,3.2832,3.4068,0.0,0.0,0.0,0.0,0.0,0.0,0.0,0.0,0.0,0.0,0.0,0.0,0.0,0.0,0.0,0.0,0.0,1.8542,1.8464,1.8022,1.7512,1.6948,1.6936,1.6495,1.5597,1.4187,1.3041,1.2071,1.0288,0.9449,0.0,0.0,0.7839,0.7064,0.6683,0.5836,0.4788,0.466,0.4377,0.4034,0.3488,0.3159,0.2861,0.2107,0.1842,0.1773,0.1579,-0.0074,-0.1868,-0.112,-0.162,-0.2496,-0.2665,-0.2666,-0.2663,-0.2685,-0.269,-0.2712,-0.2712,-0.2712,-0.2712,-0.2712,-0.2712,-0.2712,-0.2712,-0.2712,-0.2683,-0.2696,-0.2593,-0.1609,0.0903,0.2091,0.2609,0.2323,0.1711,0.1609,0.239,0.263,0.2693,0.2716,0.2712,0.2712,0.2712,0.2712,0.2712,0.2779,0.3068,0.3425,0.3891,0.3621,0.4103,0.5277,0.5629,0.5668,0.535,0.5818,0.5541,2.9312,2.9788,3.0152,2.9646,2.8761,2.8057,2.8287,2.7784,0.0,0.0,0.0,0.0,0.0,0.0,0.0,0.0,0.0,0.0,0.0,0.0,0.0,0.0,0.0,0.0,0.0,0.0,0.0,0.0,0.0,0.0,0.0,0.0,1.833,1.8208,1.7366,1.6775,1.6442,1.5901,1.54,1.4948,1.3496,1.2567,1.2056,1.0379,0.9623,0.9571,0.0,0.781,0.6966,0.6652,0.5743,0.457,0.4377,0.4021,0.3556,0.3057,0.2693,0.2348,0.1586,0.1527,0.1693,0.1029,-0.0773,-0.2564,-0.1904,-0.2106,-0.2572,-0.2598,-0.259,-0.2623,-0.2682,-0.2683,-0.2712,-0.2712,-0.2712,-0.2712,-0.2712,-0.2712,-0.2712,-0.2712,-0.2712,-0.271,-0.2798,-0.2318,-0.1376,0.0325,0.1938,0.2845,0.2717,0.2385,0.2287,0.2673,0.2693,0.2686,0.2712,0.2712,0.2712,0.2712,0.2712,0.2712,0.2712,0.2874,0.3298,0.3993,0.3793,0.4138,0.5073,0.5346,0.5246,0.484,0.5658,0.5658,2.8796,2.9371,2.9964,2.9918,0.0,2.8724,2.8544,2.8162,0.0,0.0,0.0,0.0,0.0,0.0,0.0,0.0,0.0,0.0,0.0,0.0,0.0,0.0,0.0,0.0,0.0,0.0,0.0,0.0,0.0,0.0,0.0,0.0,1.8162,1.7866,1.6841,1.6122,1.5709,1.4825,1.4454,1.4567,1.3094,1.2352,1.224,1.0658,0.9957,0.9869,0.886,0.7925,0.7114,0.6683,0.5681,0.4441,0.4123,0.363,0.3051,0.2647,0.2331,0.2017,0.1174,0.112,0.1237,0.0313,-0.1087,-0.2392,-0.2445,-0.2583,-0.2668,-0.2561,-0.2544,-0.2565,-0.2685,-0.2712,-0.2712,-0.2712,-0.2712,-0.2726,-0.2727,-0.2706,-0.2737,-0.2771,-0.2757,-0.2784,-0.2828,-0.222,-0.1345,-0.0193,0.1835,0.311,0.283,0.2888,0.2884,0.2777,0.2727,0.2686,0.2683,0.2712,0.2712,0.2712,0.2712,0.2712,0.2712,0.2712,0.3096,0.3903,0.3756,0.4053,0.4774,0.4938,0.4801,0.4456,0.5462,0.5688,2.8602,2.9788,3.0678,3.0047,2.8845,0.0,2.9479,2.8705,0.0,3.0731,0.0,0.0,0.0,0.0,0.0,0.0,0.0,0.0,0.0,0.0,0.0,0.0,0.0,0.0,0.0,0.0,0.0,0.0,0.0,0.0,0.0,0.0,0.0,1.6842,1.6712,1.5896,1.4272,1.3925,1.3933,1.4216,1.3165,1.2544,1.2264,1.0946,1.0371,1.0297,0.9227,0.8301,0.7502,0.6794,0.5526,0.4026,0.4026,0.342,0.2557,0.2516,0.2367,0.2081,0.1204,0.0561,0.0114,0.003,-0.064,-0.1555,-0.2432,-0.2691,-0.2704,-0.2696,-0.2694,-0.2699,-0.2709,-0.2712,-0.2712,-0.2712,-0.2712,-0.272,-0.2862,-0.2781,-0.2761,-0.3035,-0.2985,-0.2831,-0.2716,-0.2859,-0.2307,-0.0312,0.2039,0.3434,0.3102,0.3008,0.2998,0.2988,0.2827,0.2692,0.2693,0.2712,0.2712,0.2712,0.2712,0.2712,0.2712,0.2712,0.2981,0.3624,0.309,0.334,0.4432,0.4191,0.4272,0.4603,0.4853,0.5157,2.7725,2.9228,3.0538,2.9789,2.9428,0.0,0.0,3.026,2.9912,3.1139,3.2251,0.0,0.0,0.0,0.0,0.0,0.0,0.0,0.0,0.0,0.0,0.0,0.0,0.0,0.0,0.0,0.0,0.0,0.0,0.0,0.0,0.0,0.0,1.6737,1.5661,1.4768,1.4106,1.3375,1.2993,1.2941,1.2402,1.1992,1.1655,1.1003,1.047,0.9983,0.9174,0.8217,0.7201,0.6713,0.565,0.4312,0.3784,0.3192,0.2627,0.2627,0.2567,0.2402,0.1699,0.0817,0.0,0.0,-0.0227,-0.078,-0.2261,-0.2692,-0.2712,-0.2693,-0.275,-0.2801,-0.2706,-0.2712,-0.2712,-0.2712,-0.2754,-0.2812,-0.2774,-0.2798,-0.2856,-0.2968,-0.2871,-0.2837,-0.3038,-0.2958,-0.2444,-0.1312,0.1576,0.3538,0.3436,0.2751,0.2306,0.2431,0.2727,0.2907,0.2835,0.2822,0.2822,0.2822,0.2822,0.2822,0.2822,0.2907,0.3202,0.3713,0.3428,0.3528,0.4042,0.4099,0.4014,0.3818,0.4571,0.4882,2.7474,2.9064,3.0472,2.9913,0.0,0.0,3.2156,3.1551,3.1062,3.2167,3.299,0.0,0.0,0.0,0.0,0.0,0.0,0.0,0.0,0.0,0.0,0.0,0.0,0.0,0.0,0.0,0.0,0.0,0.0,0.0,0.0,0.0,0.0,0.0,1.4967,1.4029,1.3645,1.2948,1.2416,1.2066,1.1891,1.1615,1.1296,1.0916,1.0407,0.9754,0.9093,0.8122,0.6966,0.6652,0.5743,0.4538,0.3816,0.3266,0.2874,0.2874,0.2819,0.263,0.222,0.1544,0.0773,0.0202,0.0,-0.0235,-0.1483,-0.2122,-0.2456,-0.263,-0.2764,-0.2812,-0.274,-0.2751,-0.2798,-0.2703,-0.2798,-0.2893,-0.2832,-0.2866,-0.2951,-0.3093,-0.3003,-0.293,-0.3001,-0.27,-0.2165,-0.1334,0.0894,0.276,0.3519,0.2887,0.2408,0.2577,0.2918,0.3075,0.2924,0.291,0.291,0.291,0.2994,0.3018,0.2974,0.3069,0.3261,0.3629,0.3497,0.3524,0.3754,0.3838,0.3722,0.3309,0.4102,0.4413,2.812,2.9457,3.0602,0.0,0.0,0.0,3.3757,3.2436,3.156,3.4129,0.0,0.0,0.0,0.0,0.0,0.0,0.0,0.0,0.0,0.0,0.0,0.0,0.0,0.0,0.0,0.0,0.0,0.0,0.0,0.0,0.0,0.0,0.0,0.0,1.4866,1.387,1.261,1.2591,1.2316,1.1805,1.1805,1.1615,1.1287,1.0664,1.0171,0.9754,0.9093,0.8094,0.6966,0.6614,0.5743,0.457,0.4156,0.3723,0.329,0.329,0.3043,0.2696,0.2696,0.2703,0.2405,0.0605,0.0,0.0,0.0,-0.0838,-0.1911,-0.2526,-0.269,-0.2716,-0.2712,-0.29,-0.3049,-0.2754,-0.2801,-0.2951,-0.309,-0.3012,-0.3046,-0.3493,-0.3453,-0.3097,-0.2519,-0.2095,-0.1383,-0.0179,0.0,0.0851,0.326,0.3574,0.3602,0.3619,0.3409,0.3192,0.294,0.2949,0.2985,0.2913,0.3135,0.3254,0.3124,0.3085,0.3155,0.3306,0.3162,0.3273,0.3578,0.338,0.3306,0.3309,0.3507,0.3799,2.8038,2.9126,0.0,3.0332,0.0,0.0,0.0,3.2027,0.0,0.0,0.0,0.0,0.0,0.0,0.0,0.0,0.0,0.0,0.0,0.0,0.0,0.0,0.0,0.0,0.0,0.0,0.0,0.0,0.0,0.0,0.0,0.0,0.0,0.0,1.401,1.2989,1.261,1.2235,1.1839,1.1445,1.1256,1.1094,1.1001,1.0554,0.9881,0.9066,0.8623,0.7753,0.6592,0.5937,0.5232,0.4596,0.4473,0.3946,0.329,0.329,0.3039,0.2686,0.2686,0.2693,0.2533,0.1577,0.0704,0.0,0.0,-0.0235,-0.0839,-0.2289,-0.2696,-0.2707,-0.2706,-0.2981,-0.3165,-0.291,-0.2998,-0.3162,-0.3095,-0.3171,-0.33,-0.3437,-0.3388,-0.3279,-0.324,-0.3135,-0.2373,-0.0313,0.0,0.0269,0.0989,0.1794,0.2677,0.3494,0.3564,0.3436,0.3206,0.3053,0.2802,0.2367,0.2845,0.3174,0.3236,0.3385,0.3466,0.351,0.3319,0.3286,0.3373,0.3329,0.3306,0.3309,0.3507,0.3642,2.9089,2.9691,0.0,3.0457,3.1206,3.1854,3.1534,0.0,0.0,0.0,0.0,0.0,0.0,0.0,0.0,0.0,0.0,0.0,0.0,0.0,0.0,0.0,0.0,0.0,0.0,0.0,0.0,0.0,0.0,0.0,0.0,0.0,0.0,0.0,1.3979,1.2957,1.2451,1.2128,1.1732,1.1296,1.1127,1.0845,1.0456,1.0096,0.9532,0.8761,0.8117,0.7325,0.6449,0.5797,0.5271,0.489,0.489,0.4436,0.3784,0.3621,0.3298,0.2907,0.2746,0.2686,0.263,0.2286,0.168,0.094,0.0201,0.0,-0.0235,-0.1308,-0.2133,-0.2697,-0.271,-0.2897,-0.3001,-0.2876,-0.309,-0.3307,-0.3154,-0.3242,-0.3368,-0.3475,-0.3446,-0.348,-0.3565,-0.3585,-0.309,-0.165,-0.0626,0.0,0.0,0.0627,0.1743,0.342,0.3592,0.3346,0.2744,0.2577,0.2483,0.2345,0.2942,0.3331,0.34,0.3534,0.3581,0.3581,0.3487,0.34,0.34,0.34,0.34,0.3442,0.3537,0.3581,3.0769,0.0,0.0,3.0829,3.1487,0.0,3.1126,3.1484,3.173,0.0,0.0,0.0,0.0,0.0,0.0,0.0,0.0,0.0,0.0,0.0,0.0,0.0,0.0,0.0,0.0,0.0,0.0,0.0,0.0,0.0,0.0,0.0,0.0,0.0,1.4499,1.3484,1.2298,1.2179,1.1839,0.0,1.1227,1.0719,0.9792,0.953,0.9143,0.8651,0.7579,0.6871,0.6457,0.6068,0.5672,0.5309,0.5309,0.5017,0.4564,0.413,0.3704,0.3225,0.2827,0.2676,0.2696,0.2696,0.2696,0.239,0.0738,0.0134,0.0,0.0,-0.1174,-0.2459,-0.256,-0.2634,-0.2665,-0.2582,-0.2974,-0.3337,-0.3171,-0.3212,-0.3353,-0.3551,-0.3581,-0.3581,-0.3581,-0.3581,-0.3581,-0.3581,-0.1561,0.0,0.0,0.0,0.085,0.3018,0.3458,0.3175,0.2037,0.1764,0.1888,0.2413,0.3082,0.3524,0.3592,0.3588,0.3581,0.3581,0.3581,0.3581,0.3581,0.3581,0.3581,0.3581,0.3581,0.3581,3.1184,3.0495,0.0,0.0,3.1219,3.1563,3.1611,3.1255,0.0,0.0,0.0,0.0,0.0,0.0,0.0,0.0,0.0,0.0,0.0,0.0,0.0,0.0,0.0,0.0,0.0,0.0,0.0,0.0,0.0,0.0,0.0,0.0,0.0,1.6011,1.4556,1.3542,1.2994,1.1985,1.1333,0.0,1.0726,1.0347,0.9855,0.948,0.881,0.7918,0.7355,0.6871,0.6457,0.6068,0.5672,0.5309,0.5309,0.5017,0.4541,0.4038,0.3613,0.3241,0.2729,0.2613,0.2683,0.2683,0.269,0.263,0.2222,0.1141,0.0,0.0,-0.0268,-0.0738,-0.1406,-0.2135,-0.252,-0.1764,-0.2349,-0.3165,-0.3422,-0.3375,-0.3353,-0.3551,-0.3581,-0.3581,-0.3581,-0.3581,-0.3585,-0.3592,-0.1564,0.0,0.0,0.0,0.0179,0.0716,0.2469,0.3503,0.3249,0.1455,0.0425,0.0573,0.175,0.2785,0.3557,0.3592,0.3585,0.3595,0.3585,0.3581,0.3581,0.3581,0.3581,0.3581,0.3581,0.3581,3.2169,0.0,0.0,3.0637,0.0,3.1051,3.1196,3.0905,0.0,0.0,0.0,0.0,0.0,0.0,0.0,0.0,0.0,0.0,0.0,0.0,0.0,0.0,0.0,0.0,0.0,0.0,0.0,0.0,0.0,0.0,0.0,1.7607,1.6896,1.5783,1.4613,1.3595,1.2786,1.1797,1.1066,1.0667,1.0284,0.9766,0.9116,0.9093,0.8557,0.7695,0.7471,0.7068,0.6471,0.6129,0.5621,0.5057,0.4917,0.4795,0.463,0.3985,0.3753,0.3632,0.2863,0.2631,0.2686,0.261,0.2606,0.2627,0.2673,0.205,0.1107,0.0234,0.0,-0.0101,-0.057,-0.1682,-0.259,-0.2104,-0.2185,-0.2598,-0.3199,-0.3396,-0.3489,-0.3595,-0.3581,-0.3581,-0.3588,-0.3585,-0.3585,-0.3595,-0.2057,-0.0671,-0.009,0.0,0.0,0.0,0.114,0.1896,0.1898,0.1801,0.1244,0.0092,0.131,0.2556,0.3574,0.3602,0.3046,0.188,0.2996,0.3585,0.3588,0.3585,0.3581,0.3581,0.3581,0.3615,3.3336,0.0,3.0559,3.0611,3.0623,0.0,3.0599,3.0609,0.0,0.0,0.0,0.0,0.0,0.0,0.0,0.0,0.0,0.0,0.0,0.0,0.0,0.0,0.0,0.0,0.0,0.0,0.0,0.0,0.0,0.0,1.7687,1.7507,1.6809,1.5345,1.4545,1.355,1.2318,1.1603,1.0949,1.0396,0.9932,0.9242,0.8319,0.8578,0.8326,0.7695,0.7695,0.7248,0.6491,0.6273,0.564,0.4771,0.4604,0.465,0.4716,0.4013,0.3945,0.4059,0.3073,0.2712,0.2688,0.2609,0.2543,0.2513,0.2645,0.2593,0.2153,0.0638,0.0101,0.0,0.0,-0.1111,-0.2301,-0.2612,-0.2088,-0.1759,-0.2811,-0.3282,-0.3469,-0.3325,-0.3445,-0.3541,-0.3411,-0.3496,-0.3585,-0.3595,-0.2732,-0.1611,-0.0179,0.0,0.0,0.0,0.0,0.0,0.0,0.1839,0.2148,0.0145,0.11,0.2309,0.3537,0.3392,0.2464,0.0672,0.2593,0.3588,0.3598,0.3448,0.3503,0.3664,0.3636,0.367,0.0,0.0,3.1448,0.0,3.0687,3.0677,0.0,0.0,0.0,0.0,0.0,0.0,0.0,0.0,0.0,0.0,0.0,0.0,0.0,0.0,0.0,0.0,0.0,0.0,0.0,0.0,0.0,0.0,0.0,0.0,1.7399,1.6802,1.6108,1.5329,1.4093,1.3077,1.2318,1.1404,1.0763,1.0396,0.9751,0.9046,0.8319,0.8336,0.8119,0.7695,0.7695,0.7243,0.6492,0.6475,0.5788,0.4815,0.5018,0.4961,0.4739,0.4177,0.4057,0.4066,0.318,0.2793,0.2716,0.2816,0.2691,0.251,0.2668,0.2142,0.144,0.1204,0.057,0.0,0.0,-0.0168,-0.0739,-0.2334,-0.143,-0.0774,-0.2665,-0.3129,-0.2933,-0.2199,-0.2865,-0.3363,-0.2674,-0.3132,-0.3592,-0.3585,-0.3462,-0.2561,-0.0268,0.0,0.0,0.0,0.0,0.0,0.0,0.0303,0.0353,0.0,0.0194,0.1284,0.3491,0.2609,0.2377,0.3122,0.3423,0.3595,0.3598,0.2901,0.2999,0.3872,0.3688,0.3727,3.3249,3.2062,3.1058,0.0,3.065,3.0645,3.0612,0.0,0.0,0.0,0.0,0.0,0.0,0.0,0.0,0.0,0.0,0.0,0.0,0.0,0.0,0.0,0.0,0.0,0.0,0.0,0.0,0.0,0.0,1.7659,1.7052,1.6545,1.6082,1.5598,1.4288,1.3267,1.2607,1.1451,1.0532,0.9829,0.9555,0.9019,0.829,0.829,0.8091,0.7695,0.7695,0.7367,0.6809,0.6675,0.6016,0.5118,0.5108,0.4962,0.4726,0.4192,0.4133,0.4183,0.3322,0.2866,0.2686,0.2627,0.2482,0.239,0.261,0.2424,0.1981,0.144,0.067,0.0,0.0,0.0,-0.0202,-0.1009,-0.0585,-0.0251,-0.116,-0.2444,-0.2881,-0.1143,-0.1208,-0.1701,-0.2006,-0.2925,-0.3609,-0.3605,-0.3579,-0.2743,-0.0324,0.0,0.0,0.0,0.0,0.0,0.0,0.0,0.0,0.0,0.0,0.0484,0.153,0.1721,0.2061,0.2561,0.3236,0.2918,0.1569,0.27,0.3506,0.3964,0.3873,0.3941,0.0,0.0,3.1045,3.0626,3.0516,3.0536,0.0,0.0,0.0,0.0,0.0,0.0,0.0,0.0,0.0,0.0,0.0,0.0,0.0,0.0,0.0,0.0,0.0,0.0,0.0,0.0,0.0,0.0,0.0,1.7365,1.6841,1.6171,1.5641,1.5304,1.3989,1.301,1.2432,1.1325,1.031,0.9408,0.9289,0.891,0.829,0.8205,0.7976,0.7695,0.7695,0.7414,0.6946,0.6739,0.6053,0.5127,0.4997,0.4796,0.4535,0.4153,0.4133,0.4196,0.3449,0.3025,0.2782,0.2583,0.25,0.2514,0.2721,0.2857,0.2716,0.1904,0.0868,0.0,0.0,0.0,0.0,0.0,0.0,0.0,0.0,-0.1415,-0.2169,-0.0354,0.0,-0.0269,-0.1206,-0.2071,-0.2807,-0.3109,-0.3423,-0.2971,-0.1158,-0.0386,0.0,0.0,0.0,0.0,0.0,0.0,0.0,0.0,0.0,0.0,0.0,0.1444,0.2243,0.2237,0.3138,0.2747,0.1002,0.2954,0.3999,0.4136,0.4045,0.4121,0.0,3.2615,0.0,3.0704,3.0313,0.0,0.0,0.0,0.0,0.0,0.0,0.0,0.0,0.0,0.0,0.0,0.0,0.0,0.0,0.0,0.0,0.0,0.0,0.0,0.0,0.0,0.0,0.0,0.0,1.7175,1.6815,1.5294,1.4252,1.3914,1.2598,1.1741,1.1373,1.0739,1.0072,0.9396,0.9008,0.8634,0.829,0.7889,0.7725,0.7695,0.7695,0.7253,0.6529,0.6511,0.5702,0.4483,0.4723,0.4488,0.4032,0.4005,0.4005,0.3972,0.3612,0.3309,0.3065,0.2922,0.3037,0.3225,0.3124,0.3241,0.3347,0.2794,0.1356,0.0,0.0,0.0,0.0,0.0,0.0,0.0,0.0,-0.0087,-0.0134,-0.0045,0.0,-0.0,-0.0089,-0.0135,-0.0592,-0.1742,-0.2868,-0.3562,-0.3427,-0.1408,0.0,0.0,0.0,0.0,0.0,0.0,0.0,0.0,0.0,0.0,0.0,0.2251,0.3523,0.3519,0.3547,0.3653,0.3701,0.3852,0.4105,0.4442,0.4137,0.4175,0.0,0.0,0.0,3.0734,2.9894,2.932,0.0,0.0,0.0,0.0,0.0,0.0,0.0,0.0,0.0,0.0,0.0,0.0,0.0,0.0,0.0,0.0,0.0,0.0,0.0,0.0,0.0,0.0,0.0,0.0,1.6501,1.5703,1.5216,1.5094,1.378,1.2518,1.131,1.0712,1.0272,1.0021,0.9463,0.8981,0.8606,0.8251,0.7957,0.7695,0.7695,0.755,0.7234,0.6813,0.6293,0.5708,0.533,0.4912,0.4502,0.4315,0.4153,0.3928,0.3431,0.3068,0.2799,0.2548,0.2727,0.3087,0.3286,0.356,0.3821,0.3788,0.1966,0.0,0.0,-0.04,-0.0705,-0.014,0.0,-0.044,-0.1976,-0.1107,0.0,0.0,0.0,0.0,0.0,0.0,-0.015,-0.0593,-0.101,-0.1859,-0.3412,-0.2833,-0.1734,-0.016,0.0,0.0,0.0,0.0,0.0,0.0,0.0,0.0,0.0,0.0815,0.2022,0.3557,0.3595,0.3619,0.3718,0.3856,0.4105,0.4328,0.4299,0.4362,3.3119,0.0,0.0,0.0,0.0,2.9402,0.0,0.0,0.0,0.0,0.0,0.0,0.0,0.0,0.0,0.0,0.0,0.0,0.0,0.0,0.0,0.0,0.0,0.0,0.0,0.0,0.0,0.0,0.0,0.0,1.6642,1.5892,1.5259,1.4809,1.3705,1.2524,1.131,1.0902,1.0592,1.0396,0.9816,0.9345,0.8981,0.8505,0.8148,0.7899,0.7754,0.7637,0.7481,0.7017,0.6659,0.6303,0.5548,0.5056,0.4691,0.4266,0.3988,0.3772,0.3371,0.3068,0.2799,0.2516,0.2821,0.3326,0.3684,0.4092,0.4441,0.4468,0.2511,0.0228,-0.0629,-0.1313,-0.1587,-0.0792,-0.0922,-0.1643,-0.3232,-0.2315,-0.0981,-0.0178,0.0,0.0,0.0,0.0,0.0,0.0,0.0,-0.0588,-0.217,-0.2392,-0.1791,-0.0163,0.0,0.0,0.0,0.0,0.0,0.0,0.0,0.0,0.0,0.0,0.112,0.3557,0.3595,0.3615,0.3715,0.3907,0.4127,0.4292,0.4429,0.4519,0.0,0.0,0.0,0.0,0.0,0.0,0.0,0.0,0.0,0.0,0.0,0.0,0.0,0.0,0.0,0.0,0.0,0.0,0.0,0.0,0.0,0.0,0.0,0.0,0.0,0.0,0.0,0.0,0.0,1.7339,1.7279,1.5725,1.4199,1.2876,1.2194,1.1667,1.1318,1.1296,1.102,1.0421,1.0033,0.9688,0.9396,0.8662,0.8319,0.829,0.7899,0.75,0.7109,0.71,0.6701,0.6029,0.5294,0.4857,0.4526,0.3793,0.3513,0.3506,0.3485,0.3309,0.3065,0.2922,0.3374,0.4041,0.4341,0.4842,0.5214,0.475,0.3038,0.0686,-0.1958,-0.2688,-0.2546,-0.1967,-0.2738,-0.3597,-0.3567,-0.3621,-0.2995,-0.0577,-0.009,-0.0046,-0.0,0.0,0.0,0.0,0.0,0.0,0.0,0.0,0.0,0.0,0.0,0.0,0.0,0.0,0.0,0.0,0.0,0.0,0.0,0.0,0.1121,0.3436,0.3551,0.3705,0.3913,0.3955,0.4172,0.4512,0.4515,0.4519,3.2006,0.0,0.0,0.0,0.0,0.0,0.0,0.0,0.0,0.0,0.0,0.0,0.0,0.0,0.0,0.0,0.0,0.0,0.0,0.0,0.0,0.0,0.0,0.0,0.0,0.0,0.0,0.0,1.9248,1.8311,1.694,1.6007,1.4929,1.357,1.3346,1.273,1.1674,1.1423,1.1227,1.1043,1.0736,1.0284,0.9676,0.9494,0.8973,0.8308,0.8439,0.8127,0.7481,0.7018,0.6657,0.6303,0.5573,0.507,0.4687,0.4305,0.3988,0.3723,0.3345,0.3025,0.2782,0.2607,0.3032,0.378,0.4577,0.504,0.5285,0.526,0.3509,0.0763,-0.3097,-0.3403,-0.259,-0.2142,-0.284,-0.3834,-0.4622,-0.5343,-0.5219,-0.3017,-0.1907,-0.1011,-0.0143,0.0,0.0,0.0,0.0,0.0,0.0,0.0,0.0,0.0,0.0,0.0,0.0,0.0,0.0,0.0,0.0,0.0,0.0,0.0,0.0328,0.0983,0.269,0.3635,0.3683,0.3863,0.4025,0.4267,0.4426,0.4473,0.0,0.0,0.0,0.0,0.0,0.0,2.8426,2.7499,0.0,0.0,0.0,0.0,0.0,0.0,0.0,0.0,0.0,0.0,0.0,0.0,0.0,0.0,0.0,0.0,0.0,0.0,0.0,2.0689,1.9906,1.872,1.7045,1.6217,1.5375,1.446,1.375,1.3002,1.2209,1.1748,1.1445,1.1296,1.1127,1.0784,1.0246,0.9945,0.9482,0.8931,0.8833,0.854,0.8145,0.7746,0.7261,0.6655,0.5765,0.5248,0.5015,0.4741,0.4326,0.3884,0.3756,0.3421,0.3015,0.2954,0.3249,0.3828,0.4986,0.5432,0.5609,0.5786,0.3582,0.0219,-0.3762,-0.3566,-0.2242,-0.1849,-0.2268,-0.3212,-0.4938,-0.6173,-0.6631,-0.5305,-0.408,-0.2901,-0.1835,-0.1235,-0.0688,-0.0106,0.0,0.0,0.0,0.0,0.0,0.0,0.0,0.0,0.0,0.0,0.0,0.0,0.0,0.0,0.0,0.0,0.0,0.0,0.2392,0.3623,0.3576,0.3821,0.3836,0.3692,0.3819,0.4079,0.0,0.0,0.0,0.0,0.0,0.0,2.7176,2.6696,2.6377,0.0,0.0,0.0,0.0,0.0,0.0,0.0,0.0,0.0,0.0,0.0,0.0,0.0,0.0,0.0,0.0,2.1928,2.1658,2.1612,2.0257,1.8905,1.7595,1.6583,1.5823,1.537,1.3918,1.3075,1.2976,1.2381,1.1881,1.1479,1.1479,1.129,1.092,1.0258,0.9907,0.9766,0.9215,0.8915,0.8816,0.8831,0.8166,0.7022,0.6084,0.565,0.5508,0.5262,0.4719,0.4127,0.4518,0.4117,0.3469,0.3621,0.372,0.4049,0.5345,0.5852,0.599,0.6142,0.3372,-0.0347,-0.3428,-0.2902,-0.1514,-0.1234,-0.1234,-0.2031,-0.4602,-0.6313,-0.7344,-0.7242,-0.6438,-0.5445,-0.4521,-0.3338,-0.2035,-0.0683,-0.0216,0.0,0.0,0.0,0.0,0.0,0.0,0.0,0.0,0.0,0.0,0.0,0.0,0.0,0.0,0.0,0.0,0.0,0.2085,0.3322,0.3593,0.3904,0.3752,0.3178,0.3176,0.3624,0.0,0.0,0.0,0.0,0.0,0.0,2.862,2.827,2.7412,0.0,0.0,0.0,0.0,0.0,0.0,0.0,0.0,0.0,0.0,0.0,0.0,0.0,0.0,0.0,0.0,2.2209,2.2003,2.1628,2.0519,1.9642,1.911,1.807,1.695,1.5751,1.5384,1.4845,1.4023,1.3876,1.3375,1.2513,1.2513,1.2071,1.1219,1.1075,1.0575,0.9805,0.9995,0.9597,0.881,0.902,0.8394,0.7294,0.7549,0.7155,0.6424,0.633,0.5831,0.5156,0.4981,0.4092,0.3083,0.3419,0.3668,0.399,0.5007,0.582,0.6253,0.5657,0.3552,0.1271,0.0258,-0.0172,-0.0346,-0.0265,-0.0267,-0.1032,-0.3681,-0.5845,-0.7406,-0.8002,-0.8448,-0.8221,-0.6741,-0.5348,-0.427,-0.3695,-0.1575,0.0,0.0,0.0,0.0,0.0,0.0,0.0,0.0,0.0,0.0,0.0,0.0,0.0,0.0,0.0,0.0,0.0,0.0474,0.1641,0.3593,0.4162,0.434,0.4219,0.4212,0.4314,0.0,0.0,0.0,2.6862,0.0,0.0,0.0,2.7576,2.7126,2.5399,0.0,0.0,0.0,0.0,0.0,0.0,0.0,0.0,0.0,0.0,0.0,0.0,0.0,0.0,0.0,2.231,2.2106,2.1658,2.1103,2.058,2.0014,1.9329,1.8377,1.7134,1.6621,1.5943,1.5058,1.4217,1.3543,1.3023,1.2539,1.2052,1.1534,1.1378,1.1015,1.0538,1.0616,1.0247,0.9624,0.9934,0.9409,0.8434,0.8386,0.7946,0.7358,0.7343,0.666,0.5722,0.5599,0.4657,0.358,0.3777,0.3877,0.4086,0.517,0.6189,0.6931,0.6726,0.4936,0.3132,0.3224,0.25,0.1884,0.2499,0.1455,-0.041,-0.2897,-0.5456,-0.7511,-0.8297,-0.9242,-0.9512,-0.8134,-0.7336,-0.6386,-0.4939,-0.2802,-0.1002,-0.0098,0.0,0.0,0.0,0.0,0.0,0.0,0.0,0.0,0.0,0.0,0.0673,0.2193,0.2265,0.1857,0.109,0.109,0.1689,0.2898,0.3224,0.3363,0.3363,0.415,0.448,0.0,0.0,0.0,0.0,0.0,2.7451,0.0,0.0,0.0,2.493,0.0,0.0,0.0,0.0,0.0,0.0,0.0,0.0,0.0,0.0,0.0,0.0,0.0,0.0,0.0,2.2446,2.2303,2.1764,2.185,2.1566,2.0676,2.0368,1.9752,1.875,1.7773,1.697,1.6314,1.4818,1.3876,1.3477,1.2687,1.2095,1.1805,1.1512,1.1363,1.1287,1.1071,1.0774,1.0532,1.0835,1.056,0.9864,0.9218,0.8684,0.8302,0.832,0.7446,0.6219,0.6194,0.5262,0.4075,0.4132,0.4185,0.4436,0.5575,0.6635,0.746,0.7718,0.6379,0.4971,0.5356,0.4794,0.4374,0.512,0.3199,0.0463,-0.1968,-0.471,-0.6915,-0.7775,-0.8851,-0.9445,-0.8913,-0.8711,-0.796,-0.5957,-0.4251,-0.2614,-0.1002,-0.1319,-0.1345,-0.045,-0.0401,-0.0402,-0.0403,-0.0155,0.0265,0.0806,0.0877,0.1952,0.4409,0.4518,0.3934,0.2681,0.2625,0.2625,0.2625,0.2623,0.2623,0.2679,0.3913,0.4473,0.0,0.0,0.0,0.0,2.5161,0.0,0.0,0.0,2.8067,2.6761,0.0,0.0,0.0,0.0,0.0,0.0,0.0,0.0,0.0,0.0,0.0,0.0,0.0,0.0,0.0,0.0,2.2975,2.2288,2.2844,2.2591,2.1191,2.108,2.0692,1.9833,1.9074,1.8492,1.8111,1.7281,1.5958,1.4194,1.407,1.3237,1.1805,1.1747,1.1579,1.1296,1.1287,1.1103,1.0873,1.115,1.1199,1.1068,1.0736,1.013,0.94,0.9228,0.8268,0.7009,0.6603,0.519,0.3615,0.3919,0.4492,0.5232,0.6138,0.688,0.7308,0.6803,0.6686,0.659,0.6126,0.6295,0.6392,0.5491,0.42,0.2378,-0.0486,-0.2662,-0.4408,-0.5738,-0.6382,-0.7237,-0.9018,-0.8894,-0.8415,-0.8066,-0.6293,-0.464,-0.3664,-0.6018,-0.6229,-0.2056,-0.1813,-0.1947,-0.1962,-0.0758,0.1147,0.3849,0.3989,0.4152,0.4511,0.4504,0.4442,0.4268,0.4268,0.4268,0.4268,0.4255,0.4252,0.4252,0.4421,0.4473,0.0,0.0,0.0,0.0,0.0,0.0,2.6752,0.0,2.7511,0.0,0.0,0.0,0.0,0.0,0.0,0.0,0.0,0.0,0.0,0.0,0.0,0.0,0.0,0.0,0.0,0.0,0.0,0.0,0.0,2.2806,2.2397,2.2186,2.1713,2.0958,2.0492,1.974,1.87,1.7788,1.6509,1.4798,1.4072,1.314,1.2039,1.1854,1.1725,1.1579,1.1579,1.1423,1.115,1.1468,1.149,1.1296,1.1173,1.068,0.9956,0.9474,0.8545,0.7394,0.6721,0.5611,0.4458,0.437,0.4738,0.5282,0.5695,0.6257,0.6687,0.6426,0.6754,0.7225,0.7162,0.7585,0.7619,0.612,0.4933,0.344,0.0877,-0.1726,-0.3754,-0.4361,-0.5526,-0.6343,-0.6302,-0.7074,-0.7287,-0.5982,-0.5981,-0.5831,-0.4996,-0.7633,-0.8924,-0.7201,-0.5519,-0.4238,-0.3615,-0.2948,-0.1322,0.1685,0.3514,0.4516,0.4497,0.4494,0.4484,0.4477,0.4477,0.4477,0.4477,0.4473,0.4525,0.4525,0.4525,0.4522,2.0353,0.0,0.0,0.0,0.0,0.0,0.0,0.0,0.0,0.0,0.0,0.0,0.0,0.0,0.0,0.0,0.0,0.0,0.0,0.0,0.0,0.0,0.0,0.0,0.0,0.0,0.0,2.3033,2.3102,2.3175,2.3206,2.2873,2.2503,2.2045,2.149,2.0586,1.9341,1.8303,1.693,1.5197,1.4261,1.3246,1.219,1.2003,1.1869,1.1805,1.1805,1.1659,1.1468,1.1703,1.1659,1.1423,1.1242,1.0841,1.022,0.9548,0.8678,0.7724,0.6931,0.6014,0.5143,0.4718,0.4935,0.5394,0.5453,0.6116,0.6796,0.6629,0.7243,0.8047,0.8286,0.8521,0.8333,0.6912,0.5572,0.4058,0.1941,-0.0677,-0.2817,-0.3474,-0.4405,-0.4579,-0.3157,-0.4363,-0.4853,-0.2741,-0.3731,-0.4658,-0.4561,-0.7302,-0.9565,-1.0339,-0.8445,-0.6614,-0.5357,-0.4799,-0.3211,-0.0204,0.2434,0.4053,0.4487,0.448,0.4525,0.4519,0.4519,0.4519,0.4519,0.4519,0.4519,0.4519,0.4519,0.4519,0.0,0.0,0.0,2.1031,0.0,0.0,0.0,0.0,2.6005,0.0,0.0,0.0,0.0,0.0,0.0,0.0,0.0,0.0,0.0,0.0,0.0,0.0,0.0,0.0,0.0,0.0,0.0,2.3915,2.4103,2.3936,2.3242,2.2873,2.283,2.313,2.1893,2.0969,2.0443,1.9382,1.7608,1.5197,1.5159,1.412,1.2205,1.219,1.206,1.1805,1.1805,1.179,1.1768,1.1805,1.179,1.174,1.1141,1.0664,1.022,0.9548,0.8831,0.8076,0.7336,0.6251,0.5143,0.4718,0.5143,0.5776,0.5875,0.6934,0.8044,0.7665,0.8445,0.9421,0.9439,0.9079,0.8545,0.7878,0.6198,0.4235,0.2597,0.1019,-0.0803,-0.3143,-0.241,-0.1109,-0.0266,-0.0828,-0.0781,0.1072,0.0775,-0.0234,-0.1907,-0.502,-0.7717,-0.9303,-0.946,-0.8861,-0.7326,-0.5529,-0.3219,-0.0212,0.1421,0.2954,0.4421,0.4525,0.4519,0.4519,0.4519,0.4519,0.4519,0.4519,0.4519,0.4519,0.4519,0.4519,0.0,0.0,1.8808,2.0064,0.0,0.0,0.0,0.0,0.0,0.0,0.0,0.0,0.0,0.0,0.0,0.0,0.0,0.0,0.0,0.0,0.0,0.0,0.0,0.0,0.0,0.0,0.0,2.4551,2.4152,2.3876,0.0,2.3544,2.3414,2.3522,2.267,2.1643,2.0501,1.9928,1.8238,1.5459,1.528,1.4239,1.2455,1.2271,1.2045,1.1805,1.1805,1.1805,1.1805,1.1805,1.1805,1.1762,1.1333,1.0963,1.0567,0.9401,0.8668,0.8145,0.7375,0.6661,0.6045,0.5898,0.623,0.6658,0.6674,0.7265,0.7937,0.7993,0.8575,0.9221,0.9446,0.9646,0.9421,0.8123,0.6996,0.5641,0.3614,0.1903,0.0532,-0.0266,-0.0399,0.0044,0.1539,0.2756,0.3393,0.2996,0.3125,0.2043,-0.1371,-0.5358,-0.8849,-1.1384,-1.1683,-1.1135,-0.9684,-0.5491,-0.2107,-0.0106,0.1206,0.2717,0.4425,0.4382,0.4365,0.4515,0.4519,0.4519,0.4519,0.4519,0.4519,0.4519,0.4519,0.4519,1.7422,1.7544,0.0,1.852,1.9374,0.0,2.1148,0.0,0.0,0.0,0.0,0.0,0.0,0.0,0.0,0.0,0.0,0.0,0.0,2.4522,0.0,0.0,0.0,0.0,0.0,0.0,2.4806,2.4856,2.4572,2.4351,0.0,0.0,2.3735,2.3858,2.3117,2.2181,2.1085,2.0353,1.8768,1.6373,1.567,1.4529,1.2979,1.2542,1.2149,1.1805,1.1805,1.1805,1.1805,1.1805,1.1805,1.1783,1.1423,1.1127,1.0739,0.9454,0.8595,0.8004,0.7334,0.694,0.6717,0.6721,0.6901,0.7164,0.7472,0.7877,0.8282,0.8619,0.9058,0.9497,0.973,0.9883,0.9707,0.8423,0.7556,0.6458,0.4413,0.2964,0.2039,0.2047,0.1644,0.1726,0.3178,0.4696,0.559,0.5332,0.5056,0.3581,-0.0198,-0.4534,-0.858,-1.202,-1.2648,-1.1889,-0.973,-0.5523,-0.2176,-0.0106,0.0985,0.2343,0.4113,0.4174,0.4214,0.4304,0.4464,0.4597,0.4761,0.4601,0.4625,0.4838,0.4838,0.4809]}]]